[[{"header":{"parameterUnit":"m.s-1","parameterCategory":1,"la1":31.0,"la2":29.5877,"lo1":-88.7671,"lo2":-86.6584,"dy":0.0162,"dx":0.0185,"nx":115,"ny":88,"refTime":"2024-04-27T00:00:00:Z","depth":0,"parameterNumber":2,"parameterNumberName":"U-component_of_WINDS"},"data":[0.0,0.0,0.0,0.0,0.0,0.0,0.0,0.0,0.0,0.0,0.0,0.0,0.0,0.0,0.0,0.0,0.0,0.0,0.0,0.0,0.0,0.0,0.0,0.0,0.0,0.0,0.0,0.0,0.0,0.0,0.0,0.0,0.0,0.0,0.0,0.0,0.0,0.0,0.0,0.0,0.0,0.0,0.0,0.0,0.0,0.0,0.0,0.0,0.0,0.0,0.0,0.0,0.0,0.0,0.0,0.0,0.0,0.0,0.0,0.0,0.0,0.0,0.0,0.0,0.0,0.0,0.0,0.0,0.0,0.0,0.0,0.0,0.0,0.0,0.0,0.0,0.0,0.0,0.0,0.0,0.0,0.0,0.0,0.0,0.0,0.0,0.0,0.0,0.0,0.0,0.0,0.0,0.0,0.0,0.0,0.0,0.0,0.0,0.0,0.0,0.0,0.0,0.0,0.0,0.0,0.0,0.0,0.0,0.0,0.0,0.0,0.0,0.0,0.0,0.0,0.0,0.0,0.0,0.0,0.0,0.0,0.0,0.0,0.0,0.0,0.0,0.0,0.0,0.0,0.0,0.0,0.0,0.0,0.0,0.0,0.0,0.0,0.0,0.0,0.0,0.0,0.0,0.0,0.0,0.0,0.0,0.0,0.0,0.0,0.0,0.0,0.0,0.0,0.0,0.0,0.0,0.0,0.0,0.0,0.0,0.0,0.0,0.0,0.0,0.0,0.0,0.0,0.0,0.0,0.0,0.0,0.0,0.0,0.0,0.0,0.0,0.0,0.0,0.0,0.0,0.0,0.0,0.0,0.0,0.0,0.0,0.0,0.0,0.0,0.0,0.0,0.0,0.0,0.0,0.0,0.0,0.0,0.0,0.0,0.0,0.0,0.0,0.0,0.0,0.0,0.0,0.0,0.0,0.0,0.0,0.0,0.0,0.0,0.0,0.0,0.0,0.0,0.0,0.0,0.0,0.0,0.0,0.0,0.0,0.0,0.0,0.0,0.0,0.0,0.0,0.0,0.0,0.0,0.0,0.0,0.0,0.0,0.0,0.0,0.0,0.0,0.0,0.0,0.0,0.0,0.0,0.0,0.0,0.0,0.0,0.0,0.0,0.0,0.0,0.0,0.0,0.0,0.0,0.0,0.0,0.0,0.0,0.0,0.0,0.0,0.0,0.0,0.0,0.0,0.0,0.0,0.0,0.0,0.0,0.0,0.0,0.0,0.0,0.0,0.0,0.0,0.0,0.0,0.0,0.0,0.0,0.0,0.0,0.0,0.0,0.0,0.0,0.0,0.0,0.0,0.0,0.0,0.0,0.0,0.0,0.0,0.0,0.0,0.0,0.0,0.0,0.0,0.0,0.0,0.0,0.0,0.0,0.0,0.0,0.0,0.0,0.0,0.0,0.0,0.0,0.0,0.0,0.0,0.0,0.0,0.0,0.0,0.0,0.0,0.0,0.0,0.0,0.0,0.0,0.0,0.0,0.0,0.0,0.0,0.0,0.0,0.0,0.0,0.0,0.0,0.0,0.0,0.0,0.0,0.0,0.0,0.0,0.0,0.0,0.0,0.0,0.0,0.0,0.0,0.0,0.0,0.0,0.0,0.0,0.0,0.0,0.0,0.0,0.0,0.0,0.0,0.0,0.0,0.0,0.0,0.0,0.0,0.0,0.0,0.0,0.0,0.0,0.0,0.0,0.0,0.0,0.0,0.0,0.0,0.0,0.0,0.0,0.0,0.0,0.0,0.0,0.0,0.0,0.0,0.0,0.0,0.0,0.0,0.0,0.0,0.0,0.0,0.0,0.0,0.0,0.0,0.0,0.0,0.0,0.0,0.0,0.0,0.0,0.0,0.0,0.0,0.0,0.0,0.0,0.0,0.0,0.0,0.0,0.0,0.0,0.0,0.0,0.0,0.0,0.0,0.0,0.0,0.0,0.0,0.0,0.0,0.0,0.0,0.0,0.0,0.0,0.0,0.0,0.0,0.0,0.0,0.0,0.0,0.0,0.0,0.0,0.0,0.0,0.0,0.0,0.0,0.0,0.0,0.0,0.0,0.0,0.0,0.0,0.0,0.0,0.0,0.0,0.0,0.0,0.0,0.0,0.0,0.0,0.0,0.0,0.0,0.0,0.0,0.0,0.0,0.0,0.0,0.0,0.0,0.0,0.0,0.0,0.0,0.0,0.0,0.0,0.0,0.0,0.0,0.0,0.0,0.0,0.0,0.0,0.0,0.0,0.0,0.0,0.0,0.0,0.0,0.0,0.0,0.0,0.0,0.0,0.0,0.0,0.0,0.0,0.0,0.0,0.0,0.0,0.0,0.0,0.0,0.0,0.0,0.0,0.0,0.0,0.0,0.0,0.0,0.0,0.0,0.0,0.0,0.0,0.0,0.0,0.0,0.0,0.0,0.0,0.0,0.0,0.0,0.0,0.0,0.0,0.0,0.0,0.0,0.0,0.0,0.0,0.0,0.0,0.0,0.0,0.0,0.0,0.0,0.0,0.0,0.0,0.0,0.0,0.0,0.0,0.0,0.0,0.0,0.0,0.0,0.0,0.0,0.0,0.0,0.0,0.0,0.0,0.0,0.0,0.0,0.0,0.0,0.0,0.0,0.0,0.0,0.0,0.0,0.0,0.0,0.0,0.0,0.0,0.0,0.0,0.0,0.0,0.0,0.0,0.0,0.0,0.0,0.0,0.0,0.0,0.0,0.0,0.0,0.0,0.0,0.0,0.0,0.0,0.0,0.0,0.0,0.0,0.0,0.0,0.0,0.0,0.0,0.0,0.0,0.0,0.0,0.0,0.0,0.0,0.0,0.0,0.0,0.0,0.0,0.0,0.0,0.0,0.0,0.0,0.0,0.0,0.0,0.0,0.0,0.0,0.0,0.0,0.0,0.0,0.0,0.0,0.0,0.0,0.0,0.0,0.0,0.0,0.0,0.0,0.0,0.0,0.0,0.0,0.0,0.0,0.0,0.0,0.0,0.0,0.0,0.0,0.0,0.0,0.0,0.0,0.0,0.0,0.0,0.0,0.0,0.0,0.0,0.0,0.0,0.0,0.0,0.0,0.0,0.0,0.0,0.0,0.0,0.0,0.0,0.0,0.0,0.0,0.0,0.0,0.0,0.0,0.0,0.0,0.0,0.0,0.0,0.0,0.0,0.0,0.0,0.0,0.0,0.0,0.0,0.0,0.0,0.0,0.0,0.0,0.0,0.0,0.0,0.0,0.0,0.0,0.0,0.0,0.0,0.0,0.0,0.0,0.0,0.0,0.0,0.0,0.0,0.0,0.0,0.0,0.0,0.0,0.0,0.0,0.0,0.0,0.0,0.0,0.0,0.0,0.0,0.0,0.0,0.0,0.0,0.0,0.0,0.0,0.0,0.0,0.0,0.0,0.0,0.0,0.0,0.0,0.0,0.0,0.0,0.0,0.0,0.0,0.0,0.0,0.0,0.0,0.0,0.0,0.0,0.0,0.0,0.0,0.0,0.0,0.0,0.0,0.0,0.0,0.0,0.0,0.0,0.0,0.0,0.0,0.0,0.0,0.0,0.0,0.0,0.0,0.0,0.0,0.0,0.0,0.0,0.0,0.0,0.0,0.0,0.0,0.0,0.0,0.0,0.0,0.0,0.0,0.0,0.0,0.0,0.0,0.0,0.0,0.0,0.0,0.0,0.0,0.0,0.0,0.0,0.0,0.0,0.0,0.0,0.0,0.0,0.0,0.0,0.0,0.0,0.0,0.0,0.0,0.0,0.0,0.0,0.0,0.0,0.0,0.0,0.0,0.0,0.0,0.0,0.0,0.0,0.0,0.0,0.0,0.0,0.0,0.0,0.0,0.0,0.0,0.0,0.0,0.0,0.0,0.0,0.0,0.0,0.0,0.0,0.0,0.0,0.0,0.0,0.0,0.0,0.0,0.0,0.0,0.0,0.0,0.0,0.0,0.0,0.0,0.0,0.0,0.0,0.0,0.0,0.0,0.0,0.0,0.0,0.0,0.0,0.0,0.0,0.0,0.0,0.0,0.0,0.0,0.0,0.0,0.0,0.0,0.0,0.0,0.0,0.0,0.0,0.0,0.0,0.0,0.0,0.0,0.0,0.0,0.0,0.0,0.0,0.0,0.0,0.0,0.0,0.0,0.0,0.0,0.0,0.0,0.0,0.0,0.0,0.0,0.0,0.0,0.0,0.0,0.0,0.0,0.0,0.0,0.0,0.0,0.0,0.0,0.0,0.0,0.0,0.0,0.0,0.0,0.0,0.0,0.0,0.0,-1.0582,0.0,0.0,0.0,0.0,0.0,0.0,0.0,0.0,0.0,0.0,0.0,0.0,0.0,0.0,0.0,0.0,0.0,0.0,0.0,0.0,0.0,0.0,0.0,0.0,0.0,0.0,0.0,0.0,0.0,0.0,0.0,0.0,0.0,0.0,0.0,0.0,0.0,0.0,0.0,0.0,0.0,0.0,0.0,0.0,0.0,0.0,0.0,0.0,0.0,0.0,0.0,0.0,0.0,0.0,0.0,0.0,0.0,0.0,0.0,0.0,0.0,0.0,0.0,0.0,0.0,0.0,0.0,0.0,0.0,0.0,0.0,0.0,0.0,0.0,0.0,0.0,0.0,0.0,0.0,0.0,0.0,0.0,0.0,0.0,0.0,0.0,0.0,0.0,0.0,0.0,0.0,0.0,0.0,0.0,0.0,0.0,0.0,0.0,0.0,0.0,0.0,0.0,0.0,0.0,0.0,0.0,0.0,0.0,0.0,0.0,-1.1486,-1.1671,-1.0962,-1.0582,-1.0622,0.0,0.0,0.0,0.0,0.0,0.0,0.0,0.0,0.0,0.0,0.0,0.0,0.0,0.0,0.0,0.0,0.0,0.0,0.0,0.0,0.0,0.0,0.0,0.0,0.0,0.0,0.0,0.0,0.0,0.0,0.0,0.0,0.0,0.0,0.0,0.0,0.0,0.0,0.0,0.0,0.0,0.0,0.0,0.0,0.0,0.0,0.0,0.0,0.0,0.0,0.0,0.0,0.0,0.0,0.0,0.0,0.0,0.0,0.0,0.0,0.0,0.0,0.0,0.0,0.0,0.0,0.0,0.0,0.0,0.0,0.0,0.0,0.0,0.0,0.0,0.0,0.0,0.0,0.0,0.0,0.0,0.0,0.0,0.0,0.0,0.0,0.0,0.0,0.0,0.0,0.0,0.0,0.0,0.0,0.0,0.0,0.0,0.0,0.0,0.0,0.0,0.0,0.0,0.0,0.0,0.0,0.0,0.0,0.0,0.0,0.0,0.0,-1.2582,-1.2359,-1.2487,0.0,0.0,0.0,0.0,0.0,0.0,0.0,0.0,0.0,0.0,0.0,0.0,0.0,0.0,0.0,0.0,0.0,0.0,0.0,0.0,0.0,0.0,0.0,0.0,0.0,0.0,0.0,0.0,0.0,0.0,0.0,0.0,0.0,0.0,0.0,0.0,0.0,0.0,0.0,0.0,0.0,0.0,0.0,0.0,0.0,0.0,0.0,0.0,0.0,0.0,0.0,0.0,0.0,0.0,0.0,0.0,0.0,0.0,0.0,0.0,0.0,0.0,0.0,0.0,0.0,0.0,0.0,0.0,0.0,0.0,0.0,0.0,0.0,0.0,0.0,0.0,0.0,0.0,0.0,0.0,0.0,0.0,0.0,0.0,0.0,0.0,0.0,0.0,0.0,0.0,0.0,0.0,0.0,0.0,0.0,0.0,0.0,0.0,0.0,0.0,0.0,0.0,0.0,0.0,0.0,0.0,0.0,0.0,0.0,0.0,-1.293,-1.7434,-1.7507,0.0,-1.8051,0.0,0.0,0.0,0.0,0.0,0.0,0.0,0.0,0.0,0.0,0.0,0.0,0.0,0.0,0.0,0.0,0.0,0.0,0.0,0.0,0.0,0.0,0.0,0.0,0.0,0.0,0.0,0.0,0.0,0.0,0.0,0.0,0.0,0.0,0.0,0.0,0.0,0.0,0.0,0.0,0.0,0.0,0.0,0.0,0.0,0.0,0.0,0.0,0.0,0.0,0.0,0.0,0.0,0.0,0.0,0.0,0.0,0.0,0.0,0.0,0.0,0.0,0.0,0.0,0.0,0.0,0.0,0.0,0.0,0.0,0.0,0.0,0.0,0.0,0.0,0.0,0.0,0.0,0.0,0.0,0.0,0.0,0.0,0.0,0.0,0.0,0.0,0.0,0.0,0.0,0.0,0.0,0.0,0.0,0.0,0.0,0.0,0.0,0.0,0.0,0.0,0.0,0.0,0.0,0.0,0.0,0.0,0.0,0.0,0.0,-1.5915,-1.8034,-1.7884,-1.8047,0.0,0.0,0.0,0.0,0.0,0.0,0.0,0.0,0.0,0.0,0.0,0.0,0.0,0.0,0.0,0.0,0.0,0.0,0.0,0.0,0.0,0.0,0.0,0.0,0.0,0.0,0.0,0.0,0.0,0.0,0.0,0.0,0.0,0.0,0.0,0.0,0.0,0.0,0.0,0.0,0.0,0.0,0.0,0.0,0.0,0.0,0.0,0.0,0.0,0.0,0.0,0.0,0.0,0.0,0.0,0.0,0.0,0.0,0.0,0.0,0.0,0.0,0.0,0.0,0.0,0.0,0.0,0.0,0.0,0.0,0.0,0.0,0.0,0.0,0.0,0.0,0.0,0.0,0.0,0.0,0.0,0.0,0.0,0.0,0.0,0.0,0.0,0.0,0.0,0.0,0.0,0.0,0.0,0.0,0.0,0.0,0.0,0.0,0.0,0.0,0.0,0.0,0.0,0.0,0.0,0.0,0.0,0.0,0.0,0.0,-1.6587,-1.8334,-1.9775,-1.9675,-1.9122,-1.8227,0.0,0.0,0.0,0.0,0.0,0.0,0.0,0.0,0.0,0.0,0.0,0.0,0.0,0.0,0.0,0.0,0.0,0.0,0.0,0.0,0.0,0.0,0.0,0.0,0.0,0.0,0.0,0.0,0.0,0.0,0.0,0.0,0.0,0.0,0.0,0.0,0.0,0.0,0.0,0.0,0.0,0.0,0.0,0.0,0.0,0.0,0.0,0.0,0.0,0.0,0.0,0.0,0.0,0.0,0.0,0.0,0.0,0.0,0.0,0.0,0.0,0.0,0.0,0.0,0.0,0.0,0.0,0.0,0.0,0.0,0.0,0.0,0.0,0.0,0.0,0.0,0.0,0.0,0.0,0.0,0.0,0.0,0.0,0.0,0.0,0.0,0.0,0.0,0.0,0.0,0.0,0.0,0.0,0.0,0.0,0.0,0.0,0.0,0.0,0.0,0.0,0.0,0.0,0.0,0.0,0.0,0.0,0.0,-2.2856,-1.9313,-1.9499,-2.4337,-2.4529,-2.2242,0.0,0.0,0.0,0.0,0.0,0.0,0.0,0.0,0.0,0.0,0.0,0.0,0.0,0.0,0.0,0.0,0.0,0.0,0.0,0.0,0.0,0.0,0.0,0.0,0.0,0.0,0.0,0.0,0.0,0.0,0.0,0.0,0.0,0.0,0.0,0.0,0.0,0.0,0.0,0.0,0.0,0.0,0.0,0.0,0.0,0.0,0.0,0.0,0.0,0.0,0.0,0.0,0.0,0.0,0.0,0.0,0.0,0.0,0.0,0.0,0.0,0.0,0.0,0.0,0.0,0.0,0.0,0.0,0.0,0.0,0.0,0.0,0.0,0.0,0.0,0.0,0.0,0.0,0.0,0.0,0.0,0.0,0.0,0.0,0.0,0.0,0.0,0.0,0.0,0.0,0.0,0.0,0.0,0.0,0.0,0.0,0.0,0.0,0.0,0.0,0.0,0.0,0.0,0.0,0.0,0.0,0.0,0.0,0.0,-1.5139,-1.6248,-2.1039,-2.931,-2.2937,-1.989,0.0,0.0,0.0,0.0,0.0,0.0,0.0,0.0,0.0,0.0,0.0,0.0,0.0,0.0,0.0,0.0,0.0,0.0,0.0,0.0,0.0,0.0,0.0,0.0,0.0,0.0,0.0,0.0,0.0,0.0,0.0,0.0,0.0,0.0,0.0,0.0,0.0,0.0,0.0,0.0,0.0,0.0,0.0,0.0,0.0,0.0,0.0,0.0,0.0,0.0,0.0,0.0,0.0,0.0,0.0,0.0,0.0,0.0,0.0,0.0,0.0,0.0,0.0,0.0,0.0,0.0,0.0,0.0,0.0,0.0,0.0,0.0,0.0,0.0,0.0,0.0,0.0,0.0,0.0,0.0,0.0,0.0,0.0,0.0,0.0,0.0,0.0,0.0,0.0,0.0,0.0,0.0,0.0,0.0,0.0,0.0,0.0,0.0,0.0,0.0,0.0,0.0,0.0,0.0,0.0,0.0,0.0,0.0,0.0,-1.5307,0.0,-2.4289,-2.9574,-2.2459,-1.8671,0.0,0.0,0.0,0.0,0.0,0.0,0.0,0.0,0.0,0.0,0.0,0.0,0.0,0.0,0.0,0.0,0.0,0.0,0.0,0.0,0.0,0.0,0.0,0.0,0.0,0.0,0.0,0.0,0.0,0.0,0.0,0.0,0.0,0.0,0.0,0.0,0.0,0.0,0.0,0.0,0.0,0.0,0.0,0.0,0.0,0.0,0.0,0.0,0.0,0.0,0.0,0.0,0.0,0.0,0.0,0.0,0.0,0.0,0.0,0.0,0.0,0.0,0.0,0.0,0.0,0.0,0.0,0.0,0.0,0.0,0.0,0.0,0.0,0.0,0.0,0.0,0.0,0.0,0.0,0.0,0.0,0.0,0.0,0.0,0.0,0.0,0.0,0.0,0.0,0.0,0.0,0.0,0.0,0.0,0.0,0.0,0.0,0.0,0.0,0.0,0.0,0.0,0.0,0.0,0.0,0.0,0.0,0.0,-1.6086,-2.5249,-2.897,-2.8743,-2.4962,-2.3628,-1.8846,0.0,0.0,0.0,0.0,0.0,0.0,0.0,0.0,0.0,0.0,0.0,0.0,0.0,0.0,0.0,0.0,0.0,0.0,0.0,0.0,0.0,0.0,0.0,0.0,0.0,0.0,0.0,0.0,0.0,0.0,0.0,0.0,0.0,0.0,0.0,0.0,0.0,0.0,0.0,0.0,0.0,0.0,0.0,0.0,0.0,0.0,0.0,0.0,0.0,0.0,0.0,0.0,0.0,0.0,0.0,0.0,0.0,0.0,0.0,0.0,0.0,0.0,0.0,0.0,0.0,0.0,0.0,0.0,0.0,0.0,0.0,0.0,0.0,0.0,0.0,0.0,0.0,0.0,0.0,0.0,0.0,0.0,0.0,0.0,0.0,0.0,0.0,0.0,0.0,0.0,0.0,0.0,0.0,0.0,0.0,0.0,0.0,0.0,0.0,0.0,0.0,0.0,0.0,0.0,0.0,0.0,0.0,0.0,0.0,-2.2791,-2.4187,-2.6568,-2.9618,-2.0915,-1.7143,0.0,0.0,0.0,0.0,0.0,0.0,0.0,0.0,0.0,0.0,0.0,0.0,0.0,0.0,0.0,0.0,0.0,0.0,0.0,0.0,0.0,0.0,0.0,0.0,0.0,0.0,0.0,0.0,0.0,0.0,0.0,0.0,0.0,0.0,0.0,0.0,0.0,0.0,0.0,0.0,0.0,0.0,0.0,0.0,0.0,0.0,0.0,0.0,0.0,0.0,0.0,0.0,0.0,0.0,0.0,0.0,0.0,0.0,0.0,0.0,0.0,0.0,0.0,0.0,0.0,0.0,0.0,0.0,0.0,0.0,0.0,0.0,0.0,0.0,0.0,0.0,0.0,0.0,0.0,0.0,0.0,0.0,0.0,0.0,0.0,0.0,0.0,0.0,0.0,0.0,0.0,0.0,0.0,0.0,0.0,0.0,0.0,0.0,0.0,0.0,0.0,0.0,0.0,0.0,0.0,0.0,0.0,0.0,0.0,-2.798,-2.8489,-2.98,-3.192,-2.2213,-1.792,-1.9788,0.0,0.0,0.0,0.0,0.0,0.0,0.0,0.0,0.0,0.0,0.0,0.0,0.0,0.0,0.0,0.0,0.0,0.0,0.0,0.0,0.0,0.0,0.0,0.0,0.0,0.0,0.0,0.0,0.0,0.0,0.0,0.0,0.0,0.0,0.0,0.0,0.0,0.0,0.0,0.0,0.0,0.0,0.0,0.0,0.0,0.0,0.0,0.0,0.0,0.0,0.0,0.0,0.0,0.0,0.0,0.0,0.0,0.0,0.0,0.0,0.0,0.0,0.0,0.0,0.0,0.0,0.0,0.0,0.0,0.0,0.0,0.0,0.0,0.0,0.0,0.0,0.0,0.0,0.0,0.0,0.0,0.0,0.0,0.0,0.0,0.0,0.0,0.0,0.0,0.0,0.0,0.0,0.0,0.0,0.0,0.0,0.0,0.0,0.0,0.0,0.0,0.0,0.0,0.0,0.0,0.0,0.0,0.0,-3.8934,-3.9942,-3.7472,-3.1675,-2.6841,-2.1005,0.0,0.0,0.0,0.0,0.0,0.0,0.0,0.0,0.0,0.0,0.0,0.0,0.0,0.0,0.0,0.0,0.0,0.0,0.0,0.0,0.0,0.0,0.0,0.0,0.0,0.0,0.0,0.0,0.0,0.0,0.0,0.0,0.0,0.0,0.0,0.0,0.0,0.0,0.0,0.0,0.0,0.0,0.0,0.0,0.0,0.0,0.0,0.0,0.0,0.0,0.0,0.0,0.0,0.0,0.0,0.0,0.0,0.0,0.0,0.0,0.0,0.0,0.0,0.0,0.0,0.0,0.0,0.0,0.0,0.0,0.0,0.0,0.0,0.0,0.0,0.0,0.0,0.0,0.0,0.0,0.0,0.0,0.0,0.0,0.0,0.0,0.0,0.0,0.0,0.0,0.0,0.0,0.0,0.0,0.0,0.0,0.0,0.0,0.0,0.0,0.0,0.0,0.0,0.0,0.0,0.0,0.0,0.0,0.0,-4.2533,-4.2777,-4.1206,-3.779,-2.9073,-2.315,0.0,0.0,0.0,0.0,0.0,0.0,0.0,0.0,0.0,0.0,0.0,0.0,0.0,0.0,0.0,0.0,0.0,0.0,0.0,0.0,0.0,0.0,0.0,0.0,0.0,0.0,0.0,0.0,0.0,0.0,0.0,0.0,0.0,0.0,0.0,0.0,0.0,0.0,0.0,0.0,0.0,0.0,0.0,0.0,0.0,0.0,0.0,0.0,0.0,0.0,0.0,0.0,0.0,0.0,0.0,0.0,0.0,0.0,0.0,0.0,0.0,0.0,0.0,0.0,0.0,0.0,0.0,0.0,0.0,0.0,0.0,0.0,0.0,0.0,0.0,0.0,0.0,0.0,0.0,0.0,0.0,0.0,0.0,0.0,0.0,0.0,0.0,0.0,0.0,0.0,0.0,0.0,0.0,0.0,0.0,0.0,0.0,0.0,0.0,0.0,0.0,0.0,0.0,0.0,0.0,0.0,0.0,0.0,-3.9899,-4.4698,-4.4827,-4.3626,-4.1177,-3.2765,-2.6264,0.0,0.0,0.0,0.0,0.0,0.0,0.0,0.0,0.0,0.0,0.0,0.0,0.0,0.0,0.0,0.0,0.0,0.0,0.0,0.0,0.0,0.0,0.0,0.0,0.0,0.0,0.0,0.0,0.0,0.0,0.0,0.0,0.0,0.0,0.0,0.0,0.0,0.0,0.0,0.0,0.0,0.0,0.0,0.0,0.0,0.0,0.0,0.0,0.0,0.0,0.0,0.0,0.0,0.0,0.0,0.0,0.0,0.0,0.0,0.0,0.0,0.0,0.0,0.0,0.0,0.0,0.0,0.0,0.0,0.0,0.0,0.0,0.0,0.0,0.0,0.0,0.0,0.0,0.0,0.0,0.0,0.0,0.0,0.0,0.0,0.0,0.0,0.0,0.0,0.0,0.0,0.0,0.0,0.0,0.0,0.0,0.0,0.0,0.0,0.0,0.0,0.0,0.0,0.0,0.0,0.0,0.0,0.0,-4.1607,-4.5572,-4.6115,-4.4968,-4.2144,-3.6567,-2.9613,0.0,0.0,0.0,0.0,0.0,0.0,0.0,0.0,0.0,0.0,0.0,0.0,0.0,0.0,0.0,0.0,0.0,0.0,0.0,0.0,0.0,0.0,0.0,0.0,0.0,0.0,0.0,0.0,0.0,0.0,0.0,0.0,0.0,0.0,0.0,0.0,0.0,0.0,0.0,0.0,0.0,0.0,0.0,0.0,0.0,0.0,0.0,0.0,0.0,0.0,0.0,0.0,0.0,0.0,0.0,0.0,0.0,0.0,0.0,0.0,0.0,0.0,0.0,0.0,0.0,0.0,0.0,0.0,0.0,0.0,0.0,0.0,0.0,0.0,0.0,0.0,0.0,0.0,0.0,0.0,0.0,0.0,0.0,0.0,0.0,0.0,0.0,0.0,0.0,0.0,0.0,0.0,0.0,0.0,0.0,0.0,0.0,0.0,0.0,0.0,0.0,0.0,0.0,0.0,0.0,0.0,0.0,0.0,-4.3121,-4.56,-4.6115,-4.4917,-4.204,-3.6438,-3.0037,0.0,0.0,0.0,0.0,0.0,0.0,0.0,0.0,0.0,0.0,0.0,0.0,0.0,0.0,0.0,0.0,0.0,0.0,0.0,0.0,0.0,0.0,0.0,0.0,0.0,0.0,0.0,0.0,0.0,0.0,0.0,0.0,0.0,0.0,0.0,0.0,0.0,0.0,0.0,0.0,0.0,0.0,0.0,0.0,0.0,0.0,0.0,0.0,-0.7451,0.0,0.0,0.0,0.0,0.0,0.0,0.0,0.0,0.0,0.0,0.0,0.0,0.0,0.0,0.0,0.0,0.0,0.0,0.0,0.0,0.0,0.0,0.0,0.0,0.0,0.0,0.0,0.0,0.0,0.0,0.0,0.0,0.0,0.0,0.0,0.0,0.0,0.0,0.0,0.0,0.0,0.0,0.0,0.0,0.0,0.0,0.0,0.0,0.0,0.0,0.0,0.0,0.0,0.0,0.0,0.0,0.0,0.0,0.0,-4.415,-4.5689,-4.5453,-4.4196,-4.1901,-3.677,-3.0894,0.0,0.0,0.0,0.0,0.0,0.0,0.0,0.0,0.0,0.0,0.0,0.0,0.0,0.0,0.0,0.0,0.0,0.0,0.0,0.0,0.0,0.0,0.0,0.0,0.0,0.0,0.0,0.0,0.0,0.0,0.0,0.0,0.0,0.0,0.0,0.0,0.0,0.0,0.0,0.0,0.0,0.0,0.0,0.0,0.0,0.0,0.0,0.0,0.0,0.0,0.0,0.0,0.0,0.0,0.0,0.0,0.0,0.0,0.0,0.0,0.0,0.0,0.0,0.0,0.0,0.0,0.0,0.0,0.0,0.0,0.0,0.0,0.0,0.0,0.0,0.0,0.0,0.0,0.0,0.0,0.0,0.0,0.0,0.0,0.0,0.0,0.0,0.0,0.0,0.0,0.0,0.0,0.0,0.0,0.0,0.0,0.0,0.0,0.0,0.0,0.0,0.0,0.0,0.0,0.0,0.0,0.0,-4.1833,-4.4602,-4.5748,-4.4773,-4.3413,-4.1699,-3.7133,-3.1642,-2.5303,0.0,0.0,0.0,0.0,0.0,0.0,0.0,0.0,0.0,0.0,0.0,0.0,0.0,0.0,0.0,0.0,0.0,0.0,0.0,0.0,0.0,0.0,0.0,0.0,0.0,0.0,0.0,0.0,0.0,0.0,0.0,0.0,0.0,0.0,0.0,0.0,0.0,0.0,-1.2168,-1.4958,0.0,0.0,0.0,0.0,0.0,0.0,0.0,0.0,-1.0394,0.0,0.0,0.0,0.0,0.0,0.0,0.0,0.0,0.0,0.0,0.0,0.0,0.0,0.0,0.0,0.0,0.0,0.0,0.0,0.0,0.0,0.0,0.0,0.0,0.0,0.0,0.0,0.0,0.0,0.0,0.0,0.0,0.0,0.0,0.0,0.0,0.0,0.0,0.0,0.0,0.0,0.0,0.0,0.0,0.0,0.0,0.0,0.0,0.0,0.0,0.0,0.0,0.0,0.0,0.0,0.0,-4.2543,-4.3104,-4.404,-4.5481,-4.4872,-4.3251,-4.0531,-3.6584,-3.1345,-2.4771,0.0,0.0,0.0,0.0,0.0,0.0,0.0,0.0,0.0,0.0,0.0,0.0,0.0,0.0,0.0,0.0,0.0,0.0,0.0,0.0,0.0,0.0,0.0,0.0,0.0,0.0,0.0,0.0,0.0,0.0,0.0,0.0,0.0,0.0,0.0,0.0,0.0,0.0,0.0,-1.7862,-1.8213,0.0,0.0,0.0,0.0,0.0,0.0,0.0,0.0,-1.0111,0.0,0.0,0.0,0.0,0.0,0.0,0.0,0.0,0.0,0.0,0.0,0.0,0.0,0.0,0.0,0.0,0.0,0.0,0.0,0.0,0.0,0.0,0.0,0.0,0.0,0.0,0.0,0.0,0.0,0.0,0.0,0.0,0.0,0.0,0.0,0.0,0.0,0.0,0.0,0.0,0.0,0.0,0.0,0.0,0.0,0.0,0.0,0.0,0.0,0.0,0.0,0.0,0.0,0.0,0.0,-4.1949,-4.4425,-4.559,-4.5678,-4.4394,-4.2406,-3.9699,-3.3874,-2.8324,0.0,0.0,0.0,0.0,0.0,0.0,0.0,0.0,0.0,0.0,0.0,0.0,0.0,0.0,0.0,0.0,0.0,0.0,0.0,0.0,0.0,0.0,0.0,0.0,0.0,0.0,0.0,0.0,0.0,0.0,0.0,0.0,0.0,0.0,0.0,0.0,0.0,0.0,0.0,0.0,-1.948,-2.0021,-1.8854,0.0,0.0,0.0,0.0,0.0,0.0,-1.3379,-1.1703,0.0,0.0,0.0,0.0,0.0,0.0,0.0,0.0,0.0,0.0,0.0,0.0,0.0,0.0,0.0,0.0,0.0,0.0,0.0,0.0,0.0,0.0,0.0,0.0,0.0,0.0,0.0,0.0,0.0,0.0,0.0,0.0,0.0,0.0,0.0,0.0,0.0,0.0,0.0,0.0,0.0,0.0,0.0,0.0,0.0,0.0,0.0,0.0,0.0,0.0,0.0,0.0,0.0,0.0,0.0,-4.0463,-4.4948,-4.6767,-4.5846,-4.395,-4.1654,-3.8969,-3.1925,-2.6054,0.0,0.0,0.0,0.0,0.0,0.0,0.0,0.0,0.0,0.0,0.0,0.0,0.0,0.0,0.0,0.0,0.0,0.0,0.0,0.0,0.0,0.0,0.0,0.0,0.0,0.0,0.0,0.0,0.0,0.0,0.0,0.0,0.0,0.0,0.0,0.0,0.0,0.0,0.0,0.0,0.0,-2.2119,-2.0031,-1.856,0.0,0.0,0.0,0.0,-1.772,-1.5956,0.0,0.0,0.0,0.0,0.0,0.0,0.0,0.0,0.0,0.0,0.0,0.0,0.0,0.0,0.0,0.0,0.0,0.0,0.0,0.0,0.0,0.0,0.0,0.0,0.0,0.0,0.0,0.0,0.0,0.0,0.0,0.0,0.0,0.0,0.0,0.0,0.0,0.0,0.0,0.0,0.0,0.0,0.0,0.0,0.0,0.0,0.0,0.0,0.0,0.0,0.0,0.0,0.0,0.0,0.0,0.0,-3.9564,-4.3307,-4.5411,-4.5769,-4.4146,-4.1548,-3.805,-3.3317,-2.7456,0.0,0.0,0.0,0.0,0.0,0.0,0.0,0.0,0.0,0.0,0.0,0.0,0.0,0.0,0.0,0.0,0.0,0.0,0.0,0.0,0.0,0.0,0.0,0.0,0.0,0.0,0.0,0.0,0.0,0.0,0.0,0.0,0.0,0.0,0.0,0.0,0.0,0.0,0.0,0.0,0.0,-2.5177,-2.1645,-2.1319,-2.0799,0.0,0.0,0.0,-1.9217,-1.8842,0.0,0.0,0.0,0.0,0.0,0.0,0.0,0.0,0.0,0.0,0.0,0.0,0.0,0.0,0.0,0.0,0.0,0.0,0.0,0.0,0.0,0.0,0.0,0.0,0.0,0.0,0.0,0.0,0.0,0.0,0.0,0.0,0.0,0.0,0.0,0.0,0.0,0.0,0.0,0.0,0.0,0.0,0.0,0.0,0.0,0.0,0.0,0.0,0.0,0.0,0.0,0.0,0.0,0.0,0.0,-3.4377,-4.0182,-4.4787,-4.6809,-4.6126,-4.4277,-4.1505,-3.7763,-3.1397,-2.5159,0.0,0.0,0.0,0.0,0.0,0.0,0.0,0.0,0.0,0.0,0.0,0.0,0.0,0.0,0.0,0.0,0.0,0.0,0.0,0.0,0.0,0.0,0.0,0.0,0.0,0.0,0.0,0.0,0.0,0.0,0.0,0.0,0.0,0.0,0.0,0.0,0.0,0.0,0.0,0.0,0.0,0.0,-2.348,-2.3342,0.0,0.0,0.0,-2.1335,-2.1073,0.0,0.0,0.0,0.0,0.0,0.0,0.0,0.0,0.0,0.0,0.0,0.0,0.0,0.0,0.0,0.0,0.0,0.0,0.0,0.0,0.0,0.0,0.0,0.0,0.0,0.0,0.0,0.0,0.0,0.0,0.0,0.0,0.0,0.0,0.0,0.0,0.0,0.0,0.0,0.0,0.0,0.0,0.0,0.0,0.0,0.0,0.0,0.0,0.0,0.0,0.0,0.0,0.0,0.0,0.0,0.0,0.0,-4.0364,-4.5704,-4.7722,-4.6202,-4.4325,-4.1543,-3.7787,-3.0719,0.0,0.0,0.0,0.0,0.0,0.0,0.0,0.0,0.0,0.0,0.0,0.0,0.0,0.0,0.0,0.0,0.0,0.0,0.0,0.0,0.0,0.0,0.0,0.0,0.0,0.0,0.0,-0.6042,0.0,0.0,0.0,0.0,0.0,0.0,0.0,0.0,0.0,0.0,0.0,0.0,0.0,0.0,-2.4608,-2.4686,-2.5013,-2.4966,0.0,0.0,-2.296,-2.2397,-2.0926,-1.8448,0.0,0.0,0.0,0.0,0.0,0.0,0.0,0.0,0.0,0.0,0.0,0.0,0.0,0.0,0.0,0.0,0.0,0.0,0.0,0.0,0.0,0.0,0.0,0.0,0.0,0.0,0.0,0.0,0.0,0.0,0.0,0.0,0.0,0.0,0.0,0.0,0.0,0.0,0.0,0.0,0.0,0.0,0.0,0.0,0.0,0.0,0.0,0.0,0.0,0.0,0.0,0.0,0.0,0.0,0.0,-3.9311,-4.4486,-4.6744,-4.5902,-4.4229,-4.1669,-3.8239,-3.333,-2.7241,0.0,0.0,0.0,0.0,0.0,0.0,0.0,0.0,0.0,0.0,0.0,0.0,0.0,0.0,0.0,0.0,0.0,0.0,0.0,0.0,0.0,0.0,0.0,0.0,0.0,0.0,0.0,0.0,0.0,0.0,0.0,0.0,0.0,0.0,0.0,0.0,0.0,0.0,0.0,0.0,0.0,-2.6113,-2.4565,-2.6387,-2.716,0.0,0.0,-2.4346,-2.2679,-2.2598,-2.0625,-1.4509,0.0,0.0,0.0,0.0,0.0,0.0,0.0,0.0,0.0,0.0,0.0,0.0,0.0,0.0,0.0,0.0,0.0,0.0,0.0,0.0,0.0,0.0,0.0,0.0,0.0,0.0,0.0,0.0,0.0,0.0,0.0,0.0,0.0,0.0,0.0,0.0,0.0,0.0,0.0,0.0,0.0,0.0,0.0,0.0,0.0,0.0,0.0,0.0,0.0,0.0,0.0,0.0,0.0,-3.3974,-3.8251,-4.3696,-4.6103,-4.5351,-4.4132,-4.2304,-3.9803,-3.5399,-2.9819,0.0,0.0,0.0,0.0,0.0,0.0,0.0,0.0,0.0,0.0,0.0,0.0,0.0,0.0,0.0,0.0,0.0,0.0,0.0,0.0,0.0,0.0,0.0,0.0,0.0,0.0,0.0,0.0,-1.1608,-1.2053,-1.5383,0.0,0.0,0.0,0.0,0.0,0.0,0.0,0.0,0.0,0.0,-2.7247,-2.7573,-2.8345,0.0,0.0,-2.6289,-2.5938,-2.4138,-2.3327,-2.1401,-1.7023,-1.5486,0.0,0.0,0.0,0.0,0.0,0.0,0.0,0.0,0.0,0.0,0.0,0.0,0.0,0.0,0.0,0.0,0.0,0.0,0.0,0.0,0.0,0.0,0.0,0.0,0.0,0.0,0.0,0.0,0.0,0.0,0.0,0.0,0.0,0.0,0.0,0.0,0.0,0.0,0.0,0.0,0.0,0.0,0.0,0.0,0.0,0.0,0.0,0.0,0.0,0.0,0.0,0.0,-3.319,-3.7416,-4.2713,-4.5107,-4.4381,-4.3478,-4.2203,-4.0364,-3.6791,-3.2,0.0,0.0,0.0,0.0,0.0,0.0,0.0,0.0,0.0,0.0,0.0,0.0,0.0,0.0,0.0,0.0,0.0,0.0,0.0,0.0,0.0,0.0,0.0,0.0,0.0,0.0,0.0,0.0,-1.331,-1.3352,-1.4117,0.0,0.0,0.0,0.0,0.0,0.0,0.0,0.0,0.0,0.0,-2.8678,-2.992,-2.9758,-2.909,-2.8081,-2.7657,-2.6949,-2.5476,-2.4286,-2.2452,-1.9259,0.0,0.0,0.0,0.0,0.0,0.0,0.0,0.0,0.0,0.0,0.0,0.0,0.0,0.0,0.0,0.0,0.0,0.0,0.0,0.0,0.0,0.0,0.0,0.0,0.0,0.0,0.0,0.0,0.0,0.0,-3.0921,0.0,0.0,0.0,0.0,0.0,0.0,0.0,0.0,0.0,0.0,0.0,0.0,0.0,0.0,0.0,0.0,0.0,0.0,0.0,0.0,0.0,0.0,-3.2364,-3.6764,-4.136,-4.3478,-4.2949,-4.2112,-4.1071,-3.9799,-3.7412,-3.3701,-2.8451,0.0,0.0,0.0,0.0,0.0,0.0,0.0,0.0,0.0,0.0,0.0,0.0,0.0,0.0,0.0,0.0,0.0,0.0,0.0,0.0,0.0,0.0,0.0,0.0,0.0,0.0,-1.3748,-1.5226,-1.4958,0.0,0.0,0.0,0.0,0.0,0.0,0.0,0.0,0.0,0.0,-2.9919,-3.0509,-3.1007,-3.036,-3.0061,-3.0592,-2.885,-2.7165,-2.6411,-2.5688,-2.4086,0.0,0.0,0.0,0.0,0.0,0.0,0.0,0.0,0.0,0.0,0.0,0.0,0.0,0.0,0.0,0.0,0.0,0.0,0.0,0.0,0.0,0.0,0.0,0.0,0.0,0.0,0.0,-4.5225,-4.2003,0.0,0.0,0.0,0.0,0.0,0.0,0.0,0.0,0.0,0.0,0.0,-4.9057,-4.8211,0.0,0.0,0.0,0.0,0.0,0.0,0.0,0.0,0.0,0.0,0.0,0.0,-3.3028,-3.6618,-4.1074,-4.2972,-4.2085,-4.2086,-4.175,-4.0905,-3.9067,-3.4944,-2.8366,0.0,0.0,0.0,0.0,0.0,0.0,0.0,0.0,0.0,0.0,0.0,0.0,0.0,0.0,0.0,0.0,0.0,0.0,0.0,0.0,0.0,0.0,0.0,0.0,0.0,-0.9718,0.0,0.0,0.0,0.0,0.0,0.0,0.0,0.0,0.0,0.0,0.0,-2.9455,-3.0546,-3.0825,-3.134,-3.2472,-3.2163,-3.1778,0.0,0.0,0.0,0.0,0.0,0.0,0.0,0.0,0.0,0.0,0.0,0.0,0.0,0.0,-1.9131,-1.3425,-1.1763,-1.1371,-1.1855,0.0,0.0,0.0,0.0,0.0,0.0,0.0,0.0,0.0,0.0,0.0,0.0,0.0,0.0,0.0,0.0,-4.6624,0.0,0.0,0.0,0.0,0.0,0.0,0.0,0.0,-5.3865,-5.5135,-5.4121,-5.358,-5.1347,0.0,-4.4624,-3.8647,0.0,0.0,0.0,0.0,0.0,0.0,0.0,0.0,-3.3688,-3.7093,-4.067,-4.1989,-4.0824,-4.1086,-4.0881,-4.0187,-3.8728,-3.5478,-3.0302,-2.6595,-2.3069,0.0,0.0,0.0,0.0,0.0,0.0,0.0,0.0,0.0,0.0,0.0,0.0,0.0,0.0,0.0,0.0,0.0,0.0,0.0,0.0,0.0,0.0,0.0,-1.0079,0.0,0.0,0.0,0.0,0.0,0.0,0.0,0.0,0.0,-3.0144,-3.1621,-3.3025,-3.3525,-3.2975,-3.2904,-3.3862,0.0,0.0,0.0,0.0,0.0,0.0,0.0,-2.8293,-2.7343,-2.6683,-2.5758,-2.4236,-2.1147,-1.9843,-2.2744,0.0,0.0,-1.7519,-1.6039,-1.5727,-1.604,-1.598,-1.5875,-1.5836,-1.6387,-1.6332,0.0,0.0,0.0,0.0,0.0,0.0,0.0,0.0,-6.0442,-5.8349,0.0,-5.2934,0.0,0.0,0.0,0.0,0.0,-5.2145,0.0,0.0,-5.9333,-6.0364,-5.9008,-5.6298,-5.4106,-5.2425,-5.1851,-4.8379,-4.2003,-3.2201,0.0,0.0,0.0,0.0,0.0,0.0,-3.4399,-3.8183,-4.025,-4.0588,-3.9262,-3.9144,-3.8648,-3.7723,-3.6647,-3.5459,-3.4086,-3.1263,-2.7719,-2.3235,-1.8597,0.0,0.0,0.0,0.0,0.0,0.0,0.0,0.0,0.0,0.0,0.0,0.0,0.0,0.0,0.0,0.0,0.0,0.0,0.0,0.0,-0.9735,0.0,0.0,0.0,0.0,0.0,0.0,0.0,0.0,0.0,0.0,-3.4891,-3.6357,-3.777,-3.786,0.0,0.0,0.0,0.0,-3.5412,-3.4883,-3.3797,-3.3033,-3.3069,-3.2793,-3.195,-3.0114,0.0,0.0,-2.7034,-2.6564,-2.6137,-2.5213,-2.5009,-2.4432,-2.3014,-2.1924,-2.1428,-2.119,-2.009,-1.9627,-2.0114,-2.0076,-1.9936,-7.182,0.0,0.0,0.0,0.0,-6.7721,-6.8794,-7.0977,-6.8897,-6.6208,-6.3158,-6.073,0.0,0.0,0.0,0.0,0.0,0.0,-5.7023,-5.9211,-5.9375,-5.9403,-5.9459,-5.7589,-5.5955,-5.4551,-5.2951,-5.0357,-4.6829,-4.2152,-3.5755,-2.7906,0.0,0.0,0.0,0.0,-3.6851,-3.8833,-4.0605,-4.0685,-3.8948,-3.8666,-3.7906,-3.6656,-3.6635,-3.6019,-3.4705,-3.319,-3.0623,-2.688,-2.2485,0.0,0.0,0.0,0.0,0.0,0.0,0.0,0.0,0.0,0.0,0.0,0.0,0.0,0.0,0.0,0.0,0.0,0.0,0.0,-1.2759,-1.2796,-1.3605,0.0,0.0,0.0,0.0,0.0,0.0,0.0,0.0,0.0,-4.0008,-4.0048,-3.977,0.0,0.0,-3.7512,-3.6249,-3.7181,-3.7735,-3.7011,0.0,0.0,0.0,-3.2957,-3.1981,-3.1309,-3.0661,-3.0012,-2.9535,-2.9519,-2.9026,-2.7425,-2.7667,-2.7583,-2.5857,-2.3937,-2.2644,-2.2282,-2.1913,-2.1828,-2.2293,-2.274,-2.3018,-7.8961,-7.5306,-7.3175,-7.2749,-7.3521,-7.2789,-7.3606,-7.5295,-7.33,-7.1358,-6.9277,-6.6946,-6.3374,-5.9074,-5.6532,0.0,0.0,0.0,-5.9493,-6.1126,-5.9979,-5.9454,-5.9243,-5.7828,-5.6507,-5.5049,-5.33,-5.1486,-4.9471,-4.7174,-4.2231,-3.4899,0.0,0.0,-3.3784,-3.6381,-3.8441,-3.9773,-4.0515,-4.008,-3.8558,-3.7595,-3.6554,-3.5306,-3.5641,-3.5267,-3.4159,-3.3597,-3.2106,-2.9566,-2.5728,-2.1207,0.0,0.0,0.0,0.0,0.0,0.0,0.0,0.0,0.0,0.0,0.0,-1.329,-0.7954,0.0,0.0,0.0,-1.2754,-1.5408,-1.9049,-1.9631,0.0,0.0,0.0,0.0,0.0,0.0,0.0,-3.9702,-4.207,-4.3622,-4.3642,-4.3138,-4.2325,-4.1211,-4.0127,-3.9214,-3.8599,0.0,-3.953,-3.859,-3.7623,-3.663,-3.5646,-3.4424,-3.3427,-3.2939,-3.1781,-3.1159,-3.1677,-3.148,-3.0864,-3.0029,-2.9602,-2.9062,-2.7666,-2.6028,-2.475,-2.4413,-2.4375,-2.4473,-2.4627,-2.4967,-2.5246,-8.3522,-8.2921,-7.8987,-7.7432,-7.7557,-7.7557,-7.7372,-7.6892,-7.4817,-7.4181,-7.4302,-7.1517,-6.928,-6.7415,-6.3443,0.0,-6.2422,-6.2256,-6.2179,-6.2159,-6.1144,-5.9914,-5.8734,-5.7477,-5.6076,-5.4501,-5.3367,-5.1993,-5.0416,-4.8468,-4.5812,-4.2704,-4.0539,-3.929,-3.8869,-3.8789,-3.9448,-4.0793,-4.0058,-3.9117,-3.7913,-3.6172,-3.4733,-3.3588,-3.372,-3.3411,-3.2654,-3.2603,-3.21,-3.1022,-2.8048,-2.4054,-1.8975,0.0,0.0,0.0,0.0,0.0,0.0,0.0,0.0,0.0,0.0,0.0,0.0,0.0,0.0,0.0,-2.1722,0.0,-2.5521,-2.853,0.0,0.0,0.0,-3.8489,-4.5273,-4.4606,-4.3857,-4.4236,0.0,0.0,0.0,0.0,-4.5043,-4.41,-4.1691,-4.0388,-4.1363,-4.1093,-4.0637,-3.9539,-3.8549,-3.7742,-3.718,-3.6252,-3.5208,-3.4414,-3.3365,-3.2616,-3.3001,-3.2425,-3.1996,-3.1913,-3.0719,-2.9317,-2.87,-2.7977,-2.7654,-2.7249,-2.7105,-2.7052,-2.6842,-2.6816,-2.6878,-8.4181,-8.3202,-8.2162,-8.0729,-7.9097,-7.8736,-7.7949,-7.6864,-7.617,-7.5215,-7.4056,-7.2698,-7.0707,-6.8102,-6.6502,-6.5561,-6.5191,-6.4225,-6.3612,-6.3025,-6.1407,-5.985,-5.8367,-5.7355,-5.5853,-5.3948,-5.3174,-5.185,-5.0126,-4.8729,-4.6968,-4.4939,-4.41,-4.1902,-3.8491,-3.9448,-4.0105,-4.0261,-4.0283,-3.912,-3.6832,-3.5163,-3.3273,-3.1266,-3.0773,-3.0133,-2.9252,-2.9202,-2.9113,-2.8909,-2.7119,-2.4746,-2.1814,-1.7388,0.0,0.0,0.0,0.0,0.0,0.0,0.0,0.0,0.0,-2.948,-1.6783,0.0,-2.7219,0.0,-2.6233,-2.8483,-3.1071,-3.202,0.0,0.0,-3.8549,-4.2291,-4.6993,-4.6354,-4.5822,-4.6585,-4.7164,-4.7152,-4.6008,-4.6059,-4.5788,-4.4551,-4.2683,-4.1252,-4.0873,-4.0401,-3.9955,-3.9481,-3.8983,-3.826,-3.7061,-3.5621,-3.465,-3.4502,-3.3303,-3.2437,-3.2676,-3.2222,-3.1647,-3.1074,-3.0506,-2.9832,-2.9248,-2.8735,-2.8677,-2.8897,-2.8189,-2.755,-2.8084,-2.8287,-2.8506,-8.404,-8.2966,-8.2626,-8.14,-7.9577,-7.9325,-7.8426,-7.7009,-7.6469,-7.5419,-7.4076,-7.3028,-7.1239,-6.8924,-6.8428,-6.746,-6.5969,-6.5153,-6.4008,-6.262,-6.1072,-5.9492,-5.7912,-5.7032,-5.5451,-5.334,-5.298,-5.1577,-4.9263,-4.8299,-4.6994,-4.5238,-4.4528,-4.2795,-4.0077,-4.0709,-4.0885,-4.0453,-3.9869,-3.8718,-3.6975,-3.5399,-3.3401,-3.1019,-3.0642,-2.9648,-2.7939,-2.851,-2.8587,-2.7902,-2.7027,-2.5812,-2.416,-2.0971,-1.888,0.0,0.0,0.0,0.0,0.0,0.0,0.0,0.0,0.0,0.0,0.0,-3.1945,0.0,-3.3032,0.0,-3.7699,-3.8728,-4.0494,-4.3411,-4.399,-4.5214,-4.7852,-4.7543,-4.7336,-4.7915,-4.7567,-4.7123,-4.6717,-4.5951,-4.5363,-4.4926,-4.3243,-4.1852,-4.1265,-4.0637,-3.9967,-3.9258,-3.8912,-3.8181,-3.666,-3.5621,-3.4896,-3.4634,-3.3769,-3.297,-3.2706,-3.2287,-3.1749,-3.1091,-3.0654,-3.038,-3.0086,-2.9458,-2.9137,-2.9335,-2.8709,-2.8246,-2.8759,-2.8718,-2.8762,-8.341,-8.227,-8.1741,-8.0719,-7.9493,-7.9465,-7.8674,-7.7222,-7.6389,-7.5321,-7.4182,-7.2918,-7.145,-6.9692,-6.9663,-6.8221,-6.5812,-6.5401,-6.3933,-6.1501,-6.0394,-5.8959,-5.7346,-5.6621,-5.5017,-5.2784,-5.2729,-5.1249,-4.8329,-4.7716,-4.652,-4.4724,-4.3643,-4.2834,-4.2187,-4.1847,-4.1333,-4.062,-3.9131,-3.8066,-3.7579,-3.6157,-3.4115,-3.163,-3.1456,-3.018,-2.7695,-2.8752,-2.8876,-2.763,-2.7421,-2.7062,-2.6392,-2.4518,-2.343,0.0,-2.2494,0.0,0.0,0.0,0.0,0.0,0.0,0.0,0.0,-3.439,-3.6344,-3.6931,-4.0267,-4.2752,-4.3728,-4.5704,-4.7076,-4.7508,-4.7279,-4.7322,-4.8103,-4.8229,-4.8313,-4.8398,-4.7577,-4.7185,-4.7159,-4.559,-4.4647,-4.4904,-4.3563,-4.2376,-4.213,-4.1175,-4.0085,-3.8915,-3.8483,-3.7758,-3.6526,-3.6005,-3.5579,-3.4927,-3.425,-3.3701,-3.3,-3.2495,-3.202,-3.1574,-3.1091,-3.0837,-3.086,-2.995,-2.9327,-2.9393,-2.8861,-2.8602,-2.9,-2.8758,-2.8713,-8.2715,-8.1157,-8.1046,-8.0288,-7.9072,-7.9044,-7.826,-7.6848,-7.6549,-7.5455,-7.3908,-7.3054,-7.1703,-7.0102,-7.0016,-6.8331,-6.539,-6.5079,-6.3601,-6.1124,-5.9884,-5.8444,-5.7009,-5.6498,-5.4896,-5.2493,-5.2699,-5.1222,-4.8302,-4.7716,-4.652,-4.4724,-4.4053,-4.3216,-4.2213,0.0,0.0,0.0,-3.8475,-3.7811,-3.7245,-3.574,-3.3794,-3.1399,-2.968,0.0,-2.6611,-2.6614,-2.707,-2.7843,-2.7965,0.0,0.0,0.0,0.0,0.0,0.0,0.0,0.0,0.0,0.0,0.0,-3.5075,-3.4454,-3.388,-3.8339,-4.1244,-4.1331,-4.3734,-4.5272,-4.502,-4.6134,-4.6931,-4.7062,-4.7322,-4.7709,-4.8218,-4.8133,-4.792,-4.7578,-4.7679,-4.733,-4.6213,-4.5616,-4.5102,-4.4519,-4.3549,-4.2962,-4.301,-4.1305,-3.9614,-3.8514,-3.8004,-3.7409,-3.6646,-3.602,-3.5483,-3.4622,-3.3947,-3.3482,-3.3287,-3.2623,-3.2008,-3.1566,-3.1427,-3.1007,-3.0217,-2.9502,-2.9182,-2.9395,-2.8869,-2.8531,-2.9063,-2.9299,-2.9489,-8.2631,0.0,-8.0903,-8.0308,0.0,-7.876,-7.8263,-7.761,-7.6643,-7.501,-7.3065,-7.2723,-7.1357,-6.938,-6.9208,-6.763,-6.5052,-6.4765,-6.3385,-6.1088,-5.9737,-5.836,-5.6893,-5.6221,-5.4649,-5.2322,-5.2641,-5.1085,-4.7956,-4.7527,-4.6307,-4.431,-4.4028,-4.3318,-4.2187,-4.0977,-3.9837,-3.8788,-3.8414,-3.8074,-3.7763,-3.6628,-3.4957,-3.2862,0.0,0.0,0.0,0.0,0.0,0.0,0.0,0.0,0.0,0.0,0.0,-3.1745,-3.1607,-3.2117,-3.339,-3.3811,-3.5068,-3.759,-3.8533,-3.8712,-3.8093,-4.1097,-4.3329,-4.4079,-4.5317,-4.6018,-4.5962,-4.6315,-4.6624,-4.6756,-4.6887,-4.7106,-4.7409,-4.7452,-4.7267,-4.6906,-4.6984,-4.6719,-4.5631,-4.4964,-4.4501,-4.3897,-4.299,-4.2537,-4.2801,-4.1558,-3.9984,-3.8611,-3.8069,-3.7542,-3.6816,-3.6476,-3.5832,-3.4749,-3.4226,-3.3835,-3.3264,-3.2789,-3.2249,-3.1611,-3.1185,-3.0719,-3.0397,-2.9802,-2.9434,-2.9533,-2.9013,-2.8546,-2.8869,-2.9055,-2.9156,-8.2548,-8.0787,-8.0478,-8.0023,-7.9572,-7.8449,-7.8067,-7.8031,0.0,0.0,0.0,-7.2347,-7.0967,-6.8594,-6.823,-6.686,-6.4809,-6.4413,-6.3075,-6.1088,-5.969,-5.825,-5.6771,-5.5889,-5.4346,-5.2291,-5.2584,-5.0921,-4.7502,-4.7311,-4.6175,-4.4087,-4.3742,-4.303,-4.1747,-4.029,-3.9255,-3.8708,-3.8473,-3.8307,-3.828,-3.7661,-3.6432,-3.4697,-3.459,-3.346,-3.1085,-3.2171,-3.192,-3.0131,-3.0874,-3.1712,-3.2514,-3.3013,-3.4193,-3.6019,-3.6186,-3.6379,-3.6916,-3.7025,-3.7508,-3.8515,-4.0057,-4.1339,-4.2106,-4.2921,-4.4088,-4.5689,-4.5895,-4.6075,-4.6403,-4.6269,-4.6225,-4.6447,-4.6314,-4.6314,-4.6447,-4.6624,-4.6577,-4.6228,-4.6241,-4.5973,-4.5269,-4.4401,-4.3654,-4.3299,-4.244,-4.1827,-4.2152,-4.1447,-4.0216,-3.8818,-3.8246,-3.7776,-3.6928,-3.6662,-3.6168,-3.4646,-3.4484,-3.4193,-3.326,-3.2906,-3.2528,-3.1648,-3.0781,-3.0382,-3.048,-3.0075,-2.9755,-2.9668,-2.9175,-2.8655,-2.8656,-2.8771,-2.8886,-8.1092,-8.02,-7.8747,-7.8537,-7.8959,-7.784,-7.701,-7.6289,-7.6008,-7.4648,-7.2613,-7.2377,-7.1023,-6.8924,-6.8344,-6.693,-6.478,-6.3989,-6.2679,0.0,-5.9181,-5.7681,-5.647,-5.5828,-5.4254,-5.2054,-5.2526,-5.0921,-4.7718,-4.7118,-4.5927,-4.4032,-4.314,-4.189,-4.0137,-3.9283,-3.8652,-3.8133,-3.808,-3.8056,-3.8036,-3.7737,-3.7089,-3.6112,-3.4846,-3.3896,-3.3192,-3.2986,-3.2905,-3.2989,-3.3763,-3.4165,-3.4045,-3.4721,-3.5133,-3.5017,-3.5573,-3.6192,-3.6671,-3.6942,-3.7659,-3.904,-3.9584,-4.0653,-4.2584,-4.3324,-4.4248,-4.5417,-4.573,-4.594,-4.5985,-4.5985,-4.5911,-4.5956,-4.5956,-4.5956,-4.5927,-4.6106,-4.6006,-4.5478,-4.5889,-4.5771,-4.4824,-4.436,-4.3783,-4.3105,-4.2119,-4.1577,-4.1254,-4.0646,-3.9775,-3.8745,-3.8207,-3.7561,-3.675,-3.6307,-3.5714,-3.4212,-3.4044,-3.3892,-3.3108,-3.3079,-3.2794,-3.1721,-3.068,-2.997,-2.9922,-2.9718,-2.9607,-2.9431,-2.9141,-2.8996,-2.8905,-2.9428,-2.9704,-8.101,-8.0057,-7.8907,-7.851,-7.8497,-7.7592,-7.6372,-7.5225,-7.4689,-7.3795,-7.2443,-7.2095,-7.0769,-6.8709,-6.7383,-6.61,-6.478,-6.3704,-6.2399,-6.0967,-5.9162,-5.7598,-5.6347,-5.5227,-5.3599,-5.1706,-5.2034,-5.0543,-4.7585,-4.6885,-4.5693,-4.3838,-4.2393,-4.1006,-3.9755,-3.9136,-3.8526,-3.8027,-3.7974,-3.7974,-3.7974,-3.7469,-3.6922,-3.6401,-3.528,-3.4486,-3.4047,-3.3958,-3.3911,-3.3887,-3.4462,-3.48,-3.4813,-3.5302,-3.566,-3.5768,-3.6016,-3.6282,-3.6463,-3.689,-3.7669,-3.8819,-3.9679,-4.0673,-4.2036,-4.2614,-4.3307,-4.4128,-4.4818,-4.5304,-4.5304,-4.5413,-4.5458,-4.5458,-4.523,-4.5184,-4.5338,-4.5276,-4.5109,-4.4876,-4.5096,-4.4938,-4.3871,-4.3555,-4.311,-4.2249,-4.1425,-4.0816,-4.0645,-4.0083,-3.9455,-3.883,-3.8251,-3.7569,-3.6715,-3.6585,-3.5899,-3.4408,-3.4298,-3.3954,-3.3131,-3.3086,-3.2897,-3.2174,-3.1218,-3.0712,-3.0628,-3.0406,-3.0161,-2.9924,-2.9487,-2.9338,-2.9551,-3.0114,-3.041,-8.1182,-8.0303,-7.9224,-7.851,-7.7925,-7.6899,-7.5762,-7.4629,-7.3539,-7.2734,-7.2159,-7.1569,-7.0272,-6.8437,-6.6511,-6.5331,-6.4628,-6.3335,-6.2062,-6.0903,-5.8959,-5.7397,-5.6231,-5.4633,-5.3011,-5.1556,-5.1548,-5.0082,-4.7529,-4.6678,-4.5356,-4.3363,-4.1569,-4.0301,-3.9516,-3.89,-3.8368,-3.7814,-3.7892,-3.7892,-3.7868,-3.7101,-3.6578,-3.6258,-3.553,-3.4906,-3.4627,-3.4726,-3.4581,-3.4144,-3.4581,-3.4824,-3.4751,-3.5233,-3.5738,-3.6135,-3.6282,-3.637,-3.6402,-3.6871,-3.7532,-3.8368,-3.9501,-4.0423,-4.1041,-4.1416,-4.2122,-4.3111,-4.4097,-4.4658,-4.4658,-4.4815,-4.4879,-4.4862,-4.4676,-4.463,-4.4815,-4.463,-4.4489,-4.4481,-4.4514,-4.419,-4.3229,-4.2854,-4.2353,-4.1341,-4.0602,-4.0241,-4.011,-3.9584,-3.912,-3.8726,-3.8239,-3.7572,-3.6869,-3.671,-3.6103,-3.4722,-3.4775,-3.4343,-3.3477,-3.3223,-3.2982,-3.2513,-3.2224,-3.1808,-3.164,-3.103,-3.0612,-3.0315,-2.9939,-2.972,-3.0306,-3.0538,-3.0911,-8.107,-8.0706,-7.8774,-7.7438,-7.6662,-7.5407,-7.496,-7.4814,-7.2909,-7.2083,-7.2026,-7.0623,-6.9364,-6.8337,-6.6511,-6.5331,-6.4628,-6.2914,-6.1604,-6.0468,-5.8424,-5.6858,-5.5833,-5.4161,-5.2629,-5.1476,-5.1111,-4.9702,-4.733,-4.6394,-4.4582,-4.2077,-4.0703,-3.9679,-3.893,-3.8369,-3.7761,-3.7197,-3.7489,-3.7649,-3.7625,-3.6885,-3.6289,-3.6054,-3.5227,-3.4906,-3.5017,-3.492,-3.4558,-3.4198,-3.4727,-3.4654,-3.3692,-3.4557,-3.5064,-3.4721,-3.5515,-3.6213,-3.6586,-3.6726,-3.7099,-3.7893,-3.8474,-3.913,-3.9876,-4.0022,-4.1047,-4.292,-4.3843,-4.404,-4.4068,-4.4303,-4.435,-4.4209,-4.4443,-4.4658,-4.4256,-4.4565,-4.4769,-4.4434,-4.4293,-4.4047,-4.3114,-4.2802,-4.2144,-4.074,-4.0439,-4.0062,-3.9513,-3.9114,-3.8774,-3.845,-3.7912,-3.7439,-3.6935,-3.6468,-3.5919,-3.5237,-3.5112,-3.4701,-3.4015,-3.3276,-3.2747,-3.3036,-3.2926,-3.2694,-3.2055,-3.1208,-3.0438,-3.0601,-3.0382,-3.0174,-3.0801,-3.0833,-3.0841,-8.1147,-8.044,-7.9104,-7.7816,-7.6443,-7.4856,-7.4224,-7.4167,-7.1886,-7.1125,-7.1144,-6.9187,-6.8197,-6.8049,-6.6076,-6.4925,-6.4355,-6.2725,-6.1482,-6.0431,-5.8522,-5.6955,-5.5833,-5.4047,-5.2457,-5.1153,-5.0622,-4.9319,-4.7257,-4.5487,-4.3626,-4.1762,-4.0404,-3.943,-3.8767,-3.8102,-3.7542,-3.712,-3.7089,-3.6982,-3.678,-3.6057,-3.5648,-3.5418,-3.4664,-3.4176,-3.4261,-3.4433,-3.4292,-3.372,-3.4341,-3.4294,-3.3339,-3.4101,-3.4508,-3.4438,-3.5089,-3.5596,-3.5763,-3.6096,-3.6521,-3.7155,-3.7526,-3.8109,-3.9078,-3.9588,-4.0582,-4.1896,-4.2569,-4.2943,-4.3273,-4.3622,-4.3737,-4.3737,-4.3784,-4.3737,-4.3832,-4.3926,-4.3974,-4.3899,-4.3593,-4.3306,-4.2823,-4.245,-4.173,-4.0714,-4.0515,-4.0237,-3.9266,-3.8756,-3.845,-3.814,-3.7838,-3.7391,-3.6877,-3.6469,-3.5832,-3.5127,-3.4908,-3.4702,-3.4197,-3.3761,-3.3457,-3.3578,-3.3215,-3.2995,-3.2869,-3.1786,-3.0903,-3.1026,-3.0938,-3.0821,-3.1064,-3.1048,-3.1236,-8.1277,-8.0118,-7.9004,-7.782,-7.6717,-7.4579,-7.3924,-7.3759,-7.1429,-7.0516,-7.0655,-6.8528,-6.7525,-6.7273,-6.5684,-6.4663,-6.4066,-6.2431,-6.1259,-6.0274,-5.8459,-5.6921,-5.5647,-5.3926,-5.2339,-5.1008,-5.0111,-4.87,-4.6601,-4.4752,-4.2979,-4.1538,-4.0234,-3.9284,-3.8625,-3.7831,-3.7176,-3.6766,-3.6657,-3.644,-3.6054,-3.5458,-3.5057,-3.4797,-3.4088,-3.3608,-3.3519,-3.3892,-3.3805,-3.3143,-3.3709,-3.3756,-3.307,-3.3536,-3.3965,-3.4188,-3.4531,-3.4823,-3.4993,-3.55,-3.5953,-3.638,-3.6781,-3.7505,-3.8371,-3.9019,-3.9728,-4.0579,-4.0994,-4.1528,-4.2474,-4.2825,-4.3018,-4.3088,-4.2991,-4.3211,-4.328,-4.3259,-4.3307,-4.3321,-4.3073,-4.2642,-4.2348,-4.1717,-4.0987,-4.0577,-4.055,-4.0277,-3.9066,-3.8503,-3.8227,-3.7808,-3.7572,-3.7325,-3.6802,-3.635,-3.5773,-3.5277,-3.5023,-3.4885,-3.4399,-3.4384,-3.4082,-3.3971,-3.3184,-3.283,-3.308,-3.2317,-3.1561,-3.1716,-3.1506,-3.1172,-3.1227,-3.1329,-3.1378,-8.166,-7.9947,-7.7869,-7.7193,-7.7206,-7.452,-7.3787,-7.4249,-7.1536,-7.0544,-7.0606,-6.8943,-6.7616,-6.6734,-6.5565,-6.475,-6.3957,-6.1908,-6.0612,-5.9855,-5.7861,-5.6358,-5.5328,-5.3592,-5.2101,-5.0863,-4.9738,-4.7875,-4.5374,-4.4211,-4.2827,-4.1263,-4.0059,-3.9108,-3.8391,-3.7498,-3.6649,-3.6118,-3.6191,-3.6059,-3.5521,-3.5233,-3.4735,-3.405,-3.374,-3.3498,-3.3311,-3.3342,-3.3139,-3.2561,-3.3093,-3.299,-3.2358,-3.2895,-3.3419,-3.3595,-3.3717,-3.3965,-3.4433,-3.492,-3.5356,-3.5715,-3.6452,-3.7292,-3.7822,-3.7856,-3.8256,-3.9206,-3.9488,-4.0125,-4.1485,-4.1967,-4.2092,-4.2016,-4.2846,-4.3039,-4.2631,-4.2728,-4.29,-4.2895,-4.2738,-4.237,-4.1746,-4.0808,-4.0426,-4.0254,-4.0174,-3.9668,-3.8731,-3.8433,-3.7985,-3.7407,-3.7124,-3.7083,-3.6914,-3.6463,-3.6035,-3.5497,-3.51,-3.5211,-3.5413,-3.5359,-3.4856,-3.412,-3.3053,-3.269,-3.3107,-3.2989,-3.2417,-3.2081,-3.1485,-3.1209,-3.1313,-3.1389,-3.1384,-8.149,-7.9949,-7.8026,-7.7166,-7.6748,-7.438,-7.3622,-7.3922,-7.1429,-7.0388,-7.0214,-6.8847,-6.7494,-6.627,-6.5362,-6.4438,-6.3335,-6.128,-6.0083,-5.9418,-5.7286,-5.5913,-5.522,-5.3185,-5.175,-5.0842,-4.9685,-4.7686,-4.5272,-4.4186,-4.2852,-4.1268,-4.0073,-3.9205,-3.8617,-3.7392,-3.661,-3.6317,-3.5967,-3.5511,-3.5202,-3.5079,-3.4502,-3.3489,-3.3659,-3.3398,-3.2465,-3.3113,-3.301,-3.2044,-3.2646,-3.2619,-3.2013,-3.2424,-3.2796,-3.2946,-3.322,-3.3519,-3.3717,-3.4211,-3.4677,-3.5066,-3.5404,-3.5932,-3.6586,-3.6928,-3.7501,-3.8452,-3.8912,-3.9572,-4.0386,-4.1071,-4.1448,-4.1696,-4.1944,-4.2213,-4.219,-4.2043,-4.1861,-4.1785,-4.1678,-4.1453,-4.1191,-4.0765,-4.0378,-3.9981,-3.996,-3.9533,-3.8579,-3.7749,-3.7089,-3.6789,-3.6781,-3.6752,-3.6366,-3.6322,-3.5973,-3.5362,-3.4925,-3.4759,-3.4829,-3.5265,-3.4952,-3.407,-3.2959,-3.2373,-3.2731,-3.2739,-3.2376,-3.1968,-3.1433,-3.1269,-3.1394,-3.131,-3.1161,-8.1076,-7.9826,-7.8176,-7.7338,-7.6721,-7.4547,-7.3677,-7.365,-7.1728,-7.0552,-6.9931,-6.8813,-6.7462,-6.604,-6.4782,-6.3646,-6.2462,-6.0605,-5.9659,-5.9276,-5.685,-5.5545,-5.496,-5.3139,-5.168,-5.0578,-4.9007,-4.71,-4.5074,-4.3954,-4.254,-4.0908,-4.0067,-3.9405,-3.8724,-3.7417,-3.6658,-3.6376,-3.5669,-3.5146,-3.4869,-3.4869,-3.4362,-3.3496,-3.3526,-3.3082,-3.2053,-3.2603,-3.2667,-3.2007,-3.2213,-3.2185,-3.1767,-3.2012,-3.224,-3.2342,-3.2645,-3.2919,-3.3069,-3.3419,-3.3866,-3.4286,-3.4482,-3.4823,-3.5476,-3.5964,-3.6676,-3.7468,-3.8216,-3.8768,-3.9372,-4.0007,-4.0593,-4.1097,-4.1147,-4.1248,-4.1547,-4.1298,-4.1165,-4.1195,-4.0773,-4.057,-4.0552,-4.0301,-3.9916,-3.9407,-3.9615,-3.9284,-3.8251,-3.7388,-3.6533,-3.6313,-3.6263,-3.6091,-3.5824,-3.5751,-3.5953,-3.5429,-3.4855,-3.4575,-3.4339,-3.4833,-3.4793,-3.3916,-3.3155,-3.2508,-3.2228,-3.23,-3.2118,-3.1818,-3.1532,-3.1325,-3.1272,-3.1123,-3.0936,-8.0454,-7.9826,-7.8176,-7.7511,-7.7096,-7.4854,-7.3896,-7.3595,-7.2268,-7.0877,-6.9782,-6.8815,-6.7504,-6.5911,-6.3992,-6.2533,-6.1473,-5.9899,-5.9237,-5.909,-5.6531,-5.5146,-5.4862,-5.3482,-5.1917,-5.0247,-4.7762,-4.5923,-4.4792,-4.3565,-4.2074,-4.055,-4.0257,-3.9651,-3.8654,-3.761,-3.6747,-3.6207,-3.5536,-3.4913,-3.4534,-3.4534,-3.4272,-3.3704,-3.3255,-3.2642,-3.2024,-3.1848,-3.1848,-3.1913,-3.1761,-3.1629,-3.1586,-3.1556,-3.1732,-3.1936,-3.2015,-3.2167,-3.2493,-3.2695,-3.3019,-3.3369,-3.3744,-3.4162,-3.4577,-3.5016,-3.5551,-3.6258,-3.7096,-3.784,-3.8181,-3.8856,-3.962,-4.0032,-4.0491,-4.0593,-4.0593,-4.0618,-4.0844,-4.0937,-4.0305,-3.979,-3.9803,-3.9352,-3.8846,-3.8794,-3.8694,-3.8543,-3.7817,-3.7253,-3.6764,-3.6177,-3.5812,-3.5498,-3.535,-3.525,-3.5525,-3.5642,-3.5079,-3.4641,-3.4157,-3.426,-3.4165,-3.3462,-3.2573,-3.1924,-3.1817,-3.19,-3.2009,-3.1775,-3.1569,-3.1272,-3.1086,-3.0936,-3.0672,-8.125,-8.0288,-7.8721,-7.7768,-7.7209,-7.491,-7.3732,-7.335,-7.1859,-7.063,-6.9595,-6.846,-6.6992,-6.5395,-6.3649,-6.2192,-6.0931,-5.899,-5.8174,-5.8058,-5.5854,-5.4751,-5.4485,-5.2994,-5.1329,-4.9627,-4.7496,-4.593,-4.4882,-4.3548,-4.2108,-4.0782,-4.0281,-3.9803,-3.9033,-3.8167,-3.7437,-3.6633,-3.588,-3.52,-3.4556,-3.4311,-3.4016,-3.355,-3.2912,-3.2402,-3.1958,-3.185,-3.1698,-3.1497,-3.1373,-3.1219,-3.1086,-3.1034,-3.1189,-3.1424,-3.1476,-3.1659,-3.2066,-3.2218,-3.2443,-3.2919,-3.3319,-3.3804,-3.431,-3.4707,-3.5244,-3.5946,-3.678,-3.7448,-3.7846,-3.8313,-3.8973,-3.9724,-3.9724,-3.9775,-3.9879,-3.9804,-3.9853,-4.005,-3.953,-3.892,-3.8495,-3.8046,-3.7973,-3.7896,-3.7571,-3.7273,-3.7574,-3.6791,-3.6059,-3.5597,-3.5307,-3.5042,-3.4993,-3.4872,-3.4917,-3.5024,-3.4715,-3.4306,-3.3836,-3.3663,-3.3513,-3.3144,-3.221,-3.1585,-3.149,-3.1485,-3.1569,-3.1532,-3.1235,-3.1011,-3.0924,-3.0698,-3.047,-8.1566,-8.0268,-7.8952,-7.7973,-7.7048,-7.4993,-7.3842,-7.3131,-7.1676,-7.0529,-6.9541,-6.786,-6.6468,-6.4923,-6.3089,-6.1683,-6.0591,-5.8449,-5.757,-5.7459,-5.5301,-5.4336,-5.4143,-5.2138,-5.0737,-4.9541,-4.7522,-4.5988,-4.5055,-4.3606,-4.2166,-4.0874,-4.0339,-3.9873,-3.9239,-3.8394,-3.7591,-3.7081,-3.6055,-3.5251,-3.474,-3.4229,-3.3823,-3.3544,-3.2797,-3.2306,-3.204,-3.1806,-3.1484,-3.1223,-3.1137,-3.0879,-3.0568,-3.062,-3.0776,-3.0983,-3.0961,-3.1116,-3.1527,-3.1629,-3.1885,-3.2342,-3.2768,-3.3325,-3.3968,-3.4361,-3.4848,-3.5647,-3.6402,-3.6996,-3.7328,-3.7814,-3.8396,-3.8998,-3.8998,-3.8998,-3.9208,-3.9042,-3.9045,-3.9144,-3.8685,-3.8028,-3.7602,-3.7331,-3.7134,-3.6862,-3.6641,-3.6418,-3.6864,-3.618,-3.5647,-3.5211,-3.4896,-3.4726,-3.4677,-3.4509,-3.4389,-3.4269,-3.4132,-3.3756,-3.3389,-3.3401,-3.3334,-3.2911,-3.2185,-3.1228,-3.0969,-3.0976,-3.1037,-3.0898,-3.0861,-3.0672,-3.0546,-3.0432,-3.0241,-8.137,-7.9852,-7.9126,-7.7949,-7.6555,-7.5104,-7.4006,-7.3158,-7.1738,-7.0485,-6.9303,-6.7341,-6.5856,-6.4586,-6.2298,-6.098,-6.0303,-5.8491,-5.7435,-5.6836,-5.5096,-5.3911,-5.3498,-5.1268,-5.0262,-4.985,-4.7696,-4.6057,-4.524,-4.3656,-4.219,-4.097,-4.0444,-3.9896,-3.9216,-3.8218,-3.7699,-3.7359,-3.6082,-3.5334,-3.5146,-3.4132,-3.3727,-3.3909,-3.284,-3.2176,-3.2148,-3.147,-3.1032,-3.1047,-3.0776,-3.0412,-3.0151,-3.0183,-3.0391,-3.0724,-3.0495,-3.062,-3.0776,-3.1137,-3.1365,-3.179,-3.2323,-3.2791,-3.3566,-3.4028,-3.4446,-3.5051,-3.587,-3.6414,-3.6677,-3.7239,-3.7684,-3.7921,-3.8093,-3.8226,-3.8477,-3.8425,-3.8437,-3.8466,-3.7866,-3.7165,-3.7114,-3.6894,-3.6354,-3.6036,-3.6087,-3.6185,-3.606,-3.5696,-3.5187,-3.4749,-3.4406,-3.4406,-3.4331,-3.4089,-3.3974,-3.3863,-3.3646,-3.3322,-3.3084,-3.3102,-3.3172,-3.2786,-3.2041,-3.1077,-3.047,-3.0458,-3.0546,-3.0584,-3.0508,-3.0318,-3.0139,-3.0088,-3.0011,-8.1935,-8.0193,-7.8871,-7.7837,-7.6811,-7.5021,-7.376,-7.3076,-7.1356,-7.0021,-6.876,-6.6752,-6.5079,-6.3731,-6.2121,-6.088,-5.9953,-5.8535,-5.7503,-5.6837,-5.5172,-5.3741,-5.2783,-5.1135,-5.0106,-4.9706,-4.7786,-4.6535,-4.5897,-4.3888,-4.2501,-4.1633,-4.0621,-3.9873,-3.9262,-3.8712,-3.8168,-3.7574,-3.6609,-3.5711,-3.5076,-3.4154,-3.3636,-3.3614,-3.2943,-3.2354,-3.2058,-3.1024,-3.0396,-3.0297,-2.9816,-2.9659,-2.9659,-2.9554,-2.9816,-3.0287,-3.0078,-3.0151,-3.0641,-3.09,-3.1184,-3.1798,-3.2309,-3.2945,-3.3465,-3.4109,-3.4313,-3.4615,-3.539,-3.5964,-3.5502,-3.6337,-3.7156,-3.7263,-3.6825,-3.6792,-3.745,-3.7593,-3.7618,-3.7802,-3.7416,-3.7048,-3.6554,-3.6136,-3.5672,-3.5599,-3.5673,-3.5842,-3.5697,-3.5523,-3.512,-3.427,-3.3877,-3.3953,-3.3907,-3.3665,-3.3482,-3.3427,-3.3196,-3.2936,-3.2817,-3.2846,-3.2996,-3.3021,-3.1689,-3.0608,-3.0127,-2.9856,-3.0011,-3.0203,-2.9947,-2.9715,-2.9715,-2.9702,-2.9663,-8.1682,-7.9744,-7.8845,-7.7783,-7.648,-7.4636,-7.3677,-7.2913,-7.1008,-6.9728,-6.8682,-6.659,-6.4863,-6.365,-6.2113,-6.1004,-6.0131,-5.8765,-5.7838,-5.7024,-5.5008,-5.3435,-5.2288,-5.0985,-5.0104,-4.9542,-4.7844,-4.6645,-4.5742,-4.3986,-4.2676,-4.1694,-4.0715,-3.9814,-3.9108,-3.8752,-3.8283,-3.7488,-3.6677,-3.5917,-3.5287,-3.4183,-3.3657,-3.3523,-3.2991,-3.2401,-3.1573,-3.0666,-3.0051,-2.9672,-2.929,-2.9132,-2.9185,-2.9185,-2.9343,-2.9816,-2.9659,-2.9899,-3.0453,-3.0737,-3.1127,-3.1593,-3.224,-3.2761,-3.3118,-3.3763,-3.4136,-3.4101,-3.4899,-3.5029,-3.5062,-3.5979,-3.6503,-3.6277,-3.5428,-3.5242,-3.625,-3.6625,-3.6824,-3.6943,-3.6885,-3.655,-3.5868,-3.543,-3.5235,-3.5114,-3.5137,-3.5423,-3.5611,-3.5392,-3.4979,-3.4083,-3.3495,-3.3581,-3.3534,-3.3292,-3.3369,-3.3273,-3.2976,-3.2697,-3.2505,-3.2479,-3.2455,-3.2259,-3.1171,-3.0343,-2.9939,-2.9564,-2.956,-2.9599,-2.9302,-2.9326,-2.9404,-2.9489,-2.9425,-8.0921,-7.8875,-7.882,-7.7591,-7.5678,-7.4361,-7.3595,-7.294,-7.0741,-6.9628,-6.8953,-6.6725,-6.5052,-6.4183,-6.2364,-6.1263,-6.0782,-5.9197,-5.8134,-5.6784,-5.4853,-5.3057,-5.2108,-5.0919,-5.0059,-4.929,-4.7871,-4.6663,-4.5579,-4.4062,-4.2732,-4.1744,-4.0786,-3.9779,-3.9049,-3.8596,-3.8036,-3.7367,-3.6487,-3.5831,-3.5237,-3.4268,-3.3657,-3.3523,-3.2841,-3.1989,-3.1142,-3.0422,-2.9869,-2.9066,-2.9013,-2.8893,-2.8767,-2.894,-2.9139,-2.9245,-2.9477,-2.9758,-3.0273,-3.0764,-3.1105,-3.1412,-3.2115,-3.2469,-3.2616,-3.3148,-3.3649,-3.3595,-3.3972,-3.432,-3.4764,-3.5594,-3.5794,-3.5374,-3.4426,-3.423,-3.4703,-3.5596,-3.6138,-3.6042,-3.6227,-3.5755,-3.5303,-3.4992,-3.4992,-3.489,-3.4909,-3.5112,-3.531,-3.5155,-3.4601,-3.3747,-3.339,-3.3257,-3.3138,-3.2969,-3.3119,-3.3158,-3.282,-3.248,-3.2136,-3.2022,-3.1797,-3.1336,-3.0748,-3.0271,-2.9878,-2.9625,-2.9391,-2.9322,-2.9332,-2.9283,-2.9234,-2.9312,-2.9307,-8.0529,-7.8847,-7.8037,-7.6868,-7.5539,-7.4113,-7.3374,-7.3102,-7.0741,-6.9466,-6.8574,-6.6563,-6.5079,-6.4283,-6.266,-6.1663,-6.1093,-5.9467,-5.7917,-5.5693,-5.4485,-5.3049,-5.2036,-5.0956,-5.012,-4.9251,-4.8081,-4.697,-4.5849,-4.4249,-4.2985,-4.2352,-4.0975,-3.9873,-3.919,-3.8596,-3.8037,-3.7222,-3.6436,-3.5743,-3.51,-3.4225,-3.36,-3.3466,-3.2592,-3.1572,-3.0761,-3.032,-2.9738,-2.9055,-2.8721,-2.8711,-2.8666,-2.8388,-2.8652,-2.9293,-2.9366,-2.9667,-3.0493,-3.0722,-3.0983,-3.1491,-3.202,-3.2347,-3.206,-3.2685,-3.2997,-3.2965,-3.3158,-3.3492,-3.391,-3.4365,-3.4741,-3.4764,-3.4432,-3.4066,-3.4213,-3.4409,-3.4976,-3.5561,-3.5624,-3.5423,-3.5368,-3.4796,-3.4701,-3.4675,-3.4762,-3.4904,-3.4849,-3.4841,-3.4275,-3.3451,-3.3099,-3.2898,-3.2639,-3.2544,-3.2695,-3.2846,-3.2605,-3.2342,-3.1994,-3.169,-3.1522,-3.1137,-3.0561,-3.0186,-2.9935,-2.9675,-2.9422,-2.9404,-2.9361,-2.9224,-2.9144,-2.9156,-2.914,-7.9904,-7.8536,-7.7694,-7.6779,-7.5567,-7.3974,-7.3292,-7.283,-7.0741,-6.9547,-6.8814,-6.6823,-6.5363,-6.4609,-6.2983,-6.1777,-6.0573,-5.8765,-5.6757,-5.4944,-5.3752,-5.2711,-5.1704,-5.0806,-5.0001,-4.9234,-4.7883,-4.6936,-4.5846,-4.4317,-4.2976,-4.2353,-4.1129,-3.9952,-3.8999,-3.8418,-3.7613,-3.6881,-3.6317,-3.5685,-3.4783,-3.4254,-3.35,-3.3033,-3.2227,-3.1388,-3.0432,-3.0522,-2.9902,-2.9186,-2.8889,-2.8735,-2.8511,-2.814,-2.8462,-2.9095,-2.9233,-2.9467,-3.0207,-3.0642,-3.0825,-3.105,-3.1851,-3.1785,-3.173,-3.2102,-3.256,-3.2512,-3.2501,-3.2669,-3.3052,-3.355,-3.3956,-3.4105,-3.4151,-3.3866,-3.3533,-3.3623,-3.3957,-3.4756,-3.4895,-3.4992,-3.4834,-3.4523,-3.4356,-3.4342,-3.427,-3.4369,-3.4113,-3.4034,-3.3825,-3.325,-3.2797,-3.2485,-3.2256,-3.2167,-3.2218,-3.2319,-3.2258,-3.2099,-3.1874,-3.1593,-3.1344,-3.0901,-3.049,-3.0399,-3.0156,-2.9839,-2.9561,-2.9464,-2.9333,-2.9107,-2.8987,-2.906,-2.8923,-7.9273,-7.8163,-7.7628,-7.6771,-7.5535,-7.4084,-7.3374,-7.2966,-7.0821,-6.968,-6.914,-6.7132,-6.5674,-6.4907,-6.3163,-6.1561,-5.9663,-5.7914,-5.6106,-5.4563,-5.3553,-5.2539,-5.1586,-5.0687,-4.9836,-4.9065,-4.7769,-4.6734,-4.5772,-4.4365,-4.289,-4.1956,-4.1197,-4.0042,-3.8769,-3.8118,-3.7478,-3.6443,-3.6086,-3.5478,-3.4523,-3.4195,-3.3545,-3.2608,-3.1923,-3.1164,-3.0447,-3.0431,-3.0334,-2.9181,-2.9241,-2.8915,-2.8465,-2.8226,-2.8342,-2.9004,-2.9158,-2.9639,-3.0242,-3.056,-3.0628,-3.0398,-3.1279,-3.1552,-3.1108,-3.1416,-3.1944,-3.2163,-3.2158,-3.2061,-3.2162,-3.2879,-3.3074,-3.3124,-3.3345,-3.3345,-3.2932,-3.3059,-3.3307,-3.3718,-3.425,-3.4497,-3.44,-3.4142,-3.4073,-3.3935,-3.387,-3.3754,-3.3526,-3.3235,-3.3057,-3.2952,-3.2472,-3.2053,-3.1775,-3.1732,-3.1834,-3.1913,-3.1869,-3.1778,-3.1667,-3.1536,-3.124,-3.0859,-3.0504,-3.042,-3.0304,-3.0066,-2.9821,-2.9576,-2.9464,-2.9375,-2.9212,-2.8944,-2.8824,-7.9221,-7.8254,-7.7182,-7.6379,-7.566,-7.4387,-7.3595,-7.2967,-7.1033,-6.9697,-6.8706,-6.6969,-6.5775,-6.4779,-6.2975,-6.0779,-5.8704,-5.7338,-5.6247,-5.4794,-5.3711,-5.2638,-5.156,-5.0645,-4.9756,-4.8554,-4.7478,-4.6707,-4.5722,-4.4096,-4.2875,-4.2123,-4.1184,-3.9979,-3.8956,-3.8395,-3.7515,-3.6362,-3.5903,-3.5275,-3.4492,-3.3954,-3.3485,-3.2504,-3.1834,-3.0954,-3.0334,-3.0432,-3.02,-2.8956,-2.907,-2.8994,-2.8671,-2.8537,-2.8855,-2.9225,-2.9352,-2.9734,-3.0554,-3.0409,-3.0721,-3.103,-3.124,-3.1232,-3.1004,-3.09,-3.1257,-3.1733,-3.2007,-3.1897,-3.0852,-3.1965,-3.2402,-3.2328,-3.2657,-3.3162,-3.2963,-3.279,-3.2715,-3.3057,-3.3563,-3.4005,-3.3838,-3.3731,-3.3679,-3.3321,-3.2887,-3.3095,-3.318,-3.2738,-3.2325,-3.2222,-3.2096,-3.1671,-3.1322,-3.1322,-3.1373,-3.1527,-3.1534,-3.1433,-3.1372,-3.1374,-3.1162,-3.0757,-3.0537,-3.0392,-3.0285,-3.0213,-3.0,-2.9755,-2.9718,-2.9728,-2.9498,-2.9267,-2.9355,-7.921,-7.8679,-7.7542,-7.671,-7.6051,-7.458,-7.3486,-7.2614,-7.0844,-6.9565,-6.8457,-6.6942,-6.5775,-6.4779,-6.2975,-6.0408,-5.8164,-5.7112,-5.6059,-5.4588,-5.3206,-5.2186,-5.1122,-5.0215,-4.9323,-4.8401,-4.7553,-4.6626,-4.5782,-4.4285,-4.3037,-4.2197,-4.1294,-4.0181,-3.8942,-3.829,-3.7456,-3.6405,-3.5977,-3.5418,-3.445,-3.3955,-3.3284,-3.2549,-3.1781,-3.0879,-3.016,-3.0296,-3.0179,-2.9409,-2.9466,-2.9315,-2.9031,-2.888,-2.8994,-2.9296,-2.9391,-2.9691,-3.0406,-3.0148,-3.0378,-3.0893,-3.0937,-3.099,-3.1029,-3.0847,-3.0778,-3.1042,-3.1182,-3.1075,-3.0517,-3.1293,-3.1449,-3.1479,-3.2051,-3.2441,-3.2377,-3.2129,-3.2234,-3.2385,-3.287,-3.3146,-3.3205,-3.3116,-3.3183,-3.2753,-3.2119,-3.2266,-3.2701,-3.231,-3.1804,-3.162,-3.156,-3.1318,-3.1013,-3.0961,-3.1034,-3.1189,-3.1197,-3.1149,-3.1055,-3.0989,-3.0927,-3.0714,-3.0499,-3.0331,-3.0345,-3.0326,-3.0119,-2.9952,-2.9893,-2.9798,-2.9756,-2.9677,-2.9697,-7.9399,-7.9052,-7.8015,-7.7185,-7.6224,-7.4719,-7.3404,-7.2152,-7.0629,-6.9435,-6.857,-6.6866,-6.562,-6.4544,-6.2687,-6.0215,-5.742,-5.6814,-5.5721,-5.4167,-5.2817,-5.1623,-5.0506,-4.9487,-4.8559,-4.7881,-4.711,-4.6488,-4.5721,-4.4442,-4.3286,-4.2195,-4.146,-4.0365,-3.8953,-3.816,-3.7238,-3.6566,-3.6,-3.5465,-3.4482,-3.3735,-3.3134,-3.2474,-3.1801,-3.0914,-3.0039,-3.0272,-3.0057,-2.9627,-2.9646,-2.9688,-2.9233,-2.9023,-2.9023,-2.9143,-2.9215,-2.948,-2.9849,-2.9943,-3.0142,-3.0614,-3.0886,-3.0917,-3.0938,-3.0762,-3.0676,-3.0358,-3.0249,-3.0265,-3.0192,-3.0408,-3.0508,-3.0661,-3.1271,-3.1836,-3.1553,-3.1391,-3.1458,-3.17,-3.211,-3.2271,-3.2331,-3.2693,-3.276,-3.2391,-3.176,-3.146,-3.1818,-3.1826,-3.1438,-3.118,-3.1025,-3.0922,-3.0724,-3.0599,-3.0724,-3.0931,-3.094,-3.0906,-3.0721,-3.0586,-3.0513,-3.0368,-3.0389,-3.0236,-3.033,-3.0433,-3.0323,-3.019,-3.0019,-2.9967,-3.0034,-3.0086,-3.0123,-8.0007,-7.9052,-7.8386,-7.7194,-7.5787,-7.4801,-7.365,-7.2288,-7.0839,-6.9643,-6.8574,-6.6585,-6.518,-6.3929,-6.2175,-5.9704,-5.7704,-5.6781,-5.5813,-5.4159,-5.292,-5.1758,-5.0663,-4.9784,-4.8328,-4.7375,-4.6268,-4.5813,-4.5406,-4.4468,-4.3341,-4.2133,-4.1083,-3.9898,-3.8942,-3.805,-3.7132,-3.6335,-3.539,-3.4614,-3.3984,-3.3235,-3.2874,-3.2434,-3.1659,-3.0732,-3.009,-3.0203,-2.9964,-2.9324,-2.9702,-2.9527,-2.8874,-2.9157,-2.902,-2.8799,-2.8836,-2.924,-2.9988,-2.9987,-3.0021,-3.0418,-3.0541,-3.0519,-3.0548,-3.0618,-3.0344,-2.9749,-2.9781,-2.9769,-2.9717,-2.9802,-2.9715,-3.0086,-3.0758,-3.1029,-3.0921,-3.114,-3.1112,-3.0772,-3.1106,-3.1239,-3.137,-3.1941,-3.2323,-3.1862,-3.1416,-3.1189,-3.1013,-3.1116,-3.1167,-3.0983,-3.0724,-3.0568,-3.0568,-3.0391,-3.0516,-3.0672,-3.0703,-3.0691,-3.0632,-3.0485,-2.9913,-2.9867,-2.9929,-3.0021,-3.0057,-3.0167,-3.0407,-3.0464,-3.0316,-3.0375,-3.0462,-3.0494,-3.0612,-7.976,-7.9052,-7.8444,-7.7054,-7.5342,-7.4499,-7.3295,-7.1853,-7.0493,-6.9435,-6.8283,-6.6661,-6.4728,-6.2812,-6.1451,-5.9492,-5.719,-5.6764,-5.5701,-5.3996,-5.2725,-5.1615,-5.0394,-4.9273,-4.7967,-4.6992,-4.6215,-4.555,-4.5007,-4.395,-4.2846,-4.1994,-4.1092,-4.0016,-3.8817,-3.8069,-3.7047,-3.6014,-3.4985,-3.4471,-3.4019,-3.3446,-3.2939,-3.2704,-3.1482,-3.0751,-3.0339,-2.993,-2.9809,-2.9402,-2.9707,-2.9379,-2.8732,-2.8573,-2.8464,-2.8582,-2.8327,-2.8872,-2.981,-2.9698,-2.9949,-3.0312,-3.0371,-3.0391,-3.0322,-3.0162,-2.9806,-2.9126,-2.9153,-2.9153,-2.9139,-2.9153,-2.9219,-2.9568,-3.0302,-3.0403,-3.0524,-3.0846,-3.0881,-3.043,-3.0146,-3.0475,-3.0818,-3.1288,-3.175,-3.1723,-3.1395,-3.124,-3.1034,-3.0931,-3.0931,-3.0879,-3.0568,-3.0308,-3.036,-3.0287,-3.0287,-3.0464,-3.0568,-3.0514,-3.0623,-3.0413,-2.9813,-2.9336,-2.9273,-2.9431,-2.962,-3.0011,-3.0371,-3.0547,-3.0676,-3.0693,-3.0754,-3.1069,-3.1144,-7.954,-7.8804,-7.8224,-7.6752,-7.4876,-7.4197,-7.2968,-7.15,-7.0225,-6.9203,-6.8023,-6.6217,-6.3687,-6.1566,-6.0536,-5.8859,-5.6486,-5.6505,-5.5237,-5.3706,-5.2345,-5.122,-4.9959,-4.8797,-4.759,-4.6764,-4.5943,-4.51,-4.3982,-4.3051,-4.2203,-4.1719,-4.072,-3.9774,-3.8688,-3.7665,-3.6595,-3.5252,-3.4465,-3.407,-3.3819,-3.3379,-3.2874,-3.2315,-3.1556,-3.0736,-3.0408,-3.0119,-2.9788,-2.9276,-2.941,-2.9118,-2.8469,-2.8199,-2.8086,-2.8128,-2.8038,-2.8469,-2.93,-2.95,-2.9622,-2.9911,-3.0103,-2.9968,-2.9934,-2.9607,-2.9274,-2.868,-2.8534,-2.8587,-2.8548,-2.8568,-2.8674,-2.9146,-2.9802,-2.9896,-3.0031,-3.0322,-3.0417,-3.0018,-2.9855,-3.0063,-3.0433,-3.0818,-3.1129,-3.1395,-3.1373,-3.1219,-3.1086,-3.0879,-3.0776,-3.0776,-3.0412,-3.0203,-3.0203,-3.0203,-3.0203,-3.0235,-3.0339,-3.0317,-3.0384,-3.0096,-2.9515,-2.9176,-2.8921,-2.8907,-2.9203,-2.9804,-3.0354,-3.0509,-3.0707,-3.0911,-3.1113,-3.1451,-3.154,-7.9631,-7.8196,-7.7616,-7.6262,-7.458,-7.4115,-7.2968,-7.1392,-7.0225,-6.9338,-6.8109,-6.5253,-6.2692,-6.0902,-5.956,-5.8146,-5.6425,-5.6014,-5.4721,-5.33,-5.1997,-5.0943,-4.9707,-4.845,-4.7131,-4.609,-4.5453,-4.4319,-4.3083,-4.2367,-4.1871,-4.1569,-4.024,-3.933,-3.8244,-3.7062,-3.577,-3.4568,-3.3859,-3.3355,-3.3102,-3.2702,-3.2359,-3.1929,-3.1408,-3.0779,-2.9806,-2.9948,-2.9681,-2.8871,-2.9046,-2.8808,-2.8172,-2.7924,-2.7787,-2.7769,-2.7829,-2.823,-2.8801,-2.9257,-2.9364,-2.939,-2.9431,-2.9489,-2.942,-2.929,-2.8939,-2.8388,-2.8276,-2.8257,-2.8218,-2.8194,-2.8398,-2.8745,-2.9237,-2.9351,-2.9525,-2.9793,-2.9793,-2.9505,-2.9615,-2.988,-3.0243,-3.0653,-3.0891,-3.1159,-3.1373,-3.1219,-3.1137,-3.0931,-3.0827,-3.0672,-3.0308,-3.0099,-3.0047,-3.0099,-3.0183,-3.0235,-3.0339,-3.0181,-2.998,-2.9653,-2.9648,-2.9183,-2.9006,-2.8855,-2.8954,-2.9947,-3.0602,-3.0605,-3.0713,-3.0847,-3.1005,-3.1184,-3.1273,-7.8928,-7.8453,-7.6978,-7.5461,-7.4142,-7.3677,-7.2586,-7.1069,-7.0067,-6.8554,-6.6819,-6.4315,-6.2376,-6.0862,-5.9555,-5.7933,-5.6168,-5.5535,-5.4245,-5.3148,-5.2048,-5.1086,-4.9821,-4.8536,-4.7495,-4.6186,-4.5206,-4.4186,-4.3193,-4.206,-4.1309,-4.0648,-3.9734,-3.9045,-3.7976,-3.6414,-3.4977,-3.3961,-3.3355,-3.2912,-3.2613,-3.2294,-3.1899,-3.1559,-3.0927,-3.0592,-3.0085,-2.9768,-2.9348,-2.9038,-2.894,-2.8402,-2.7861,-2.7635,-2.7513,-2.7418,-2.7478,-2.7779,-2.8319,-2.8719,-2.891,-2.9004,-2.8971,-2.8936,-2.8932,-2.9143,-2.8611,-2.8265,-2.8186,-2.8391,-2.7893,-2.8074,-2.8401,-2.8555,-2.8736,-2.8908,-2.9041,-2.9347,-2.9436,-2.9169,-2.9473,-2.9822,-3.0208,-3.0611,-3.0758,-3.0943,-3.1159,-3.1292,-3.1137,-3.1034,-3.0931,-3.0724,-3.036,-3.0151,-3.0151,-3.013,-3.0235,-3.0235,-3.0287,-3.0171,-3.0107,-3.0345,-3.0257,-2.9706,-2.931,-2.944,-2.9785,-3.0484,-3.0768,-3.0628,-3.0627,-3.0713,-3.0871,-3.0984,-3.1005,-7.8788,-7.851,-7.6895,-7.5323,-7.3979,-7.3595,-7.2504,-7.1042,-7.0067,-6.8121,-6.5399,-6.377,-6.2233,-6.0816,-5.9215,-5.7791,-5.6021,-5.5096,-5.3808,-5.262,-5.1674,-5.0818,-4.9572,-4.8219,-4.6991,-4.5959,-4.5119,-4.4075,-4.2661,-4.1901,-4.0954,-4.0126,-3.943,-3.8565,-3.7417,-3.5689,-3.4219,-3.3496,-3.2848,-3.2466,-3.2102,-3.1782,-3.1396,-3.1083,-3.0609,-3.0099,-2.9813,-2.9439,-2.9072,-2.872,-2.8484,-2.8163,-2.7661,-2.7276,-2.7193,-2.7168,-2.7116,-2.7237,-2.7659,-2.8122,-2.8509,-2.8821,-2.8766,-2.8611,-2.8615,-2.9088,-2.8766,-2.7469,-2.8028,-2.8499,-2.7697,-2.8009,-2.8471,-2.8687,-2.8777,-2.891,-2.8867,-2.9035,-2.8991,-2.8928,-2.9379,-2.9877,-3.0302,-3.0689,-3.0832,-3.082,-3.0641,-3.0909,-3.1219,-3.1137,-3.1086,-3.0827,-3.0464,-3.0308,-3.0256,-3.0203,-3.0183,-3.0287,-3.0339,-3.0412,-3.0432,-3.062,-3.0533,-2.9846,-2.97,-2.9998,-3.0367,-3.0734,-3.0708,-3.0553,-3.0629,-3.072,-3.0556,-3.0601,-3.0646,-7.949,-7.8226,-7.7478,-7.5846,-7.3979,-7.3896,-7.2886,-7.1123,-6.9904,-6.7858,-6.5248,-6.3125,-6.1594,-6.0388,-5.8574,-5.7035,-5.588,-5.4986,-5.3728,-5.2247,-5.1344,-4.9923,-4.8639,-4.748,-4.6536,-4.5097,-4.4298,-4.3325,-4.1901,-4.1361,-4.0464,-3.929,-3.8444,-3.7629,-3.6697,-3.4608,-3.354,-3.3228,-3.2358,-3.1846,-3.1525,-3.1202,-3.0815,-3.0408,-3.0307,-2.9777,-2.9155,-2.9128,-2.8697,-2.802,-2.8098,-2.7765,-2.7173,-2.6968,-2.6873,-2.6732,-2.6604,-2.677,-2.7133,-2.7659,-2.8188,-2.871,-2.856,-2.848,-2.8709,-2.8937,-2.8861,-2.7566,-2.7974,-2.8125,-2.792,-2.7957,-2.846,-2.878,-2.8891,-2.8887,-2.892,-2.8726,-2.8703,-2.8843,-2.9376,-2.9951,-3.0459,-3.0838,-3.0937,-3.0769,-3.0318,-3.0464,-3.1034,-3.1219,-3.1219,-3.0879,-3.0568,-3.0412,-3.0308,-3.0151,-3.0151,-3.0235,-3.0339,-3.0464,-3.0412,-3.036,-3.017,-2.9851,-2.9913,-3.0106,-3.0441,-3.0799,-3.0736,-3.0676,-3.0618,-3.0626,-3.0423,-3.0307,-3.0421,-7.8645,-7.8113,-7.6754,-7.5211,-7.3621,-7.3512,-7.2396,-7.026,-6.825,-6.6284,-6.4486,-6.2329,-6.0858,-5.97,-5.828,-5.6801,-5.5878,-5.4966,-5.3636,-5.2358,-5.1427,-5.0125,-4.8765,-4.7395,-4.631,-4.5142,-4.4161,-4.2983,-4.1767,-4.0954,-3.9812,-3.8624,-3.7376,-3.6268,-3.5611,-3.4556,-3.4166,-3.2663,-3.1846,-3.1396,-3.1055,-3.0685,-3.0296,-2.9709,-2.9643,-2.923,-2.8506,-2.8608,-2.8196,-2.7491,-2.7604,-2.7274,-2.6757,-2.6528,-2.6302,-2.6298,-2.6282,-2.6083,-2.6388,-2.6857,-2.7459,-2.8021,-2.8437,-2.8373,-2.8253,-2.9199,-2.8803,-2.8314,-2.8371,-2.8559,-2.8557,-2.8484,-2.8785,-2.9108,-2.9165,-2.9124,-2.9026,-2.8701,-2.8584,-2.8816,-2.9238,-3.0275,-3.0969,-3.1223,-3.1324,-3.1201,-3.0779,-3.0548,-3.0931,-3.127,-3.1373,-3.0983,-3.0672,-3.0516,-3.036,-3.036,-3.0381,-3.0517,-3.0558,-3.062,-3.0464,-3.0256,-3.0172,-3.0034,-3.0096,-3.0192,-3.0392,-3.0619,-3.0756,-3.0785,-3.0667,-3.0701,-3.064,-3.0512,-3.0377,-7.8336,-7.7527,-7.6333,-7.4765,-7.3427,-7.3292,-7.1825,-6.9321,-6.7163,-6.5524,-6.3999,-6.1943,-6.0501,-5.9381,-5.799,-5.6785,-5.5939,-5.4813,-5.3836,-5.2484,-5.1296,-4.9824,-4.8444,-4.7259,-4.5737,-4.4754,-4.3656,-4.25,-4.1065,-4.0409,-3.9099,-3.7534,-3.6356,-3.5284,-3.4517,-3.3881,-3.3371,-3.1976,-3.1331,-3.0797,-3.0473,-3.01,-2.9709,-2.925,-2.8839,-2.8427,-2.8048,-2.7865,-2.7666,-2.7224,-2.7018,-2.6906,-2.636,-2.5993,-2.5808,-2.5853,-2.5896,-2.5778,-2.6144,-2.6266,-2.6876,-2.7533,-2.8051,-2.8156,-2.8165,-2.9135,-2.9008,-2.8764,-2.9012,-2.8953,-2.8838,-2.8785,-2.9013,-2.9335,-2.9507,-2.947,-2.9316,-2.9011,-2.8689,-2.8945,-2.94,-3.0498,-3.1374,-3.1662,-3.1806,-3.1581,-3.1317,-3.1115,-3.0934,-3.1202,-3.1489,-3.1159,-3.1028,-3.0978,-3.0811,-3.0674,-3.0727,-3.08,-3.0716,-3.0683,-3.0516,-3.036,-3.0308,-3.0183,-3.0097,-3.0088,-3.0227,-3.0395,-3.0515,-3.0575,-3.0528,-3.0607,-3.0819,-3.0791,-3.0574,-7.8532,-7.6662,-7.6041,-7.4838,-7.3455,-7.2938,-7.1095,-6.836,-6.7081,-6.565,-6.4078,-6.1591,-6.0127,-5.9359,-5.7674,-5.6569,-5.5796,-5.4599,-5.3552,-5.2217,-5.0701,-4.9193,-4.7791,-4.6426,-4.5325,-4.4133,-4.3035,-4.1908,-4.0335,-3.9452,-3.8092,-3.6529,-3.5697,-3.4478,-3.3463,-3.2684,-3.2227,-3.1441,-3.097,-3.0414,-2.9987,-2.963,-2.9187,-2.8626,-2.8114,-2.765,-2.7334,-2.72,-2.7,-2.6874,-2.6917,-2.6468,-2.6071,-2.5707,-2.5422,-2.5292,-2.5443,-2.5672,-2.59,-2.5945,-2.6371,-2.7013,-2.7564,-2.7771,-2.8351,-2.9071,-2.9158,-2.8839,-2.886,-2.8877,-2.8875,-2.9086,-2.9239,-2.9543,-2.9906,-2.9832,-2.9699,-2.9412,-2.9089,-2.9201,-2.9665,-3.0449,-3.1216,-3.165,-3.2079,-3.2007,-3.1803,-3.1699,-3.157,-3.1291,-3.1508,-3.1408,-3.1343,-3.1507,-3.1339,-3.1233,-3.1064,-3.1159,-3.0737,-3.0632,-3.0517,-3.0464,-3.0412,-3.0287,-3.0057,-3.0025,-2.9984,-3.0162,-3.0355,-3.0395,-3.0455,-3.0497,-3.0714,-3.1029,-3.0998,-7.789,-7.6552,-7.5633,-7.4317,-7.2632,-7.0635,-6.908,-6.78,-6.5946,-6.437,-6.3336,-6.1174,-5.9769,-5.8795,-5.7674,-5.662,-5.5509,-5.4455,-5.3313,-5.1932,-5.0395,-4.9032,-4.7677,-4.6312,-4.514,-4.3861,-4.2609,-4.1369,-4.014,-3.8931,-3.7237,-3.5811,-3.4749,-3.3661,-3.267,-3.1865,-3.1371,-3.106,-3.0722,-3.0145,-2.965,-2.9323,-2.8693,-2.7963,-2.7549,-2.7,-2.6666,-2.6733,-2.6599,-2.6404,-2.6374,-2.6059,-2.5766,-2.5211,-2.478,-2.4781,-2.5042,-2.5288,-2.541,-2.5594,-2.59,-2.6327,-2.6813,-2.7581,-2.8271,-2.8969,-2.9327,-2.8932,-2.8652,-2.8708,-2.8743,-2.8894,-2.9313,-2.9713,-2.9962,-3.0022,-2.9792,-2.9444,-2.9179,-2.9432,-2.9902,-3.0409,-3.1182,-3.1825,-3.2194,-3.2323,-3.2361,-3.2264,-3.2136,-3.1856,-3.1625,-3.1576,-3.1693,-3.1827,-3.2008,-3.1923,-3.1732,-3.1445,-3.1095,-3.0779,-3.0663,-3.0631,-3.0589,-3.037,-3.0047,-2.9817,-2.9669,-2.9856,-3.0099,-3.0456,-3.0541,-3.0543,-3.0553,-3.0872,-3.1142,-7.7444,-7.6196,-7.492,-7.341,-7.1483,-6.9156,-6.7931,-6.7161,-6.5185,-6.3721,-6.256,-6.0791,-5.9415,-5.8496,-5.7553,-5.6497,-5.5365,-5.4216,-5.3072,-5.1856,-5.0256,-4.8748,-4.7352,-4.5966,-4.4592,-4.3363,-4.1934,-4.0583,-3.9274,-3.73,-3.5481,-3.4518,-3.3524,-3.2733,-3.1913,-3.1163,-3.0847,-3.0561,-3.025,-2.9788,-2.9425,-2.8977,-2.8127,-2.7525,-2.7095,-2.6481,-2.6078,-2.6197,-2.6063,-2.595,-2.5927,-2.5758,-2.5388,-2.4808,-2.4399,-2.4439,-2.4549,-2.4688,-2.4795,-2.5181,-2.5472,-2.5778,-2.6266,-2.6995,-2.7692,-2.8341,-2.859,-2.8642,-2.8575,-2.8502,-2.8556,-2.8704,-2.9273,-2.9787,-2.9943,-3.0058,-2.9745,-2.9313,-2.9383,-2.9623,-3.0024,-3.0537,-3.1171,-3.1836,-3.2322,-3.2401,-3.2665,-3.2836,-3.2609,-3.2382,-3.2049,-3.1841,-3.198,-3.219,-3.2405,-3.2556,-3.233,-3.1944,-3.1402,-3.1116,-3.0916,-3.0548,-3.0329,-3.0172,-2.9964,-2.9796,-2.9761,-2.9711,-2.9891,-3.0228,-3.0378,-3.0268,-3.0329,-3.0674,-3.0871,-7.7139,-7.5481,-7.3986,-7.2284,-7.0391,-6.8509,-6.7475,-6.6837,-6.5003,-6.3538,-6.2145,-6.0438,-5.9267,-5.837,-5.7182,-5.6056,-5.4949,-5.373,-5.2394,-5.1558,-4.9523,-4.7954,-4.6726,-4.5325,-4.4185,-4.2664,-4.1151,-3.9716,-3.7682,-3.6112,-3.4777,-3.3281,-3.2508,-3.1993,-3.1481,-3.0804,-3.0509,-3.0365,-2.971,-2.9076,-2.8977,-2.8375,-2.771,-2.7332,-2.6718,-2.6011,-2.5727,-2.5592,-2.5592,-2.5554,-2.5501,-2.5372,-2.4815,-2.4471,-2.4235,-2.4074,-2.416,-2.427,-2.4425,-2.4795,-2.5058,-2.541,-2.5961,-2.651,-2.7091,-2.7902,-2.8233,-2.8184,-2.814,-2.8274,-2.8347,-2.844,-2.8816,-2.9559,-3.0039,-3.0058,-2.9804,-2.949,-2.9378,-2.9678,-3.0103,-3.0564,-3.0833,-3.1456,-3.2076,-3.2379,-3.2773,-3.3092,-3.3078,-3.276,-3.2603,-3.2251,-3.2131,-3.2405,-3.3009,-3.3106,-3.294,-3.2529,-3.1911,-3.1423,-3.1148,-3.0611,-3.0047,-2.9984,-2.9922,-2.9984,-2.9943,-2.9815,-2.9796,-2.9926,-3.0013,-2.9927,-3.0098,-3.0528,-3.0612,-7.6826,-7.455,-7.2654,-7.1438,-7.0615,-6.8319,-6.7022,-6.6312,-6.456,-6.3516,-6.256,-6.0749,-5.9219,-5.8247,-5.6586,-5.5365,-5.4287,-5.3123,-5.153,-5.0331,-4.8679,-4.749,-4.6403,-4.5074,-4.3868,-4.2626,-4.1028,-3.8794,-3.6583,-3.5442,-3.4762,-3.3637,-3.2585,-3.1801,-3.1577,-3.0863,-3.0288,-3.0325,-2.9446,-2.8758,-2.8587,-2.8497,-2.8104,-2.7092,-2.6093,-2.5944,-2.5659,-2.5322,-2.539,-2.548,-2.5248,-2.4753,-2.4021,-2.4001,-2.3818,-2.3518,-2.3833,-2.3944,-2.4115,-2.4425,-2.4734,-2.4996,-2.541,-2.5839,-2.6476,-2.7374,-2.786,-2.7705,-2.7779,-2.7893,-2.812,-2.8212,-2.8533,-2.9368,-3.0039,-2.9981,-2.9922,-2.9648,-2.9434,-2.9749,-3.016,-3.0451,-3.0645,-3.109,-3.169,-3.2248,-3.282,-3.3184,-3.3168,-3.3028,-3.329,-3.2971,-3.234,-3.2545,-3.3236,-3.3389,-3.3038,-3.2864,-3.2307,-3.1838,-3.1285,-3.059,-2.9994,-2.9994,-2.9994,-2.9994,-2.9943,-2.9838,-2.9782,-2.9863,-2.9994,-3.0091,-3.0312,-3.0743,-3.0629,-7.6495,-7.475,-7.2494,-7.1256,-7.0299,-6.8132,-6.6913,-6.6338,-6.4404,-6.3311,-6.2819,-6.0751,-5.9071,-5.7973,-5.6337,-5.4802,-5.3753,-5.2568,-5.1025,-4.9571,-4.8307,-4.7073,-4.5852,-4.4595,-4.3214,-4.1934,-3.9731,-3.7501,-3.5577,-3.4948,-3.4357,-3.3505,-3.251,-3.1903,-3.1696,-3.0701,-3.0208,-3.0292,-2.9357,-2.8813,-2.8454,-2.8184,-2.7794,-2.6654,-2.6396,-2.6087,-2.5592,-2.5255,-2.5187,-2.5113,-2.4891,-2.4578,-2.4026,-2.3825,-2.3598,-2.3423,-2.3529,-2.3666,-2.3805,-2.4115,-2.444,-2.4703,-2.5042,-2.5472,-2.5839,-2.6668,-2.7038,-2.6994,-2.7377,-2.7628,-2.798,-2.8165,-2.8793,-2.9576,-2.9943,-3.0039,-2.9863,-2.9608,-2.9471,-2.9589,-2.9963,-3.0373,-3.0607,-3.1014,-3.1556,-3.196,-3.2592,-3.3182,-3.3226,-3.327,-3.3561,-3.3486,-3.2749,-3.2577,-3.3116,-3.3161,-3.2833,-3.2672,-3.2598,-3.1624,-3.0779,-3.0359,-2.9994,-2.9994,-2.9994,-2.9994,-2.9953,-2.9818,-2.9839,-2.9932,-3.0118,-3.0282,-3.0596,-3.0724,-3.0611,-7.6142,-7.5096,-7.2808,-7.1157,-6.9903,-6.8056,-6.7046,-6.6414,-6.4272,-6.2949,-6.2432,-6.0392,-5.8701,-5.7522,-5.6068,-5.4663,-5.3295,-5.1991,-5.0524,-4.9054,-4.7888,-4.6542,-4.5073,-4.3712,-4.2316,-4.0579,-3.8532,-3.6845,-3.5196,-3.4762,-3.4233,-3.323,-3.2417,-3.1708,-3.1228,-3.0599,-3.0105,-3.0062,-2.956,-2.897,-2.8419,-2.7863,-2.742,-2.7137,-2.6747,-2.6274,-2.5742,-2.5255,-2.5052,-2.4867,-2.4535,-2.4195,-2.3904,-2.3463,-2.3314,-2.3178,-2.3203,-2.3281,-2.3396,-2.3835,-2.4114,-2.4363,-2.4765,-2.5165,-2.5488,-2.5774,-2.6077,-2.6474,-2.6877,-2.7467,-2.7835,-2.8232,-2.8938,-2.9691,-2.9865,-3.0039,-2.9745,-2.9568,-2.9509,-2.9509,-2.9804,-3.0216,-3.0567,-3.0918,-3.1383,-3.1787,-3.2248,-3.2877,-3.3325,-3.3436,-3.3621,-3.3365,-3.2759,-3.2847,-3.3116,-3.2706,-3.234,-3.2695,-3.2502,-3.1338,-3.0391,-3.0182,-2.9994,-2.9994,-2.9994,-3.0056,-3.0015,-2.9943,-3.0005,-3.0067,-3.0089,-3.0213,-3.0255,-3.0412,-3.0443,-7.5844,-7.3673,-7.2403,-7.097,-6.9397,-6.8115,-6.6921,-6.558,-6.3935,-6.2432,-6.1146,-5.964,-5.8301,-5.765,-5.4938,-5.3443,-5.2888,-5.1417,-4.9723,-4.8237,-4.7353,-4.6012,-4.4456,-4.2941,-4.1284,-3.9605,-3.7942,-3.6618,-3.5401,-3.4895,-3.4359,-3.3633,-3.3237,-3.2556,-3.1913,-3.1235,-3.0609,-3.0339,-2.9645,-2.9055,-2.8964,-2.835,-2.7717,-2.7238,-2.655,-2.6239,-2.5832,-2.5052,-2.4916,-2.4762,-2.4439,-2.387,-2.3434,-2.3064,-2.2879,-2.2827,-2.2844,-2.3091,-2.332,-2.3708,-2.3943,-2.4204,-2.4579,-2.4734,-2.498,-2.5226,-2.5481,-2.5753,-2.6312,-2.7264,-2.7741,-2.8093,-2.8667,-2.9554,-3.0039,-2.9922,-2.9764,-2.9568,-2.945,-2.9509,-2.9627,-2.9922,-3.0098,-3.0626,-3.1325,-3.1672,-3.196,-3.2534,-3.314,-3.3417,-3.3556,-3.3142,-3.2672,-3.2964,-3.3171,-3.2147,-3.1849,-3.2287,-3.2491,-3.1572,-3.0779,-3.0129,-3.0036,-3.0512,-3.0305,-3.018,-3.0118,-3.0116,-3.0045,-3.0066,-3.0036,-3.0078,-3.0099,-3.0151,-3.0203]},{"header":{"parameterUnit":"m.s-1","parameterCategory":1,"la1":31.0,"la2":29.5877,"lo1":-88.7671,"lo2":-86.6584,"dy":0.0162,"dx":0.0185,"nx":115,"ny":88,"refTime":"2024-04-27T00:00:00:Z","depth":0,"parameterNumber":3,"parameterNumberName":"V-component_of_WINDS"},"data":[0.0,0.0,0.0,0.0,0.0,0.0,0.0,0.0,0.0,0.0,0.0,0.0,0.0,0.0,0.0,0.0,0.0,0.0,0.0,0.0,0.0,0.0,0.0,0.0,0.0,0.0,0.0,0.0,0.0,0.0,0.0,0.0,0.0,0.0,0.0,0.0,0.0,0.0,0.0,0.0,0.0,0.0,0.0,0.0,0.0,0.0,0.0,0.0,0.0,0.0,0.0,0.0,0.0,0.0,0.0,0.0,0.0,0.0,0.0,0.0,0.0,0.0,0.0,0.0,0.0,0.0,0.0,0.0,0.0,0.0,0.0,0.0,0.0,0.0,0.0,0.0,0.0,0.0,0.0,0.0,0.0,0.0,0.0,0.0,0.0,0.0,0.0,0.0,0.0,0.0,0.0,0.0,0.0,0.0,0.0,0.0,0.0,0.0,0.0,0.0,0.0,0.0,0.0,0.0,0.0,0.0,0.0,0.0,0.0,0.0,0.0,0.0,0.0,0.0,0.0,0.0,0.0,0.0,0.0,0.0,0.0,0.0,0.0,0.0,0.0,0.0,0.0,0.0,0.0,0.0,0.0,0.0,0.0,0.0,0.0,0.0,0.0,0.0,0.0,0.0,0.0,0.0,0.0,0.0,0.0,0.0,0.0,0.0,0.0,0.0,0.0,0.0,0.0,0.0,0.0,0.0,0.0,0.0,0.0,0.0,0.0,0.0,0.0,0.0,0.0,0.0,0.0,0.0,0.0,0.0,0.0,0.0,0.0,0.0,0.0,0.0,0.0,0.0,0.0,0.0,0.0,0.0,0.0,0.0,0.0,0.0,0.0,0.0,0.0,0.0,0.0,0.0,0.0,0.0,0.0,0.0,0.0,0.0,0.0,0.0,0.0,0.0,0.0,0.0,0.0,0.0,0.0,0.0,0.0,0.0,0.0,0.0,0.0,0.0,0.0,0.0,0.0,0.0,0.0,0.0,0.0,0.0,0.0,0.0,0.0,0.0,0.0,0.0,0.0,0.0,0.0,0.0,0.0,0.0,0.0,0.0,0.0,0.0,0.0,0.0,0.0,0.0,0.0,0.0,0.0,0.0,0.0,0.0,0.0,0.0,0.0,0.0,0.0,0.0,0.0,0.0,0.0,0.0,0.0,0.0,0.0,0.0,0.0,0.0,0.0,0.0,0.0,0.0,0.0,0.0,0.0,0.0,0.0,0.0,0.0,0.0,0.0,0.0,0.0,0.0,0.0,0.0,0.0,0.0,0.0,0.0,0.0,0.0,0.0,0.0,0.0,0.0,0.0,0.0,0.0,0.0,0.0,0.0,0.0,0.0,0.0,0.0,0.0,0.0,0.0,0.0,0.0,0.0,0.0,0.0,0.0,0.0,0.0,0.0,0.0,0.0,0.0,0.0,0.0,0.0,0.0,0.0,0.0,0.0,0.0,0.0,0.0,0.0,0.0,0.0,0.0,0.0,0.0,0.0,0.0,0.0,0.0,0.0,0.0,0.0,0.0,0.0,0.0,0.0,0.0,0.0,0.0,0.0,0.0,0.0,0.0,0.0,0.0,0.0,0.0,0.0,0.0,0.0,0.0,0.0,0.0,0.0,0.0,0.0,0.0,0.0,0.0,0.0,0.0,0.0,0.0,0.0,0.0,0.0,0.0,0.0,0.0,0.0,0.0,0.0,0.0,0.0,0.0,0.0,0.0,0.0,0.0,0.0,0.0,0.0,0.0,0.0,0.0,0.0,0.0,0.0,0.0,0.0,0.0,0.0,0.0,0.0,0.0,0.0,0.0,0.0,0.0,0.0,0.0,0.0,0.0,0.0,0.0,0.0,0.0,0.0,0.0,0.0,0.0,0.0,0.0,0.0,0.0,0.0,0.0,0.0,0.0,0.0,0.0,0.0,0.0,0.0,0.0,0.0,0.0,0.0,0.0,0.0,0.0,0.0,0.0,0.0,0.0,0.0,0.0,0.0,0.0,0.0,0.0,0.0,0.0,0.0,0.0,0.0,0.0,0.0,0.0,0.0,0.0,0.0,0.0,0.0,0.0,0.0,0.0,0.0,0.0,0.0,0.0,0.0,0.0,0.0,0.0,0.0,0.0,0.0,0.0,0.0,0.0,0.0,0.0,0.0,0.0,0.0,0.0,0.0,0.0,0.0,0.0,0.0,0.0,0.0,0.0,0.0,0.0,0.0,0.0,0.0,0.0,0.0,0.0,0.0,0.0,0.0,0.0,0.0,0.0,0.0,0.0,0.0,0.0,0.0,0.0,0.0,0.0,0.0,0.0,0.0,0.0,0.0,0.0,0.0,0.0,0.0,0.0,0.0,0.0,0.0,0.0,0.0,0.0,0.0,0.0,0.0,0.0,0.0,0.0,0.0,0.0,0.0,0.0,0.0,0.0,0.0,0.0,0.0,0.0,0.0,0.0,0.0,0.0,0.0,0.0,0.0,0.0,0.0,0.0,0.0,0.0,0.0,0.0,0.0,0.0,0.0,0.0,0.0,0.0,0.0,0.0,0.0,0.0,0.0,0.0,0.0,0.0,0.0,0.0,0.0,0.0,0.0,0.0,0.0,0.0,0.0,0.0,0.0,0.0,0.0,0.0,0.0,0.0,0.0,0.0,0.0,0.0,0.0,0.0,0.0,0.0,0.0,0.0,0.0,0.0,0.0,0.0,0.0,0.0,0.0,0.0,0.0,0.0,0.0,0.0,0.0,0.0,0.0,0.0,0.0,0.0,0.0,0.0,0.0,0.0,0.0,0.0,0.0,0.0,0.0,0.0,0.0,0.0,0.0,0.0,0.0,0.0,0.0,0.0,0.0,0.0,0.0,0.0,0.0,0.0,0.0,0.0,0.0,0.0,0.0,0.0,0.0,0.0,0.0,0.0,0.0,0.0,0.0,0.0,0.0,0.0,0.0,0.0,0.0,0.0,0.0,0.0,0.0,0.0,0.0,0.0,0.0,0.0,0.0,0.0,0.0,0.0,0.0,0.0,0.0,0.0,0.0,0.0,0.0,0.0,0.0,0.0,0.0,0.0,0.0,0.0,0.0,0.0,0.0,0.0,0.0,0.0,0.0,0.0,0.0,0.0,0.0,0.0,0.0,0.0,0.0,0.0,0.0,0.0,0.0,0.0,0.0,0.0,0.0,0.0,0.0,0.0,0.0,0.0,0.0,0.0,0.0,0.0,0.0,0.0,0.0,0.0,0.0,0.0,0.0,0.0,0.0,0.0,0.0,0.0,0.0,0.0,0.0,0.0,0.0,0.0,0.0,0.0,0.0,0.0,0.0,0.0,0.0,0.0,0.0,0.0,0.0,0.0,0.0,0.0,0.0,0.0,0.0,0.0,0.0,0.0,0.0,0.0,0.0,0.0,0.0,0.0,0.0,0.0,0.0,0.0,0.0,0.0,0.0,0.0,0.0,0.0,0.0,0.0,0.0,0.0,0.0,0.0,0.0,0.0,0.0,0.0,0.0,0.0,0.0,0.0,0.0,0.0,0.0,0.0,0.0,0.0,0.0,0.0,0.0,0.0,0.0,0.0,0.0,0.0,0.0,0.0,0.0,0.0,0.0,0.0,0.0,0.0,0.0,0.0,0.0,0.0,0.0,0.0,0.0,0.0,0.0,0.0,0.0,0.0,0.0,0.0,0.0,0.0,0.0,0.0,0.0,0.0,0.0,0.0,0.0,0.0,0.0,0.0,0.0,0.0,0.0,0.0,0.0,0.0,0.0,0.0,0.0,0.0,0.0,0.0,0.0,0.0,0.0,0.0,0.0,0.0,0.0,0.0,0.0,0.0,0.0,0.0,0.0,0.0,0.0,0.0,0.0,0.0,0.0,0.0,0.0,0.0,0.0,0.0,0.0,0.0,0.0,0.0,0.0,0.0,0.0,0.0,0.0,0.0,0.0,0.0,0.0,0.0,0.0,0.0,0.0,0.0,0.0,0.0,0.0,0.0,0.0,0.0,0.0,0.0,0.0,0.0,0.0,0.0,0.0,0.0,0.0,0.0,0.0,0.0,0.0,0.0,0.0,0.0,0.0,0.0,0.0,0.0,0.0,0.0,0.0,0.0,0.0,0.0,0.0,0.0,0.0,0.0,0.0,0.0,0.0,0.0,0.0,0.0,0.0,0.0,0.0,0.0,0.0,0.0,0.0,0.0,0.0,0.0,0.0,0.0,0.0,0.0,0.0,0.0,0.0,0.0,0.0,0.0,0.0,0.0,0.0,0.0,0.0,0.0,0.0,0.0,0.0,0.0,0.0,0.0,0.0,1.7612,0.0,0.0,0.0,0.0,0.0,0.0,0.0,0.0,0.0,0.0,0.0,0.0,0.0,0.0,0.0,0.0,0.0,0.0,0.0,0.0,0.0,0.0,0.0,0.0,0.0,0.0,0.0,0.0,0.0,0.0,0.0,0.0,0.0,0.0,0.0,0.0,0.0,0.0,0.0,0.0,0.0,0.0,0.0,0.0,0.0,0.0,0.0,0.0,0.0,0.0,0.0,0.0,0.0,0.0,0.0,0.0,0.0,0.0,0.0,0.0,0.0,0.0,0.0,0.0,0.0,0.0,0.0,0.0,0.0,0.0,0.0,0.0,0.0,0.0,0.0,0.0,0.0,0.0,0.0,0.0,0.0,0.0,0.0,0.0,0.0,0.0,0.0,0.0,0.0,0.0,0.0,0.0,0.0,0.0,0.0,0.0,0.0,0.0,0.0,0.0,0.0,0.0,0.0,0.0,0.0,0.0,0.0,0.0,0.0,0.0,1.6989,1.6863,1.7332,1.7612,1.7634,0.0,0.0,0.0,0.0,0.0,0.0,0.0,0.0,0.0,0.0,0.0,0.0,0.0,0.0,0.0,0.0,0.0,0.0,0.0,0.0,0.0,0.0,0.0,0.0,0.0,0.0,0.0,0.0,0.0,0.0,0.0,0.0,0.0,0.0,0.0,0.0,0.0,0.0,0.0,0.0,0.0,0.0,0.0,0.0,0.0,0.0,0.0,0.0,0.0,0.0,0.0,0.0,0.0,0.0,0.0,0.0,0.0,0.0,0.0,0.0,0.0,0.0,0.0,0.0,0.0,0.0,0.0,0.0,0.0,0.0,0.0,0.0,0.0,0.0,0.0,0.0,0.0,0.0,0.0,0.0,0.0,0.0,0.0,0.0,0.0,0.0,0.0,0.0,0.0,0.0,0.0,0.0,0.0,0.0,0.0,0.0,0.0,0.0,0.0,0.0,0.0,0.0,0.0,0.0,0.0,0.0,0.0,0.0,0.0,0.0,0.0,0.0,1.8653,1.8895,1.9091,0.0,0.0,0.0,0.0,0.0,0.0,0.0,0.0,0.0,0.0,0.0,0.0,0.0,0.0,0.0,0.0,0.0,0.0,0.0,0.0,0.0,0.0,0.0,0.0,0.0,0.0,0.0,0.0,0.0,0.0,0.0,0.0,0.0,0.0,0.0,0.0,0.0,0.0,0.0,0.0,0.0,0.0,0.0,0.0,0.0,0.0,0.0,0.0,0.0,0.0,0.0,0.0,0.0,0.0,0.0,0.0,0.0,0.0,0.0,0.0,0.0,0.0,0.0,0.0,0.0,0.0,0.0,0.0,0.0,0.0,0.0,0.0,0.0,0.0,0.0,0.0,0.0,0.0,0.0,0.0,0.0,0.0,0.0,0.0,0.0,0.0,0.0,0.0,0.0,0.0,0.0,0.0,0.0,0.0,0.0,0.0,0.0,0.0,0.0,0.0,0.0,0.0,0.0,0.0,0.0,0.0,0.0,0.0,0.0,0.0,1.9125,2.2516,2.2509,0.0,2.3471,0.0,0.0,0.0,0.0,0.0,0.0,0.0,0.0,0.0,0.0,0.0,0.0,0.0,0.0,0.0,0.0,0.0,0.0,0.0,0.0,0.0,0.0,0.0,0.0,0.0,0.0,0.0,0.0,0.0,0.0,0.0,0.0,0.0,0.0,0.0,0.0,0.0,0.0,0.0,0.0,0.0,0.0,0.0,0.0,0.0,0.0,0.0,0.0,0.0,0.0,0.0,0.0,0.0,0.0,0.0,0.0,0.0,0.0,0.0,0.0,0.0,0.0,0.0,0.0,0.0,0.0,0.0,0.0,0.0,0.0,0.0,0.0,0.0,0.0,0.0,0.0,0.0,0.0,0.0,0.0,0.0,0.0,0.0,0.0,0.0,0.0,0.0,0.0,0.0,0.0,0.0,0.0,0.0,0.0,0.0,0.0,0.0,0.0,0.0,0.0,0.0,0.0,0.0,0.0,0.0,0.0,0.0,0.0,0.0,0.0,2.1656,2.3187,2.3254,2.3572,0.0,0.0,0.0,0.0,0.0,0.0,0.0,0.0,0.0,0.0,0.0,0.0,0.0,0.0,0.0,0.0,0.0,0.0,0.0,0.0,0.0,0.0,0.0,0.0,0.0,0.0,0.0,0.0,0.0,0.0,0.0,0.0,0.0,0.0,0.0,0.0,0.0,0.0,0.0,0.0,0.0,0.0,0.0,0.0,0.0,0.0,0.0,0.0,0.0,0.0,0.0,0.0,0.0,0.0,0.0,0.0,0.0,0.0,0.0,0.0,0.0,0.0,0.0,0.0,0.0,0.0,0.0,0.0,0.0,0.0,0.0,0.0,0.0,0.0,0.0,0.0,0.0,0.0,0.0,0.0,0.0,0.0,0.0,0.0,0.0,0.0,0.0,0.0,0.0,0.0,0.0,0.0,0.0,0.0,0.0,0.0,0.0,0.0,0.0,0.0,0.0,0.0,0.0,0.0,0.0,0.0,0.0,0.0,0.0,0.0,2.2519,2.3894,2.475,2.468,2.442,2.4024,0.0,0.0,0.0,0.0,0.0,0.0,0.0,0.0,0.0,0.0,0.0,0.0,0.0,0.0,0.0,0.0,0.0,0.0,0.0,0.0,0.0,0.0,0.0,0.0,0.0,0.0,0.0,0.0,0.0,0.0,0.0,0.0,0.0,0.0,0.0,0.0,0.0,0.0,0.0,0.0,0.0,0.0,0.0,0.0,0.0,0.0,0.0,0.0,0.0,0.0,0.0,0.0,0.0,0.0,0.0,0.0,0.0,0.0,0.0,0.0,0.0,0.0,0.0,0.0,0.0,0.0,0.0,0.0,0.0,0.0,0.0,0.0,0.0,0.0,0.0,0.0,0.0,0.0,0.0,0.0,0.0,0.0,0.0,0.0,0.0,0.0,0.0,0.0,0.0,0.0,0.0,0.0,0.0,0.0,0.0,0.0,0.0,0.0,0.0,0.0,0.0,0.0,0.0,0.0,0.0,0.0,0.0,0.0,2.8287,2.5456,2.5412,2.8684,2.7847,2.6158,0.0,0.0,0.0,0.0,0.0,0.0,0.0,0.0,0.0,0.0,0.0,0.0,0.0,0.0,0.0,0.0,0.0,0.0,0.0,0.0,0.0,0.0,0.0,0.0,0.0,0.0,0.0,0.0,0.0,0.0,0.0,0.0,0.0,0.0,0.0,0.0,0.0,0.0,0.0,0.0,0.0,0.0,0.0,0.0,0.0,0.0,0.0,0.0,0.0,0.0,0.0,0.0,0.0,0.0,0.0,0.0,0.0,0.0,0.0,0.0,0.0,0.0,0.0,0.0,0.0,0.0,0.0,0.0,0.0,0.0,0.0,0.0,0.0,0.0,0.0,0.0,0.0,0.0,0.0,0.0,0.0,0.0,0.0,0.0,0.0,0.0,0.0,0.0,0.0,0.0,0.0,0.0,0.0,0.0,0.0,0.0,0.0,0.0,0.0,0.0,0.0,0.0,0.0,0.0,0.0,0.0,0.0,0.0,0.0,2.1874,2.2621,2.6039,3.1846,2.6797,2.4507,0.0,0.0,0.0,0.0,0.0,0.0,0.0,0.0,0.0,0.0,0.0,0.0,0.0,0.0,0.0,0.0,0.0,0.0,0.0,0.0,0.0,0.0,0.0,0.0,0.0,0.0,0.0,0.0,0.0,0.0,0.0,0.0,0.0,0.0,0.0,0.0,0.0,0.0,0.0,0.0,0.0,0.0,0.0,0.0,0.0,0.0,0.0,0.0,0.0,0.0,0.0,0.0,0.0,0.0,0.0,0.0,0.0,0.0,0.0,0.0,0.0,0.0,0.0,0.0,0.0,0.0,0.0,0.0,0.0,0.0,0.0,0.0,0.0,0.0,0.0,0.0,0.0,0.0,0.0,0.0,0.0,0.0,0.0,0.0,0.0,0.0,0.0,0.0,0.0,0.0,0.0,0.0,0.0,0.0,0.0,0.0,0.0,0.0,0.0,0.0,0.0,0.0,0.0,0.0,0.0,0.0,0.0,0.0,0.0,2.1709,0.0,2.8314,3.2134,2.6589,2.3631,0.0,0.0,0.0,0.0,0.0,0.0,0.0,0.0,0.0,0.0,0.0,0.0,0.0,0.0,0.0,0.0,0.0,0.0,0.0,0.0,0.0,0.0,0.0,0.0,0.0,0.0,0.0,0.0,0.0,0.0,0.0,0.0,0.0,0.0,0.0,0.0,0.0,0.0,0.0,0.0,0.0,0.0,0.0,0.0,0.0,0.0,0.0,0.0,0.0,0.0,0.0,0.0,0.0,0.0,0.0,0.0,0.0,0.0,0.0,0.0,0.0,0.0,0.0,0.0,0.0,0.0,0.0,0.0,0.0,0.0,0.0,0.0,0.0,0.0,0.0,0.0,0.0,0.0,0.0,0.0,0.0,0.0,0.0,0.0,0.0,0.0,0.0,0.0,0.0,0.0,0.0,0.0,0.0,0.0,0.0,0.0,0.0,0.0,0.0,0.0,0.0,0.0,0.0,0.0,0.0,0.0,0.0,0.0,2.2448,2.9498,3.2104,3.1992,2.9486,2.7543,2.3692,0.0,0.0,0.0,0.0,0.0,0.0,0.0,0.0,0.0,0.0,0.0,0.0,0.0,0.0,0.0,0.0,0.0,0.0,0.0,0.0,0.0,0.0,0.0,0.0,0.0,0.0,0.0,0.0,0.0,0.0,0.0,0.0,0.0,0.0,0.0,0.0,0.0,0.0,0.0,0.0,0.0,0.0,0.0,0.0,0.0,0.0,0.0,0.0,0.0,0.0,0.0,0.0,0.0,0.0,0.0,0.0,0.0,0.0,0.0,0.0,0.0,0.0,0.0,0.0,0.0,0.0,0.0,0.0,0.0,0.0,0.0,0.0,0.0,0.0,0.0,0.0,0.0,0.0,0.0,0.0,0.0,0.0,0.0,0.0,0.0,0.0,0.0,0.0,0.0,0.0,0.0,0.0,0.0,0.0,0.0,0.0,0.0,0.0,0.0,0.0,0.0,0.0,0.0,0.0,0.0,0.0,0.0,0.0,0.0,2.6922,2.8195,3.0162,3.2465,2.5485,2.2493,0.0,0.0,0.0,0.0,0.0,0.0,0.0,0.0,0.0,0.0,0.0,0.0,0.0,0.0,0.0,0.0,0.0,0.0,0.0,0.0,0.0,0.0,0.0,0.0,0.0,0.0,0.0,0.0,0.0,0.0,0.0,0.0,0.0,0.0,0.0,0.0,0.0,0.0,0.0,0.0,0.0,0.0,0.0,0.0,0.0,0.0,0.0,0.0,0.0,0.0,0.0,0.0,0.0,0.0,0.0,0.0,0.0,0.0,0.0,0.0,0.0,0.0,0.0,0.0,0.0,0.0,0.0,0.0,0.0,0.0,0.0,0.0,0.0,0.0,0.0,0.0,0.0,0.0,0.0,0.0,0.0,0.0,0.0,0.0,0.0,0.0,0.0,0.0,0.0,0.0,0.0,0.0,0.0,0.0,0.0,0.0,0.0,0.0,0.0,0.0,0.0,0.0,0.0,0.0,0.0,0.0,0.0,0.0,0.0,3.0203,3.1432,3.288,3.438,2.6947,2.362,2.4989,0.0,0.0,0.0,0.0,0.0,0.0,0.0,0.0,0.0,0.0,0.0,0.0,0.0,0.0,0.0,0.0,0.0,0.0,0.0,0.0,0.0,0.0,0.0,0.0,0.0,0.0,0.0,0.0,0.0,0.0,0.0,0.0,0.0,0.0,0.0,0.0,0.0,0.0,0.0,0.0,0.0,0.0,0.0,0.0,0.0,0.0,0.0,0.0,0.0,0.0,0.0,0.0,0.0,0.0,0.0,0.0,0.0,0.0,0.0,0.0,0.0,0.0,0.0,0.0,0.0,0.0,0.0,0.0,0.0,0.0,0.0,0.0,0.0,0.0,0.0,0.0,0.0,0.0,0.0,0.0,0.0,0.0,0.0,0.0,0.0,0.0,0.0,0.0,0.0,0.0,0.0,0.0,0.0,0.0,0.0,0.0,0.0,0.0,0.0,0.0,0.0,0.0,0.0,0.0,0.0,0.0,0.0,0.0,3.7845,4.038,3.9401,3.4871,3.122,2.6765,0.0,0.0,0.0,0.0,0.0,0.0,0.0,0.0,0.0,0.0,0.0,0.0,0.0,0.0,0.0,0.0,0.0,0.0,0.0,0.0,0.0,0.0,0.0,0.0,0.0,0.0,0.0,0.0,0.0,0.0,0.0,0.0,0.0,0.0,0.0,0.0,0.0,0.0,0.0,0.0,0.0,0.0,0.0,0.0,0.0,0.0,0.0,0.0,0.0,0.0,0.0,0.0,0.0,0.0,0.0,0.0,0.0,0.0,0.0,0.0,0.0,0.0,0.0,0.0,0.0,0.0,0.0,0.0,0.0,0.0,0.0,0.0,0.0,0.0,0.0,0.0,0.0,0.0,0.0,0.0,0.0,0.0,0.0,0.0,0.0,0.0,0.0,0.0,0.0,0.0,0.0,0.0,0.0,0.0,0.0,0.0,0.0,0.0,0.0,0.0,0.0,0.0,0.0,0.0,0.0,0.0,0.0,0.0,0.0,4.0187,4.2129,4.1931,3.9476,3.3006,2.8652,0.0,0.0,0.0,0.0,0.0,0.0,0.0,0.0,0.0,0.0,0.0,0.0,0.0,0.0,0.0,0.0,0.0,0.0,0.0,0.0,0.0,0.0,0.0,0.0,0.0,0.0,0.0,0.0,0.0,0.0,0.0,0.0,0.0,0.0,0.0,0.0,0.0,0.0,0.0,0.0,0.0,0.0,0.0,0.0,0.0,0.0,0.0,0.0,0.0,0.0,0.0,0.0,0.0,0.0,0.0,0.0,0.0,0.0,0.0,0.0,0.0,0.0,0.0,0.0,0.0,0.0,0.0,0.0,0.0,0.0,0.0,0.0,0.0,0.0,0.0,0.0,0.0,0.0,0.0,0.0,0.0,0.0,0.0,0.0,0.0,0.0,0.0,0.0,0.0,0.0,0.0,0.0,0.0,0.0,0.0,0.0,0.0,0.0,0.0,0.0,0.0,0.0,0.0,0.0,0.0,0.0,0.0,0.0,3.9038,4.2048,4.3384,4.3436,4.2178,3.5992,3.13,0.0,0.0,0.0,0.0,0.0,0.0,0.0,0.0,0.0,0.0,0.0,0.0,0.0,0.0,0.0,0.0,0.0,0.0,0.0,0.0,0.0,0.0,0.0,0.0,0.0,0.0,0.0,0.0,0.0,0.0,0.0,0.0,0.0,0.0,0.0,0.0,0.0,0.0,0.0,0.0,0.0,0.0,0.0,0.0,0.0,0.0,0.0,0.0,0.0,0.0,0.0,0.0,0.0,0.0,0.0,0.0,0.0,0.0,0.0,0.0,0.0,0.0,0.0,0.0,0.0,0.0,0.0,0.0,0.0,0.0,0.0,0.0,0.0,0.0,0.0,0.0,0.0,0.0,0.0,0.0,0.0,0.0,0.0,0.0,0.0,0.0,0.0,0.0,0.0,0.0,0.0,0.0,0.0,0.0,0.0,0.0,0.0,0.0,0.0,0.0,0.0,0.0,0.0,0.0,0.0,0.0,0.0,0.0,4.0532,4.3341,4.4242,4.419,4.298,3.9127,3.4142,0.0,0.0,0.0,0.0,0.0,0.0,0.0,0.0,0.0,0.0,0.0,0.0,0.0,0.0,0.0,0.0,0.0,0.0,0.0,0.0,0.0,0.0,0.0,0.0,0.0,0.0,0.0,0.0,0.0,0.0,0.0,0.0,0.0,0.0,0.0,0.0,0.0,0.0,0.0,0.0,0.0,0.0,0.0,0.0,0.0,0.0,0.0,0.0,0.0,0.0,0.0,0.0,0.0,0.0,0.0,0.0,0.0,0.0,0.0,0.0,0.0,0.0,0.0,0.0,0.0,0.0,0.0,0.0,0.0,0.0,0.0,0.0,0.0,0.0,0.0,0.0,0.0,0.0,0.0,0.0,0.0,0.0,0.0,0.0,0.0,0.0,0.0,0.0,0.0,0.0,0.0,0.0,0.0,0.0,0.0,0.0,0.0,0.0,0.0,0.0,0.0,0.0,0.0,0.0,0.0,0.0,0.0,0.0,4.1551,4.3368,4.4242,4.3852,4.204,3.882,3.486,0.0,0.0,0.0,0.0,0.0,0.0,0.0,0.0,0.0,0.0,0.0,0.0,0.0,0.0,0.0,0.0,0.0,0.0,0.0,0.0,0.0,0.0,0.0,0.0,0.0,0.0,0.0,0.0,0.0,0.0,0.0,0.0,0.0,0.0,0.0,0.0,0.0,0.0,0.0,0.0,0.0,0.0,0.0,0.0,0.0,0.0,0.0,0.0,0.4735,0.0,0.0,0.0,0.0,0.0,0.0,0.0,0.0,0.0,0.0,0.0,0.0,0.0,0.0,0.0,0.0,0.0,0.0,0.0,0.0,0.0,0.0,0.0,0.0,0.0,0.0,0.0,0.0,0.0,0.0,0.0,0.0,0.0,0.0,0.0,0.0,0.0,0.0,0.0,0.0,0.0,0.0,0.0,0.0,0.0,0.0,0.0,0.0,0.0,0.0,0.0,0.0,0.0,0.0,0.0,0.0,0.0,0.0,0.0,4.2172,4.4122,4.4085,4.3526,4.2453,3.9259,3.5305,0.0,0.0,0.0,0.0,0.0,0.0,0.0,0.0,0.0,0.0,0.0,0.0,0.0,0.0,0.0,0.0,0.0,0.0,0.0,0.0,0.0,0.0,0.0,0.0,0.0,0.0,0.0,0.0,0.0,0.0,0.0,0.0,0.0,0.0,0.0,0.0,0.0,0.0,0.0,0.0,0.0,0.0,0.0,0.0,0.0,0.0,0.0,0.0,0.0,0.0,0.0,0.0,0.0,0.0,0.0,0.0,0.0,0.0,0.0,0.0,0.0,0.0,0.0,0.0,0.0,0.0,0.0,0.0,0.0,0.0,0.0,0.0,0.0,0.0,0.0,0.0,0.0,0.0,0.0,0.0,0.0,0.0,0.0,0.0,0.0,0.0,0.0,0.0,0.0,0.0,0.0,0.0,0.0,0.0,0.0,0.0,0.0,0.0,0.0,0.0,0.0,0.0,0.0,0.0,0.0,0.0,0.0,3.9959,4.2604,4.4957,4.3998,4.3318,4.3087,3.956,3.5374,3.0626,0.0,0.0,0.0,0.0,0.0,0.0,0.0,0.0,0.0,0.0,0.0,0.0,0.0,0.0,0.0,0.0,0.0,0.0,0.0,0.0,0.0,0.0,0.0,0.0,0.0,0.0,0.0,0.0,0.0,0.0,0.0,0.0,0.0,0.0,0.0,0.0,0.0,0.0,0.0691,0.4378,0.0,0.0,0.0,0.0,0.0,0.0,0.0,0.0,0.5497,0.0,0.0,0.0,0.0,0.0,0.0,0.0,0.0,0.0,0.0,0.0,0.0,0.0,0.0,0.0,0.0,0.0,0.0,0.0,0.0,0.0,0.0,0.0,0.0,0.0,0.0,0.0,0.0,0.0,0.0,0.0,0.0,0.0,0.0,0.0,0.0,0.0,0.0,0.0,0.0,0.0,0.0,0.0,0.0,0.0,0.0,0.0,0.0,0.0,0.0,0.0,0.0,0.0,0.0,0.0,0.0,4.046,4.1625,4.3184,4.5283,4.4676,4.3535,4.188,3.8467,3.4432,2.985,0.0,0.0,0.0,0.0,0.0,0.0,0.0,0.0,0.0,0.0,0.0,0.0,0.0,0.0,0.0,0.0,0.0,0.0,0.0,0.0,0.0,0.0,0.0,0.0,0.0,0.0,0.0,0.0,0.0,0.0,0.0,0.0,0.0,0.0,0.0,0.0,0.0,0.0,0.0,0.5955,0.7474,0.0,0.0,0.0,0.0,0.0,0.0,0.0,0.0,0.5362,0.0,0.0,0.0,0.0,0.0,0.0,0.0,0.0,0.0,0.0,0.0,0.0,0.0,0.0,0.0,0.0,0.0,0.0,0.0,0.0,0.0,0.0,0.0,0.0,0.0,0.0,0.0,0.0,0.0,0.0,0.0,0.0,0.0,0.0,0.0,0.0,0.0,0.0,0.0,0.0,0.0,0.0,0.0,0.0,0.0,0.0,0.0,0.0,0.0,0.0,0.0,0.0,0.0,0.0,0.0,3.9895,4.1882,4.3548,4.5084,4.4104,4.2777,4.1109,3.6564,3.2156,0.0,0.0,0.0,0.0,0.0,0.0,0.0,0.0,0.0,0.0,0.0,0.0,0.0,0.0,0.0,0.0,0.0,0.0,0.0,0.0,0.0,0.0,0.0,0.0,0.0,0.0,0.0,0.0,0.0,0.0,0.0,0.0,0.0,0.0,0.0,0.0,0.0,0.0,0.0,0.0,0.6025,0.7238,0.9632,0.0,0.0,0.0,0.0,0.0,0.0,0.7686,0.6604,0.0,0.0,0.0,0.0,0.0,0.0,0.0,0.0,0.0,0.0,0.0,0.0,0.0,0.0,0.0,0.0,0.0,0.0,0.0,0.0,0.0,0.0,0.0,0.0,0.0,0.0,0.0,0.0,0.0,0.0,0.0,0.0,0.0,0.0,0.0,0.0,0.0,0.0,0.0,0.0,0.0,0.0,0.0,0.0,0.0,0.0,0.0,0.0,0.0,0.0,0.0,0.0,0.0,0.0,0.0,3.8905,4.155,4.3611,4.4857,4.3664,4.2203,4.0619,3.5224,3.0505,0.0,0.0,0.0,0.0,0.0,0.0,0.0,0.0,0.0,0.0,0.0,0.0,0.0,0.0,0.0,0.0,0.0,0.0,0.0,0.0,0.0,0.0,0.0,0.0,0.0,0.0,0.0,0.0,0.0,0.0,0.0,0.0,0.0,0.0,0.0,0.0,0.0,0.0,0.0,0.0,0.0,0.7751,0.9987,1.1429,0.0,0.0,0.0,0.0,1.1371,1.0141,0.0,0.0,0.0,0.0,0.0,0.0,0.0,0.0,0.0,0.0,0.0,0.0,0.0,0.0,0.0,0.0,0.0,0.0,0.0,0.0,0.0,0.0,0.0,0.0,0.0,0.0,0.0,0.0,0.0,0.0,0.0,0.0,0.0,0.0,0.0,0.0,0.0,0.0,0.0,0.0,0.0,0.0,0.0,0.0,0.0,0.0,0.0,0.0,0.0,0.0,0.0,0.0,0.0,0.0,0.0,0.0,3.8374,4.1187,4.3283,4.4879,4.4242,4.2744,4.036,3.6121,3.1514,0.0,0.0,0.0,0.0,0.0,0.0,0.0,0.0,0.0,0.0,0.0,0.0,0.0,0.0,0.0,0.0,0.0,0.0,0.0,0.0,0.0,0.0,0.0,0.0,0.0,0.0,0.0,0.0,0.0,0.0,0.0,0.0,0.0,0.0,0.0,0.0,0.0,0.0,0.0,0.0,0.0,1.0364,1.1208,1.2215,1.2934,0.0,0.0,0.0,1.422,1.407,0.0,0.0,0.0,0.0,0.0,0.0,0.0,0.0,0.0,0.0,0.0,0.0,0.0,0.0,0.0,0.0,0.0,0.0,0.0,0.0,0.0,0.0,0.0,0.0,0.0,0.0,0.0,0.0,0.0,0.0,0.0,0.0,0.0,0.0,0.0,0.0,0.0,0.0,0.0,0.0,0.0,0.0,0.0,0.0,0.0,0.0,0.0,0.0,0.0,0.0,0.0,0.0,0.0,0.0,0.0,3.3343,3.8803,4.2409,4.442,4.4738,4.4277,4.2513,3.9448,3.449,2.9523,0.0,0.0,0.0,0.0,0.0,0.0,0.0,0.0,0.0,0.0,0.0,0.0,0.0,0.0,0.0,0.0,0.0,0.0,0.0,0.0,0.0,0.0,0.0,0.0,0.0,0.0,0.0,0.0,0.0,0.0,0.0,0.0,0.0,0.0,0.0,0.0,0.0,0.0,0.0,0.0,0.0,0.0,1.1294,1.324,0.0,0.0,0.0,1.5823,1.617,0.0,0.0,0.0,0.0,0.0,0.0,0.0,0.0,0.0,0.0,0.0,0.0,0.0,0.0,0.0,0.0,0.0,0.0,0.0,0.0,0.0,0.0,0.0,0.0,0.0,0.0,0.0,0.0,0.0,0.0,0.0,0.0,0.0,0.0,0.0,0.0,0.0,0.0,0.0,0.0,0.0,0.0,0.0,0.0,0.0,0.0,0.0,0.0,0.0,0.0,0.0,0.0,0.0,0.0,0.0,0.0,0.0,3.9064,4.3088,4.499,4.4715,4.4229,4.2367,3.9045,3.3893,0.0,0.0,0.0,0.0,0.0,0.0,0.0,0.0,0.0,0.0,0.0,0.0,0.0,0.0,0.0,0.0,0.0,0.0,0.0,0.0,0.0,0.0,0.0,0.0,0.0,0.0,0.0,0.4105,0.0,0.0,0.0,0.0,0.0,0.0,0.0,0.0,0.0,0.0,0.0,0.0,0.0,0.0,1.0509,1.1577,1.4332,1.6564,0.0,0.0,1.7818,1.7776,1.7173,1.5931,0.0,0.0,0.0,0.0,0.0,0.0,0.0,0.0,0.0,0.0,0.0,0.0,0.0,0.0,0.0,0.0,0.0,0.0,0.0,0.0,0.0,0.0,0.0,0.0,0.0,0.0,0.0,0.0,0.0,0.0,0.0,0.0,0.0,0.0,0.0,0.0,0.0,0.0,0.0,0.0,0.0,0.0,0.0,0.0,0.0,0.0,0.0,0.0,0.0,0.0,0.0,0.0,0.0,0.0,0.0,3.88,4.2215,4.4262,4.4911,4.4325,4.2681,3.9858,3.6056,3.1545,0.0,0.0,0.0,0.0,0.0,0.0,0.0,0.0,0.0,0.0,0.0,0.0,0.0,0.0,0.0,0.0,0.0,0.0,0.0,0.0,0.0,0.0,0.0,0.0,0.0,0.0,0.0,0.0,0.0,0.0,0.0,0.0,0.0,0.0,0.0,0.0,0.0,0.0,0.0,0.0,0.0,1.1935,1.2449,1.5466,1.7849,0.0,0.0,1.9715,1.9157,1.9731,1.8775,1.4383,0.0,0.0,0.0,0.0,0.0,0.0,0.0,0.0,0.0,0.0,0.0,0.0,0.0,0.0,0.0,0.0,0.0,0.0,0.0,0.0,0.0,0.0,0.0,0.0,0.0,0.0,0.0,0.0,0.0,0.0,0.0,0.0,0.0,0.0,0.0,0.0,0.0,0.0,0.0,0.0,0.0,0.0,0.0,0.0,0.0,0.0,0.0,0.0,0.0,0.0,0.0,0.0,0.0,3.3974,3.8755,4.2474,4.4424,4.4469,4.4035,4.2768,4.0681,3.7384,3.3336,0.0,0.0,0.0,0.0,0.0,0.0,0.0,0.0,0.0,0.0,0.0,0.0,0.0,0.0,0.0,0.0,0.0,0.0,0.0,0.0,0.0,0.0,0.0,0.0,0.0,0.0,0.0,0.0,0.6534,0.6698,0.8179,0.0,0.0,0.0,0.0,0.0,0.0,0.0,0.0,0.0,0.0,1.3548,1.4201,1.653,0.0,0.0,2.0218,2.054,2.0031,1.9661,1.8727,1.6729,1.5725,0.0,0.0,0.0,0.0,0.0,0.0,0.0,0.0,0.0,0.0,0.0,0.0,0.0,0.0,0.0,0.0,0.0,0.0,0.0,0.0,0.0,0.0,0.0,0.0,0.0,0.0,0.0,0.0,0.0,0.0,0.0,0.0,0.0,0.0,0.0,0.0,0.0,0.0,0.0,0.0,0.0,0.0,0.0,0.0,0.0,0.0,0.0,0.0,0.0,0.0,0.0,0.0,3.4144,3.8915,4.2527,4.4327,4.4284,4.3859,4.2759,4.0896,3.8432,3.4998,0.0,0.0,0.0,0.0,0.0,0.0,0.0,0.0,0.0,0.0,0.0,0.0,0.0,0.0,0.0,0.0,0.0,0.0,0.0,0.0,0.0,0.0,0.0,0.0,0.0,0.0,0.0,0.0,0.7492,0.7497,0.7645,0.0,0.0,0.0,0.0,0.0,0.0,0.0,0.0,0.0,0.0,1.5208,1.6034,1.7748,1.9391,2.0496,2.0936,2.096,2.0493,1.9975,1.9303,1.8236,0.0,0.0,0.0,0.0,0.0,0.0,0.0,0.0,0.0,0.0,0.0,0.0,0.0,0.0,0.0,0.0,0.0,0.0,0.0,0.0,0.0,0.0,0.0,0.0,0.0,0.0,0.0,0.0,0.0,0.0,2.7538,0.0,0.0,0.0,0.0,0.0,0.0,0.0,0.0,0.0,0.0,0.0,0.0,0.0,0.0,0.0,0.0,0.0,0.0,0.0,0.0,0.0,0.0,3.4179,3.9424,4.2272,4.3859,4.4378,4.3991,4.2716,4.0411,3.9081,3.6618,3.2874,0.0,0.0,0.0,0.0,0.0,0.0,0.0,0.0,0.0,0.0,0.0,0.0,0.0,0.0,0.0,0.0,0.0,0.0,0.0,0.0,0.0,0.0,0.0,0.0,0.0,0.0,0.8139,0.8224,0.7642,0.0,0.0,0.0,0.0,0.0,0.0,0.0,0.0,0.0,0.0,1.6118,1.6911,1.7857,1.9156,2.0468,2.162,2.1494,2.1128,2.0634,2.1222,2.0937,0.0,0.0,0.0,0.0,0.0,0.0,0.0,0.0,0.0,0.0,0.0,0.0,0.0,0.0,0.0,0.0,0.0,0.0,0.0,0.0,0.0,0.0,0.0,0.0,0.0,0.0,0.0,4.09,3.8405,0.0,0.0,0.0,0.0,0.0,0.0,0.0,0.0,0.0,0.0,0.0,4.727,4.7688,0.0,0.0,0.0,0.0,0.0,0.0,0.0,0.0,0.0,0.0,0.0,0.0,3.511,3.9613,4.2441,4.392,4.3963,4.3582,4.2765,4.1625,4.0632,3.7968,3.3359,0.0,0.0,0.0,0.0,0.0,0.0,0.0,0.0,0.0,0.0,0.0,0.0,0.0,0.0,0.0,0.0,0.0,0.0,0.0,0.0,0.0,0.0,0.0,0.0,0.0,0.78,0.0,0.0,0.0,0.0,0.0,0.0,0.0,0.0,0.0,0.0,0.0,1.5744,1.6845,1.7307,1.814,1.9753,2.0688,2.1485,0.0,0.0,0.0,0.0,0.0,0.0,0.0,0.0,0.0,0.0,0.0,0.0,0.0,0.0,1.8596,1.4024,1.2532,1.1826,1.1398,0.0,0.0,0.0,0.0,0.0,0.0,0.0,0.0,0.0,0.0,0.0,0.0,0.0,0.0,0.0,0.0,4.3763,0.0,0.0,0.0,0.0,0.0,0.0,0.0,0.0,5.1116,5.2896,5.1583,5.2424,5.1459,0.0,4.6615,4.1354,0.0,0.0,0.0,0.0,0.0,0.0,0.0,0.0,3.6683,4.0926,4.3044,4.4054,4.397,4.3296,4.2519,4.1615,4.0633,3.838,3.4629,3.107,2.7861,0.0,0.0,0.0,0.0,0.0,0.0,0.0,0.0,0.0,0.0,0.0,0.0,0.0,0.0,0.0,0.0,0.0,0.0,0.0,0.0,0.0,0.0,0.0,0.8589,0.0,0.0,0.0,0.0,0.0,0.0,0.0,0.0,0.0,1.6112,1.7483,1.8971,1.9896,1.9521,1.9869,2.1729,0.0,0.0,0.0,0.0,0.0,0.0,0.0,2.2911,2.356,2.289,2.2048,2.1536,1.942,1.8183,1.9382,0.0,0.0,1.6266,1.4989,1.4348,1.3699,1.3649,1.383,1.4228,1.5016,1.5533,0.0,0.0,0.0,0.0,0.0,0.0,0.0,0.0,5.3947,5.2653,0.0,4.9254,0.0,0.0,0.0,0.0,0.0,4.8839,0.0,0.0,5.6305,5.8166,5.6984,5.6176,5.5541,5.4883,5.381,5.0537,4.4847,3.6237,0.0,0.0,0.0,0.0,0.0,0.0,3.8881,4.3253,4.4021,4.4294,4.428,4.3284,4.1992,4.0453,3.9213,3.8025,3.6794,3.4874,3.1958,2.7875,2.359,0.0,0.0,0.0,0.0,0.0,0.0,0.0,0.0,0.0,0.0,0.0,0.0,0.0,0.0,0.0,0.0,0.0,0.0,0.0,0.0,0.9821,0.0,0.0,0.0,0.0,0.0,0.0,0.0,0.0,0.0,0.0,2.0809,2.163,2.2919,2.4178,0.0,0.0,0.0,0.0,2.4338,2.4482,2.4724,2.4836,2.4526,2.5852,2.6338,2.488,0.0,0.0,2.3141,2.3502,2.3277,2.0877,2.0939,2.0775,1.9183,1.8234,1.7546,1.6593,1.559,1.5231,1.575,1.6113,1.647,7.0423,0.0,0.0,0.0,0.0,6.4547,6.5856,6.8094,6.4953,6.2282,5.9935,5.8518,0.0,0.0,0.0,0.0,0.0,0.0,5.3059,5.4376,5.5977,5.6742,5.6796,5.5978,5.5469,5.5269,5.3884,5.2374,5.0548,4.6304,4.0237,3.2674,0.0,0.0,0.0,0.0,4.1928,4.4086,4.5595,4.5785,4.4608,4.3608,4.2192,4.0267,3.9545,3.905,3.8713,3.7186,3.4919,3.1752,2.7582,0.0,0.0,0.0,0.0,0.0,0.0,0.0,0.0,0.0,0.0,0.0,0.0,0.0,0.0,0.0,0.0,0.0,0.0,0.0,1.2429,1.188,1.1315,0.0,0.0,0.0,0.0,0.0,0.0,0.0,0.0,0.0,2.6606,2.576,2.5397,0.0,0.0,2.407,2.4913,2.6644,2.7479,2.6278,0.0,0.0,0.0,2.6274,2.6422,2.6977,2.683,2.6147,2.4782,2.4496,2.3927,2.2307,2.2504,2.2236,2.0201,1.904,1.8093,1.7098,1.655,1.6598,1.7339,1.7846,1.8187,7.7088,7.2722,7.144,7.0869,7.0689,6.9985,7.0771,7.2395,7.0017,6.7865,6.6029,6.4508,6.1066,5.6181,5.4712,0.0,0.0,0.0,5.5965,5.6505,5.7043,5.6915,5.6343,5.5844,5.5409,5.5049,5.365,5.2967,5.3052,5.0921,4.6391,3.9795,0.0,0.0,3.9469,4.2129,4.4221,4.5754,4.63,4.6005,4.4946,4.3248,4.1408,3.9644,3.9237,3.8996,3.878,3.7974,3.6529,3.4389,3.073,2.6305,0.0,0.0,0.0,0.0,0.0,0.0,0.0,0.0,0.0,0.0,0.0,1.3883,1.0342,0.0,0.0,0.0,1.3797,1.5307,1.6964,1.7368,0.0,0.0,0.0,0.0,0.0,0.0,0.0,2.7542,2.851,2.9562,3.0701,2.944,2.8481,2.8589,2.713,2.6388,2.7279,0.0,2.9585,2.8295,2.848,2.8555,2.8101,2.7567,2.7432,2.8257,2.7506,2.6612,2.6055,2.5492,2.4826,2.3993,2.3652,2.3013,2.1181,2.0108,1.9207,1.823,1.7954,1.815,1.8854,1.9245,1.9459,8.1363,8.0075,7.6277,7.4287,7.376,7.376,7.3103,7.2017,7.0689,7.0395,7.0664,6.7867,6.5458,6.3279,5.9291,0.0,5.8209,5.9467,5.9264,5.8091,5.9046,5.8238,5.5858,5.5869,5.5346,5.4382,5.3251,5.2909,5.3128,5.1636,5.0104,4.8588,4.6226,4.5398,4.6015,4.5416,4.5984,4.7763,4.649,4.5598,4.5083,4.2258,4.0043,3.8554,3.8282,3.793,3.7399,3.734,3.6845,3.5608,3.2912,2.8922,2.3589,0.0,0.0,0.0,0.0,0.0,0.0,0.0,0.0,0.0,0.0,0.0,0.0,0.0,0.0,0.0,1.9774,0.0,2.2382,2.4637,0.0,0.0,0.0,2.96,3.3119,3.2707,3.2011,3.1553,0.0,0.0,0.0,0.0,3.1833,3.1675,2.9806,2.8942,3.0259,3.0756,3.0971,3.0477,2.9714,2.9289,2.931,2.9096,2.8895,2.8813,2.7996,2.7187,2.6843,2.6374,2.591,2.5328,2.4381,2.332,2.2272,2.1419,2.0745,1.998,1.9513,1.952,2.0135,2.0299,2.0346,8.147,8.0347,7.9343,7.779,7.605,7.6367,7.5439,7.3581,7.2441,7.1688,7.1204,6.929,6.7245,6.5336,6.3108,6.1943,6.1595,6.1081,6.0365,5.9678,5.956,5.8304,5.6242,5.5995,5.5127,5.383,5.3058,5.2994,5.3402,5.2141,5.1481,5.1356,5.0066,4.8096,4.5568,4.6804,4.7374,4.7139,4.7479,4.6416,4.3798,4.1628,3.939,3.7097,3.6593,3.5753,3.4554,3.4494,3.4314,3.3923,3.1753,2.9361,2.6819,2.2007,0.0,0.0,0.0,0.0,0.0,0.0,0.0,0.0,0.0,2.7611,1.7079,0.0,2.5051,0.0,2.4677,2.6042,2.6655,2.7288,0.0,0.0,2.9714,3.2086,3.4932,3.4614,3.4217,3.4236,3.4503,3.4652,3.4749,3.416,3.3804,3.3954,3.2604,3.1582,3.1434,3.1849,3.2283,3.2185,3.1497,3.0776,3.0146,2.956,2.9139,2.895,2.8131,2.746,2.7237,2.6621,2.603,2.5558,2.4648,2.3676,2.2903,2.2099,2.1659,2.1627,2.0481,1.9697,2.1019,2.1268,2.1432,8.1334,8.0646,8.0491,7.8951,7.6846,7.7106,7.5901,7.3881,7.3203,7.204,7.0449,6.8999,6.7309,6.5549,6.4653,6.346,6.2193,6.1693,6.0742,5.9424,5.9624,5.8335,5.5925,5.6045,5.5089,5.3223,5.2865,5.2715,5.2712,5.1795,5.151,5.1925,5.0886,4.9339,4.7551,4.8194,4.8402,4.8103,4.7725,4.6244,4.3677,4.2094,3.9895,3.7049,3.7007,3.6207,3.4425,3.4817,3.4601,3.3698,3.2138,3.0557,2.8985,2.5439,2.3314,0.0,0.0,0.0,0.0,0.0,0.0,0.0,0.0,0.0,0.0,0.0,2.9144,0.0,2.9807,0.0,3.1703,3.2786,3.3903,3.4841,3.5306,3.5965,3.6968,3.6729,3.6486,3.6436,3.5926,3.5671,3.6009,3.5339,3.4887,3.5258,3.4552,3.3665,3.2897,3.3054,3.3314,3.3308,3.2506,3.1614,3.0693,3.0289,2.9936,2.958,2.8969,2.8221,2.7566,2.7092,2.664,2.6088,2.5269,2.4492,2.3985,2.3015,2.2408,2.2408,2.1487,2.0997,2.2068,2.2185,2.232,8.1254,8.1023,8.0502,7.8977,7.6933,7.6906,7.5644,7.3602,7.3286,7.1633,6.9025,6.8146,6.6628,6.4847,6.482,6.3618,6.1505,6.1657,6.0538,5.8617,5.9479,5.8319,5.5499,5.6129,5.5137,5.2784,5.2729,5.238,5.1713,5.1057,5.0991,5.1336,5.0206,4.9821,5.0166,4.9431,4.9149,4.9386,4.7576,4.5872,4.4292,4.309,4.0928,3.7863,3.8159,3.7436,3.5369,3.6227,3.5978,3.4273,3.3487,3.2466,3.1038,2.9349,2.8423,0.0,2.8027,0.0,0.0,0.0,0.0,0.0,0.0,0.0,0.0,3.2139,3.2725,3.1822,3.4773,3.6675,3.6611,3.8692,3.9853,3.9337,3.9672,3.962,3.8607,3.8449,3.8344,3.7983,3.7004,3.6617,3.7094,3.6183,3.5673,3.6039,3.5831,3.5244,3.4499,3.4245,3.4085,3.3828,3.3013,3.2177,3.1334,3.1161,3.0997,3.0496,2.9905,2.9167,2.8185,2.7815,2.7468,2.6848,2.6088,2.5477,2.5326,2.4092,2.3119,2.3224,2.2701,2.2397,2.2965,2.3081,2.3199,8.1461,8.098,8.087,7.9416,7.7366,7.7338,7.6072,7.4049,7.312,7.0981,6.8171,6.8572,6.7157,6.4519,6.4439,6.3442,6.1782,6.1087,6.0092,5.8898,5.9106,5.8062,5.5901,5.6252,5.5257,5.3184,5.2814,5.2352,5.1685,5.1057,5.0991,5.1336,5.0677,5.0265,5.0196,0.0,0.0,0.0,4.7406,4.6486,4.5586,4.384,4.1546,3.8861,3.7734,0.0,3.3985,3.492,3.5358,3.5003,3.5554,0.0,0.0,0.0,0.0,0.0,0.0,0.0,0.0,0.0,0.0,0.0,3.4695,3.3711,3.2789,3.5752,3.7382,3.6406,3.8523,3.979,3.9308,3.9752,4.0083,3.9929,3.962,3.9154,3.8526,3.8631,3.846,3.7761,3.8011,3.8072,3.759,3.727,3.7097,3.6944,3.6704,3.637,3.6009,3.5122,3.4512,3.4224,3.3623,3.2879,3.2209,3.1797,3.1461,3.0901,3.0366,2.9949,2.958,2.8799,2.8256,2.7989,2.7079,2.6308,2.6209,2.47,2.3737,2.4339,2.4117,2.3729,2.3325,2.3779,2.4471,8.1379,0.0,8.0903,7.9784,0.0,7.7906,7.6741,7.4947,7.353,7.1337,6.8732,6.8411,6.7126,6.5124,6.4679,6.362,6.2138,6.1192,6.015,5.8992,5.9088,5.798,5.5908,5.5976,5.5007,5.3243,5.2872,5.2212,5.1314,5.0966,5.0868,5.0972,5.0648,5.0384,5.0166,4.9598,4.8866,4.8007,4.7756,4.7228,4.6323,4.5132,4.3168,4.0491,0.0,0.0,0.0,0.0,0.0,0.0,0.0,0.0,0.0,0.0,0.0,3.6842,3.6601,3.6623,3.7165,3.7469,3.7854,3.8419,3.8365,3.7794,3.6466,3.8407,3.9617,3.9429,4.0447,4.0893,4.0308,4.0438,4.044,4.0287,4.0134,3.9878,3.9517,3.9465,3.9137,3.8409,3.8559,3.8512,3.7867,3.7813,3.7756,3.7741,3.7535,3.7222,3.6798,3.6205,3.5687,3.5226,3.4428,3.3729,3.3368,3.2987,3.2476,3.1982,3.1569,3.1072,3.0481,2.9784,2.91,2.8525,2.7712,2.7118,2.6834,2.5793,2.5083,2.5447,2.5332,2.5034,2.4602,2.4925,2.5345,8.1297,8.0963,8.083,7.9849,7.8195,7.8108,7.7051,7.5354,0.0,0.0,0.0,6.8355,6.7198,6.5951,6.5032,6.3865,6.2448,6.1393,6.0249,5.8992,5.8914,5.787,5.6032,5.5646,5.4703,5.3328,5.2929,5.2045,5.0829,5.0846,5.0724,5.0493,5.043,5.027,4.9974,4.9202,4.8584,4.8122,4.826,4.7943,4.7061,4.6507,4.4989,4.2372,4.2811,4.2065,4.0056,4.0993,4.104,3.9804,3.9428,3.9161,3.9007,3.8996,3.9683,4.1254,4.1627,4.1666,4.1452,4.2034,4.1657,3.9971,4.032,4.0359,3.9957,4.0288,4.0754,4.1319,4.1324,4.1123,4.0694,4.0846,4.0896,4.0643,4.0795,4.0795,4.0643,4.044,3.9956,3.9222,3.9146,3.8919,3.8238,3.8174,3.82,3.8308,3.8214,3.8076,3.754,3.7565,3.7175,3.604,3.5277,3.4692,3.4286,3.4113,3.3727,3.295,3.2724,3.2235,3.1288,3.0752,3.0069,2.9064,2.8391,2.7901,2.7504,2.6843,2.6499,2.6538,2.6327,2.6143,2.6201,2.6422,2.6527,8.1982,8.1435,8.0836,7.9399,7.7593,7.7501,7.6009,7.3672,7.34,7.1772,6.9209,6.9286,6.799,6.5549,6.4856,6.3792,6.2421,6.0989,5.9872,0.0,5.8539,5.7555,5.6224,5.5707,5.4849,5.3668,5.2986,5.2045,5.0948,5.0972,5.0896,5.0541,5.0176,4.9702,4.9125,4.8511,4.8267,4.848,4.8521,4.849,4.8357,4.7548,4.6316,4.4595,4.3808,4.2517,4.0625,4.1843,4.2402,4.194,4.3021,4.2952,4.1391,4.2402,4.262,4.1547,4.1742,4.2189,4.2653,4.1847,4.1097,4.0604,4.0457,4.0388,4.0588,4.1113,4.1443,4.1617,4.1448,4.1274,4.1224,4.1224,4.1248,4.1198,4.1198,4.1198,4.1172,4.0971,4.0613,3.9971,4.0332,4.0052,3.8879,3.8817,3.8821,3.8642,3.851,3.8349,3.8639,3.9166,3.8494,3.6688,3.6178,3.5722,3.4875,3.4604,3.4263,3.34,3.3237,3.2944,3.2182,3.1875,3.1325,3.03,2.9241,2.8627,2.8395,2.7411,2.707,2.7146,2.7115,2.7098,2.731,2.8233,2.8622,8.1898,8.1466,8.0296,7.9371,7.8668,7.7086,7.5543,7.3924,7.3077,7.1419,6.95,6.9016,6.7747,6.5775,6.4505,6.3416,6.2421,6.1117,5.9995,5.9004,5.8392,5.7472,5.6347,5.5589,5.4781,5.3895,5.3415,5.2683,5.1817,5.1504,5.142,5.1327,5.0299,4.9524,4.8984,4.8329,4.8218,4.8563,4.8604,4.8604,4.8604,4.7958,4.7046,4.5865,4.5157,4.424,4.2995,4.3464,4.3797,4.3865,4.4308,4.4143,4.3183,4.3692,4.3452,4.2345,4.2544,4.2575,4.2317,4.1423,4.0929,4.1085,4.091,4.103,4.1489,4.1513,4.1639,4.1968,4.1977,4.1971,4.1971,4.1796,4.1746,4.1746,4.1993,4.2043,4.1819,4.1944,4.1607,4.0762,4.0694,4.0285,3.8899,3.896,3.8987,3.8714,3.8799,3.9158,3.9336,3.9908,3.9542,3.7335,3.6697,3.628,3.5533,3.533,3.4971,3.4258,3.3926,3.344,3.2772,3.2372,3.1838,3.107,3.0147,2.9659,2.9577,2.8792,2.8311,2.8335,2.8228,2.827,2.8724,2.9657,3.008,8.1893,8.1717,8.0093,7.9371,7.9125,7.6564,7.5104,7.4304,7.2741,7.1164,6.9683,6.8662,6.7418,6.5945,6.4229,6.3089,6.2411,6.1162,6.0063,5.907,5.8319,5.7397,5.6354,5.5353,5.4536,5.4092,5.3613,5.3122,5.2555,5.1955,5.1718,5.1678,5.0427,4.9546,4.9126,4.8468,4.8343,4.8728,4.8718,4.8718,4.8687,4.8242,4.7561,4.6722,4.6199,4.5594,4.4823,4.4648,4.4662,4.48,4.4662,4.4373,4.3983,4.3998,4.3741,4.3159,4.324,4.2962,4.206,4.1492,4.1319,4.1506,4.1353,4.1495,4.2038,4.1779,4.1847,4.2457,4.2677,4.2658,4.2658,4.2435,4.2311,4.2387,4.2582,4.2631,4.2435,4.2631,4.2496,4.1479,4.1329,4.0759,3.9612,3.9269,3.9236,3.906,3.938,3.9804,3.9936,4.0457,3.9983,3.8558,3.7495,3.7003,3.6548,3.6153,3.5711,3.5103,3.4775,3.4268,3.3477,3.2791,3.22,3.1673,3.1186,3.0717,3.0554,2.9835,2.9369,2.9339,2.9165,2.9333,3.024,3.0671,3.1182,8.2497,8.2307,8.0864,7.9493,7.8012,7.5737,7.4471,7.3841,7.2433,7.0991,6.9707,6.8798,6.7571,6.5992,6.4229,6.3089,6.2411,6.0755,5.975,5.9292,5.7916,5.7107,5.6693,5.4995,5.4144,5.4007,5.3275,5.2835,5.2681,5.2209,5.1512,5.0817,5.0377,4.9996,4.9493,4.889,4.8769,4.925,4.9078,4.8955,4.8924,4.8506,4.7831,4.688,4.643,4.5594,4.4519,4.4496,4.4332,4.3771,4.4151,4.386,4.3027,4.3738,4.3983,4.3358,4.3469,4.3349,4.2931,4.2812,4.2489,4.1993,4.1621,4.1597,4.2021,4.199,4.2413,4.3202,4.3273,4.3184,4.3211,4.297,4.2922,4.3067,4.2825,4.2658,4.3018,4.2755,4.2484,4.2722,4.2587,4.2166,4.0824,4.0529,4.0256,3.9687,3.9826,4.015,4.0473,4.0859,4.0859,3.9816,3.9088,3.8348,3.7585,3.6948,3.6392,3.5857,3.5652,3.5235,3.4539,3.3567,3.2605,3.2535,3.2145,3.1711,3.1023,3.0269,2.9717,2.9941,3.0052,3.0372,3.1618,3.1859,3.1797,8.2037,8.1856,8.0321,7.9013,7.7789,7.5842,7.4874,7.4491,7.2516,7.1125,7.0219,6.8586,6.731,6.629,6.3948,6.2834,6.2692,6.0838,5.9763,5.9385,5.7761,5.6955,5.6693,5.4998,5.4202,5.4259,5.3578,5.3353,5.3532,5.3258,5.2222,5.0774,5.0567,5.0242,4.962,4.9098,4.9037,4.9259,4.9331,4.9412,4.9367,4.8396,4.7629,4.7215,4.6316,4.5559,4.5055,4.4874,4.4489,4.3944,4.4353,4.4291,4.3547,4.4341,4.4668,4.4278,4.4113,4.3957,4.3771,4.3497,4.314,4.2648,4.2322,4.2324,4.2552,4.2826,4.3234,4.3765,4.3603,4.3509,4.3843,4.3717,4.3546,4.3546,4.3499,4.3546,4.3451,4.3355,4.3307,4.3328,4.3026,4.2649,4.2082,4.1625,4.1187,4.0714,4.0692,4.0856,4.0929,4.1198,4.1323,4.1079,4.0399,3.9316,3.8187,3.7765,3.7186,3.6455,3.6069,3.5779,3.5181,3.4733,3.4046,3.3431,3.2854,3.2354,3.1811,3.0964,3.0302,3.0623,3.1209,3.1708,3.245,3.2789,3.2988,8.1633,8.1351,7.9871,7.8845,7.8067,7.6224,7.5225,7.473,7.2529,7.129,7.0655,6.8528,6.7378,6.6689,6.4127,6.2992,6.282,6.1084,5.9936,5.949,5.7825,5.7045,5.6875,5.5116,5.4317,5.4342,5.3737,5.3497,5.3845,5.3928,5.2957,5.141,5.1151,5.0851,5.0224,4.975,4.9559,4.9573,4.9653,4.9812,4.9852,4.8692,4.7921,4.7675,4.6597,4.5835,4.5609,4.5284,4.4861,4.4283,4.4835,4.4898,4.4387,4.5013,4.5278,4.5061,4.4799,4.4572,4.4488,4.4035,4.3615,4.326,4.297,4.286,4.3086,4.324,4.3546,4.4091,4.3865,4.3953,4.4563,4.4443,4.4256,4.4134,4.4228,4.4068,4.3946,4.4021,4.3974,4.3796,4.3546,4.3204,4.3,4.2359,4.1708,4.1835,4.1807,4.1799,4.171,4.2019,4.227,4.2175,4.1546,4.0555,3.9121,3.8473,3.7944,3.7337,3.6825,3.6362,3.5855,3.5761,3.5293,3.4418,3.3548,3.2687,3.2155,3.1482,3.1082,3.1647,3.2131,3.2563,3.305,3.3596,3.3871,8.1305,8.1355,8.0109,7.9241,7.8737,7.6664,7.5414,7.4574,7.2478,7.1317,7.076,6.8943,6.806,6.7613,6.5138,6.3629,6.2987,6.1504,6.048,5.9855,5.8368,5.7601,5.7294,5.5496,5.4544,5.4425,5.3337,5.2822,5.2892,5.3513,5.3481,5.2577,5.2324,5.2016,5.1529,5.1023,5.0675,5.0287,5.0042,5.0089,5.0377,4.9623,4.8923,4.8403,4.7521,4.6639,4.5954,4.5787,4.5403,4.4713,4.534,4.5512,4.5052,4.5484,4.5682,4.5505,4.5463,4.5278,4.4874,4.4496,4.4151,4.381,4.325,4.2994,4.3413,4.3072,4.324,4.412,4.434,4.4661,4.5273,4.5201,4.5138,4.5155,4.4369,4.4181,4.463,4.4537,4.4425,4.4322,4.4256,4.4068,4.38,4.2535,4.2414,4.2792,4.2706,4.2538,4.2921,4.3345,4.3219,4.2842,4.2519,4.2192,4.1087,3.9967,3.8982,3.8149,3.7558,3.7185,3.7155,3.6936,3.6174,3.5255,3.4004,3.3048,3.2463,3.2136,3.1995,3.2221,3.2533,3.2959,3.3505,3.3808,3.4025,8.0255,8.0474,7.9573,7.9213,7.9129,7.6854,7.5575,7.4733,7.2529,7.1471,7.0984,6.9148,6.8235,6.8177,6.6223,6.4719,6.3612,6.1414,6.0346,6.007,5.8168,5.7271,5.7182,5.5074,5.4177,5.4284,5.328,5.2729,5.2773,5.3483,5.3511,5.2821,5.2461,5.2383,5.2188,5.1584,5.1089,5.0914,5.054,5.048,5.0743,5.0448,4.985,4.884,4.8295,4.7476,4.6365,4.653,4.6171,4.5132,4.5663,4.573,4.5298,4.5773,4.6084,4.5977,4.5828,4.5609,4.5463,4.5092,4.4685,4.4381,4.4112,4.3784,4.3698,4.3717,4.4102,4.4625,4.526,4.5825,4.6153,4.6016,4.573,4.5504,4.5276,4.4972,4.5046,4.5184,4.5087,4.4516,4.4402,4.4452,4.4269,4.3811,4.3585,4.3632,4.3704,4.3618,4.3319,4.3425,4.3426,4.3169,4.297,4.2841,4.2862,4.1508,4.0304,3.9016,3.8198,3.7767,3.7596,3.708,3.6352,3.5358,3.4205,3.3304,3.2731,3.2668,3.2589,3.2389,3.2692,3.3386,3.3962,3.4094,3.423,7.9673,7.9826,7.9206,7.9044,7.91,7.6692,7.5467,7.4947,7.2673,7.1638,7.1318,6.9568,6.865,6.8237,6.6791,6.5334,6.3979,6.1807,6.071,6.032,5.8485,5.7519,5.7161,5.5389,5.446,5.4476,5.3481,5.2887,5.2891,5.332,5.336,5.2953,5.281,5.277,5.2692,5.2096,5.163,5.1351,5.0941,5.0781,5.0972,5.0972,5.0467,4.9544,4.924,4.8361,4.6746,4.6888,4.6653,4.5923,4.6112,4.618,4.5899,4.6252,4.6474,4.6404,4.6191,4.6044,4.5936,4.5682,4.5352,4.4986,4.4836,4.4572,4.4104,4.4313,4.469,4.515,4.5645,4.6304,4.6715,4.6739,4.6491,4.6046,4.6001,4.5911,4.564,4.5866,4.5618,4.4957,4.4496,4.4469,4.4644,4.4661,4.4429,4.4151,4.4384,4.4208,4.3713,4.3582,4.3539,4.3468,4.3409,4.3298,4.3265,4.2512,4.1725,4.0577,3.9051,3.8568,3.7887,3.7272,3.6505,3.5506,3.4558,3.3663,3.3227,3.3157,3.2898,3.2591,3.3083,3.3813,3.4128,3.4264,3.4433,7.9581,7.9826,7.9206,7.8875,7.8625,7.6338,7.5198,7.4891,7.2743,7.1811,7.179,7.0333,6.8993,6.8253,6.6847,6.5323,6.3796,6.2708,6.161,6.0393,5.9442,5.8494,5.7687,5.6358,5.531,5.4835,5.3867,5.3296,5.3028,5.3084,5.3132,5.3326,5.3302,5.322,5.3081,5.2727,5.2237,5.1709,5.1224,5.1037,5.1199,5.1199,5.0811,5.0204,5.0363,4.9316,4.6813,4.6886,4.6886,4.6652,4.6756,4.6892,4.6828,4.6894,4.6823,4.6684,4.6582,4.6477,4.6298,4.6156,4.5972,4.5719,4.5395,4.5129,4.496,4.4718,4.4794,4.5379,4.5708,4.6109,4.694,4.7347,4.7322,4.6975,4.658,4.6491,4.6491,4.6417,4.6166,4.5665,4.4763,4.4385,4.4792,4.4774,4.449,4.4431,4.4415,4.4339,4.3986,4.4005,4.4008,4.3886,4.3832,4.3836,4.3654,4.3433,4.2904,4.2195,4.0622,3.9501,3.8522,3.78,3.704,3.6041,3.4626,3.3788,3.3675,3.3542,3.3437,3.3338,3.3854,3.4128,3.4298,3.4433,3.4668,7.9496,7.9416,7.8721,7.8621,7.8569,7.6228,7.5359,7.5295,7.2489,7.1561,7.1754,6.997,6.8619,6.7719,6.6634,6.5109,6.3233,6.2708,6.1706,6.0252,5.9115,5.8329,5.7667,5.6335,5.5165,5.4396,5.3685,5.3187,5.29,5.2946,5.3055,5.3148,5.3334,5.3545,5.3724,5.3385,5.2849,5.2317,5.1841,5.1456,5.1232,5.135,5.1029,5.0449,5.068,4.9894,4.7942,4.7779,4.7552,4.7028,4.7064,4.7167,4.7301,4.7335,4.7233,4.703,4.6996,4.6825,4.6547,4.6442,4.6333,4.6044,4.5755,4.5788,4.5947,4.5746,4.5827,4.6321,4.676,4.7079,4.7261,4.7737,4.7807,4.7236,4.7236,4.7193,4.7003,4.6502,4.6048,4.5668,4.4877,4.4477,4.4381,4.4252,4.4264,4.4175,4.3991,4.3834,4.4091,4.4138,4.4134,4.4057,4.4189,4.4351,4.419,4.4037,4.3701,4.2962,4.1648,4.0256,3.9269,3.8385,3.7631,3.6649,3.5229,3.4318,3.414,3.3985,3.3854,3.3888,3.4162,3.4366,3.4496,3.4698,3.4898,7.9285,7.8879,7.8266,7.8143,7.8234,7.5981,7.5306,7.5399,7.2779,7.1771,7.1698,7.0118,6.8529,6.7524,6.6627,6.5,6.3018,6.2679,6.1736,6.0285,5.9045,5.8396,5.7935,5.6279,5.5128,5.4421,5.3714,5.3136,5.2753,5.2898,5.3009,5.3028,5.329,5.364,5.4008,5.3702,5.3314,5.2957,5.2338,5.1894,5.1626,5.1592,5.1345,5.0921,5.0988,5.0467,4.9337,4.8744,4.8021,4.7398,4.7267,4.7436,4.7637,4.7604,4.7504,4.7369,4.7336,4.7235,4.6961,4.6892,4.6719,4.6404,4.6152,4.6185,4.6539,4.6542,4.6667,4.7092,4.7548,4.7781,4.7671,4.8183,4.8271,4.7837,4.7837,4.7837,4.7563,4.6839,4.6224,4.5832,4.5094,4.4525,4.4221,4.4195,4.4157,4.4028,4.3958,4.3788,4.4128,4.4086,4.4217,4.4366,4.4564,4.4648,4.4685,4.4569,4.4414,4.3567,4.2528,4.1224,4.0057,3.9281,3.8516,3.7693,3.6459,3.5219,3.4927,3.4554,3.4395,3.4467,3.4501,3.4668,3.4831,3.4931,3.5096,7.9094,7.83,7.7757,7.7779,7.7733,7.5597,7.5145,7.5427,7.332,7.2197,7.1765,7.0346,6.8794,6.7468,6.6514,6.4965,6.3131,6.2587,6.1862,6.0551,5.9343,5.8577,5.8001,5.6441,5.5455,5.488,5.4029,5.3334,5.2852,5.2959,5.304,5.3152,5.3308,5.3671,5.3976,5.3828,5.3716,5.3478,5.2746,5.2262,5.2106,5.1937,5.1688,5.1475,5.1424,5.1243,5.0707,4.9518,4.8361,4.7467,4.7504,4.7737,4.7902,4.7836,4.7704,4.7537,4.7638,4.7604,4.7504,4.7267,4.7163,4.702,4.6702,4.6614,4.7166,4.7268,4.7302,4.7586,4.8146,4.8324,4.8124,4.8531,4.878,4.8646,4.8212,4.8057,4.8157,4.7346,4.6731,4.6251,4.5327,4.4488,4.4428,4.4459,4.4297,4.4204,4.4464,4.4586,4.4234,4.4278,4.4534,4.4778,4.5042,4.5042,4.5148,4.5136,4.488,4.4031,4.3162,4.2174,4.0764,3.989,3.9271,3.8472,3.7515,3.6387,3.5518,3.5115,3.4831,3.4798,3.4865,3.503,3.5133,3.5228,3.5294,7.9297,7.795,7.8015,7.7837,7.7315,7.5679,7.5387,7.5507,7.293,7.1722,7.1203,6.9882,6.8131,6.6285,6.6037,6.4576,6.2764,6.2224,6.1799,6.0817,5.9165,5.7883,5.7226,5.6667,5.6016,5.5326,5.473,5.4006,5.3266,5.3122,5.3192,5.3528,5.3419,5.364,5.404,5.4147,5.4007,5.3661,5.3142,5.2573,5.2248,5.1969,5.1794,5.1762,5.196,5.1777,5.1179,4.9891,4.8763,4.7902,4.8065,4.8163,4.8163,4.8227,4.8065,4.777,4.7902,4.7902,4.7637,4.7469,4.7564,4.7814,4.7564,4.7602,4.824,4.86,4.8552,4.8529,4.8934,4.9048,4.8418,4.8772,4.9085,4.9004,4.8208,4.784,4.8368,4.8009,4.7293,4.6995,4.6102,4.5445,4.484,4.4525,4.4347,4.4256,4.4647,4.5262,4.4878,4.5264,4.5873,4.5684,4.5782,4.5677,4.5614,4.5599,4.5248,4.446,4.3754,4.3216,4.1628,4.0202,3.9673,3.9092,3.8017,3.6884,3.6064,3.5424,3.5294,3.5129,3.5297,3.5492,3.5492,3.5554,3.5587,7.9052,7.7684,7.782,7.7614,7.6983,7.5785,7.5467,7.5339,7.3051,7.1734,7.1278,6.9713,6.7905,6.62,6.5884,6.4567,6.254,6.2061,6.1753,6.1284,5.9638,5.8059,5.6938,5.6749,5.6384,5.5629,5.5404,5.4735,5.3913,5.3597,5.3651,5.3727,5.3543,5.3683,5.42,5.4454,5.4547,5.4291,5.3616,5.2999,5.2811,5.2137,5.1827,5.1868,5.2161,5.1978,5.1021,5.066,4.989,4.8659,4.8388,4.8483,4.8452,4.8452,4.8356,4.8065,4.8163,4.8198,4.8266,4.8132,4.816,4.8417,4.8364,4.8343,4.8526,4.9126,4.9437,4.8701,4.9381,4.9337,4.8929,4.9182,4.933,4.8914,4.7987,4.7736,4.8545,4.8164,4.7667,4.7179,4.6578,4.5847,4.4991,4.4541,4.4396,4.4442,4.4772,4.5442,4.5889,4.6648,4.7056,4.6697,4.6207,4.5903,4.584,4.5823,4.5719,4.4966,4.4261,4.3787,4.2266,4.0649,4.0168,3.9571,3.8493,3.7555,3.6725,3.6023,3.5621,3.5589,3.5784,3.5814,3.575,3.5933,3.5935,7.8658,7.7511,7.7456,7.7253,7.6842,7.5836,7.5547,7.5367,7.3254,7.2102,7.1559,6.9854,6.8103,6.6609,6.5862,6.4699,6.2942,6.1973,6.1529,6.1027,5.9992,5.8668,5.7367,5.7175,5.6581,5.5957,5.605,5.5487,5.456,5.4291,5.4205,5.4035,5.3637,5.3758,5.4242,5.4613,5.4957,5.4753,5.384,5.3246,5.2986,5.2268,5.1827,5.1868,5.2302,5.182,5.1194,5.1262,5.1089,4.8614,4.8646,4.8807,4.8837,4.8644,4.8616,4.8552,4.8457,4.856,4.9161,4.8994,4.8824,4.8952,4.9335,4.9056,4.8583,4.926,4.977,4.8767,4.9314,4.9358,4.919,4.9557,4.9606,4.9138,4.8376,4.7988,4.7985,4.8106,4.7847,4.7184,4.6894,4.6074,4.5287,4.4688,4.4688,4.5163,4.5494,4.6174,4.6857,4.7509,4.7624,4.7421,4.6812,4.609,4.6031,4.6008,4.59,4.5534,4.4863,4.4095,4.2646,4.1357,4.079,4.0108,3.918,3.8312,3.7478,3.6829,3.6214,3.5969,3.6061,3.6001,3.594,3.6278,3.6434,7.8277,7.7483,7.7359,7.7204,7.6869,7.6079,7.5816,7.5699,7.3254,7.1934,7.1166,6.9685,6.8131,6.6567,6.5742,6.4696,6.3402,6.1985,6.0765,5.9855,6.0379,5.9567,5.843,5.7977,5.7151,5.6407,5.6795,5.635,5.525,5.4643,5.4404,5.4453,5.3885,5.364,5.4189,5.4613,5.4576,5.4285,5.3639,5.3117,5.2655,5.2202,5.1864,5.1904,5.2412,5.2029,5.1196,5.173,5.112,4.9573,4.9497,4.9729,4.9032,4.8923,4.9131,4.9115,4.8753,4.889,4.9759,4.9526,4.9225,4.9551,5.014,4.993,4.8437,4.9616,4.9971,4.9336,4.9159,4.9074,4.8881,4.9422,4.9731,4.9763,4.9518,4.9106,4.8861,4.7908,4.7592,4.784,4.7598,4.7114,4.6617,4.6071,4.5946,4.6015,4.6341,4.7063,4.7637,4.8175,4.8052,4.7773,4.7161,4.6442,4.6291,4.6262,4.6156,4.6048,4.55,4.4823,4.3336,4.215,4.1641,4.0854,3.9918,3.9073,3.8229,3.739,3.6741,3.6555,3.6339,3.625,3.6313,3.6654,3.6716,7.8693,7.7854,7.8034,7.7621,7.6897,7.6268,7.5896,7.5418,7.3254,7.2018,7.1259,6.9652,6.813,6.6904,6.5649,6.4533,6.3414,6.2061,6.0732,5.9961,6.0092,5.9711,5.9087,5.8575,5.7774,5.6888,5.7318,5.6937,5.6113,5.5341,5.5007,5.4946,5.421,5.4115,5.4422,5.4739,5.4727,5.4422,5.4096,5.3532,5.2677,5.237,5.2207,5.2227,5.259,5.2368,5.1664,5.2336,5.1792,5.0807,5.0932,5.066,4.9258,4.9111,4.9421,4.9641,4.9015,4.9284,5.0025,5.0126,4.9692,4.969,5.0848,5.0012,4.9212,4.967,5.0257,4.9589,4.8988,4.8547,4.8429,4.9507,4.9988,4.9507,4.9807,4.9623,4.8905,4.813,4.7607,4.7947,4.77,4.7289,4.6969,4.6762,4.6642,4.641,4.5684,4.6341,4.7495,4.7935,4.8083,4.7818,4.7277,4.6827,4.6606,4.6477,4.6442,4.6372,4.6176,4.5524,4.4582,4.3485,4.2553,4.157,4.0462,3.9796,3.8948,3.8106,3.733,3.6958,3.6712,3.6593,3.6688,3.7029,3.6937,7.9273,7.8505,7.865,7.8123,7.7201,7.6216,7.5816,7.5559,7.3177,7.1998,7.1597,6.9517,6.8156,6.7213,6.5693,6.4307,6.3147,6.2377,6.1228,6.0466,6.0531,6.0174,5.9605,5.9347,5.8738,5.7958,5.782,5.7455,5.6777,5.6151,5.5519,5.5299,5.4795,5.4486,5.473,5.4948,5.4914,5.467,5.4391,5.3857,5.3034,5.2782,5.2781,5.2952,5.2867,5.2774,5.247,5.284,5.2806,5.1709,5.2347,5.15,5.0184,4.9511,4.9715,5.0236,4.9377,4.9819,5.0959,5.0861,5.0226,4.9726,5.1293,5.0988,4.9423,4.9552,5.0142,5.0002,4.9401,4.867,4.8134,4.944,4.9498,4.8994,4.9552,4.9787,4.917,4.8897,4.8349,4.7489,4.7686,4.77,4.7239,4.6992,4.6898,4.6708,4.5982,4.5824,4.7002,4.7686,4.7762,4.7834,4.7358,4.7077,4.6888,4.6823,4.6754,4.6652,4.6588,4.6129,4.5541,4.4726,4.3595,4.2086,4.1037,4.0368,3.9672,3.8919,3.8169,3.7517,3.7208,3.7178,3.7306,3.7466,3.7311,7.9049,7.9459,7.8541,7.8234,7.8007,7.6194,7.5547,7.5395,7.2917,7.1546,7.1147,6.9349,6.8112,6.7228,6.5928,6.4188,6.2815,6.2164,6.1787,6.1257,6.138,6.1225,6.0502,6.0356,5.9825,5.864,5.811,5.7679,5.6968,5.6313,5.5875,5.527,5.4902,5.4774,5.4741,5.4707,5.4841,5.4677,5.4372,5.3803,5.3241,5.3169,5.3327,5.3565,5.3376,5.3079,5.2806,5.311,5.2973,5.197,5.2443,5.2172,5.1458,5.1219,5.1131,5.0875,5.0079,5.0353,5.2,5.1496,5.1129,5.1262,5.1865,5.1596,5.0224,4.9691,5.0021,5.0415,5.0241,4.9709,4.7965,4.9339,4.9894,4.9662,5.0287,5.131,5.088,5.0014,4.8846,4.7762,4.7933,4.8004,4.7548,4.7289,4.7325,4.7148,4.6642,4.6398,4.7057,4.7412,4.7364,4.7435,4.7473,4.7288,4.7098,4.7098,4.7064,4.6961,4.6862,4.6601,4.6076,4.5649,4.4607,4.322,4.1934,4.1072,4.0372,3.9643,3.892,3.8171,3.7952,3.7795,3.7926,3.8055,3.843,7.9557,7.9369,7.8735,7.8402,7.7899,7.6059,7.5271,7.503,7.2883,7.1566,7.0735,6.9321,6.8112,6.7228,6.5928,6.4216,6.2784,6.2054,6.1852,6.1701,6.1612,6.1508,6.0924,6.0916,6.0234,5.9372,5.8854,5.8095,5.717,5.681,5.6341,5.5998,5.5552,5.5304,5.5229,5.5066,5.4882,5.4742,5.4744,5.4409,5.3687,5.3816,5.405,5.3904,5.3953,5.3754,5.3444,5.3412,5.3478,5.3192,5.3295,5.3022,5.2643,5.2369,5.2306,5.1913,5.0779,5.0785,5.2268,5.1695,5.1061,5.1162,5.2001,5.1832,5.0759,5.0092,4.9859,4.9557,5.0022,4.949,4.7902,4.9121,4.9485,4.9651,5.0676,5.1168,5.07,5.007,4.9164,4.8126,4.7938,4.7891,4.7754,4.7626,4.7722,4.7545,4.7174,4.7168,4.7248,4.7232,4.7151,4.7322,4.7456,4.7429,4.7302,4.7336,4.7335,4.7233,4.7134,4.6838,4.6478,4.6052,4.5528,4.4585,4.3355,4.1843,4.1009,4.0244,3.9518,3.8859,3.8608,3.8484,3.8517,3.8676,3.9054,7.992,7.9052,7.8871,7.8373,7.7566,7.5868,7.5024,7.4553,7.282,7.1746,7.1007,6.9394,6.81,6.7129,6.577,6.4291,6.2938,6.2274,6.2157,6.2175,6.1432,6.1115,6.1132,6.0705,6.01,5.9792,5.9358,5.8705,5.7867,5.7528,5.7183,5.6634,5.6158,5.5942,5.589,5.5394,5.5077,5.5245,5.5568,5.5402,5.4915,5.4782,5.4737,5.4313,5.4529,5.4364,5.3915,5.4054,5.4084,5.4143,5.4177,5.3975,5.3423,5.3315,5.3315,5.2983,5.1376,5.1449,5.2093,5.1994,5.1427,5.1329,5.2303,5.1967,5.1363,5.0693,5.0059,4.8465,4.8763,4.9028,4.82,4.8663,4.9061,4.9426,5.0289,5.0949,5.0251,4.9752,4.9618,4.8813,4.8169,4.7732,4.7596,4.768,4.7777,4.7461,4.7087,4.7194,4.7283,4.7184,4.7162,4.7332,4.7434,4.7502,4.7537,4.7571,4.7537,4.7403,4.7303,4.7139,4.6746,4.632,4.5666,4.4916,4.3908,4.2488,4.165,4.0847,4.0148,3.9612,3.9299,3.9142,3.9141,3.9298,3.9613,7.9311,7.9052,7.8558,7.7871,7.6954,7.5457,7.4783,7.453,7.256,7.149,7.1166,6.9556,6.8088,6.6636,6.5233,6.4446,6.3946,6.32,6.2808,6.2854,6.1961,6.141,6.1459,6.1068,6.0486,6.0095,5.9622,5.9035,5.8511,5.8346,5.7777,5.7069,5.6676,5.6324,5.6135,5.5753,5.5572,5.5817,5.582,5.58,5.5866,5.5587,5.5394,5.52,5.4973,5.4736,5.4423,5.4628,5.476,5.4574,5.4991,5.4952,5.4592,5.4264,5.4293,5.388,5.2972,5.2079,5.3138,5.2734,5.213,5.1899,5.237,5.2202,5.1732,5.1464,5.0626,4.8428,4.8958,4.9057,4.8494,4.8991,4.909,4.9458,5.0192,5.0759,5.0459,4.9956,4.979,4.9127,4.836,4.7761,4.7395,4.7577,4.7696,4.7348,4.7129,4.7233,4.7302,4.7235,4.7201,4.7369,4.7537,4.7637,4.7637,4.7704,4.7671,4.7571,4.7504,4.7372,4.6945,4.6387,4.5408,4.4594,4.375,4.2974,4.1944,4.1237,4.072,4.0335,3.9957,3.9765,3.9699,3.992,4.0075,7.8895,7.9052,7.8444,7.7899,7.7172,7.5646,7.4748,7.4081,7.2679,7.1746,7.1174,6.9483,6.7764,6.619,6.4897,6.4217,6.3935,6.332,6.2959,6.2942,6.2281,6.1785,6.1679,6.153,6.112,6.0691,6.0501,6.0173,5.9456,5.859,5.7903,5.78,5.7344,5.7149,5.6743,5.6307,5.6238,5.6395,5.6535,5.6667,5.6757,5.678,5.6624,5.6219,5.5928,5.562,5.5445,5.5268,5.5333,5.5152,5.5432,5.5253,5.4755,5.4309,5.4102,5.4614,5.3556,5.3175,5.364,5.3166,5.2666,5.2503,5.2604,5.2638,5.1864,5.1461,5.0854,4.8714,4.888,4.888,4.8616,4.888,4.875,4.9087,5.0059,5.0226,5.0426,5.0459,5.0025,4.9294,4.8597,4.8067,4.7569,4.7496,4.7517,4.7253,4.7097,4.7199,4.7335,4.7403,4.7403,4.7436,4.7637,4.7803,4.777,4.777,4.777,4.7704,4.7637,4.744,4.7043,4.6388,4.5473,4.4852,4.4332,4.3428,4.2301,4.1688,4.1233,4.0908,4.0616,4.0455,4.0262,4.0217,4.0405,7.8506,7.8804,7.8224,7.7594,7.6862,7.5669,7.474,7.3879,7.2721,7.2133,7.1369,6.9474,6.7406,6.6022,6.5059,6.4374,6.3986,6.3447,6.3263,6.2882,6.2244,6.1859,6.1831,6.176,6.1464,6.1359,6.1246,6.0949,6.0122,5.9254,5.8758,5.8624,5.7752,5.7602,5.7492,5.6906,5.6486,5.6829,5.7218,5.7409,5.7557,5.7814,5.7518,5.7117,5.6782,5.6608,5.6297,5.6496,5.6318,5.5352,5.5899,5.5787,5.4981,5.446,5.4387,5.4761,5.4148,5.3967,5.3965,5.3633,5.303,5.2867,5.2803,5.27,5.1458,5.1151,5.0576,4.8933,4.8928,4.8897,4.8829,4.8863,4.8801,4.9112,4.9721,4.9756,4.9857,5.0092,5.0126,4.9591,4.8959,4.8464,4.8001,4.7569,4.7366,4.7097,4.7064,4.7167,4.7301,4.7436,4.7504,4.7504,4.7737,4.7869,4.7869,4.7869,4.7869,4.7803,4.7737,4.7474,4.7012,4.6454,4.5667,4.5142,4.4749,4.3778,4.259,4.2172,4.1778,4.1325,4.0935,4.0927,4.0823,4.0712,4.0643,7.7912,7.8196,7.7616,7.6428,7.4906,7.5092,7.474,7.3929,7.2721,7.2274,7.1772,6.9366,6.7376,6.6317,6.5427,6.4862,6.4767,6.4295,6.407,6.338,6.2382,6.1936,6.1934,6.1735,6.1423,6.1721,6.1707,6.1422,6.0961,6.0366,5.9521,5.8683,5.8277,5.7764,5.7507,5.7208,5.6966,5.7248,5.7625,5.7918,5.8063,5.8244,5.8078,5.7602,5.7398,5.6984,5.591,5.7073,5.7168,5.5608,5.6397,5.6387,5.544,5.4953,5.4978,5.4944,5.4913,5.4665,5.4454,5.4166,5.3663,5.3158,5.2823,5.2522,5.1214,5.1378,5.0634,4.9419,4.9348,4.9314,4.9246,4.908,4.9187,4.9167,4.9512,4.9581,4.975,4.9954,4.9954,4.9717,4.9287,4.876,4.8398,4.8,4.7568,4.73,4.7064,4.7167,4.7267,4.7403,4.747,4.7571,4.7803,4.7935,4.7968,4.7935,4.7836,4.7803,4.7737,4.7375,4.6947,4.6322,4.6093,4.537,4.488,4.3906,4.3231,4.3168,4.2803,4.174,4.1223,4.1122,4.1052,4.0916,4.0848,7.7902,7.7771,7.7314,7.6288,7.4955,7.5467,7.5165,7.424,7.2874,7.1456,7.0412,6.912,6.7774,6.6565,6.5853,6.5052,6.4472,6.4452,6.4218,6.3762,6.2999,6.2526,6.2493,6.2263,6.2177,6.1991,6.1937,6.1662,6.0835,6.1055,6.0387,5.956,5.9047,5.8991,5.8617,5.7853,5.764,5.7655,5.7918,5.8171,5.8384,5.8561,5.8599,5.8428,5.8013,5.8146,5.8102,5.8266,5.791,5.7454,5.7416,5.6811,5.6034,5.5579,5.5334,5.5294,5.5264,5.5113,5.4838,5.4586,5.4086,5.3281,5.2943,5.2472,5.1267,5.1641,5.1089,5.0342,5.0073,5.0181,5.0192,5.0001,4.9817,4.9458,4.9398,4.9569,4.9673,4.9946,4.9848,4.9643,4.9417,4.9025,4.8696,4.8398,4.7933,4.7535,4.73,4.7165,4.7267,4.7335,4.7403,4.7537,4.777,4.7902,4.7902,4.7869,4.7803,4.7803,4.777,4.7474,4.7144,4.7177,4.6815,4.5962,4.5241,4.469,4.4367,4.4459,4.3738,4.2447,4.1675,4.1223,4.1153,4.1117,4.1052,7.7933,7.7658,7.7231,7.6315,7.5281,7.5547,7.5244,7.4211,7.2874,7.1005,6.9067,6.8986,6.8064,6.666,6.6054,6.5178,6.4445,6.4366,6.4126,6.3692,6.3105,6.2895,6.274,6.2557,6.2217,6.211,6.2386,6.2221,6.1209,6.1685,6.1004,6.0337,6.0141,5.9957,5.916,5.8669,5.8093,5.8017,5.8207,5.8421,5.8666,5.884,5.9047,5.908,5.8799,5.8755,5.8988,5.9045,5.879,5.8398,5.8079,5.7583,5.6872,5.6234,5.5753,5.5548,5.5443,5.5383,5.5174,5.4896,5.4475,5.3779,5.3676,5.2695,5.1757,5.1941,5.1629,5.0069,5.0564,5.1151,5.0879,5.053,5.045,5.0193,5.0096,5.02,4.9999,5.0038,4.9837,4.9603,4.9382,4.9357,4.9327,4.8994,4.8164,4.78,4.7637,4.737,4.7167,4.7267,4.7301,4.747,4.7704,4.7803,4.7836,4.7869,4.7836,4.777,4.7737,4.7737,4.7539,4.7604,4.7242,4.629,4.5734,4.5538,4.534,4.5139,4.4162,4.2933,4.2351,4.1897,4.1388,4.1355,4.1321,7.7944,7.8055,7.7478,7.6511,7.5281,7.5198,7.482,7.3972,7.2705,7.1041,6.9209,6.8889,6.7959,6.6628,6.6206,6.5323,6.4567,6.4665,6.4601,6.3948,6.3122,6.2761,6.2677,6.2581,6.2461,6.2788,6.2972,6.2745,6.1685,6.2048,6.1424,6.0791,6.0637,6.0365,5.9013,5.8316,5.7946,5.7991,5.8525,5.8806,5.8978,5.9149,5.9352,5.9518,5.9482,5.9399,5.9446,5.9721,5.9495,5.891,5.8743,5.821,5.7453,5.6858,5.6341,5.5889,5.5777,5.5654,5.5478,5.5174,5.473,5.4281,5.414,5.3563,5.233,5.2204,5.2201,5.0639,5.0727,5.1001,5.0891,5.0826,5.0949,5.1128,5.1065,5.0798,5.06,5.026,5.0094,4.9833,4.9747,4.9723,4.9826,4.9592,4.8561,4.8065,4.7935,4.7704,4.7335,4.7167,4.7167,4.7436,4.7637,4.7737,4.7803,4.7902,4.7902,4.7803,4.7737,4.7704,4.7737,4.777,4.7243,4.652,4.6061,4.5701,4.5667,4.5662,4.4617,4.3708,4.3223,4.2738,4.2066,4.1619,4.1584,7.8132,7.8113,7.7427,7.6535,7.574,7.5628,7.4969,7.3716,7.2552,7.1236,6.976,6.8769,6.7887,6.7035,6.631,6.563,6.5136,6.4785,6.4778,6.4513,6.3507,6.3299,6.3123,6.3038,6.2871,6.2851,6.3068,6.298,6.1776,6.2317,6.1895,6.1216,6.0843,6.051,5.9856,5.9254,5.9028,5.8624,5.8806,5.9047,5.9183,5.9419,5.9619,5.9914,5.9946,5.9931,5.9933,6.0317,6.0123,5.9632,5.9537,5.8656,5.8207,5.771,5.6567,5.6396,5.6361,5.5936,5.5793,5.5525,5.4925,5.4552,5.4337,5.3929,5.2444,5.3085,5.2501,5.1744,5.1579,5.1922,5.2323,5.1651,5.1663,5.2109,5.2077,5.1607,5.1303,5.0859,5.0521,5.0164,5.001,4.9892,4.9924,5.0089,4.9287,4.8391,4.8198,4.7836,4.7403,4.7132,4.7064,4.7369,4.7571,4.7671,4.777,4.8001,4.8035,4.7902,4.7736,4.7604,4.7704,4.7836,4.7704,4.7144,4.6454,4.5832,4.57,4.5501,4.5172,4.4584,4.4,4.3642,4.3255,4.2579,4.2002,7.8166,7.8036,7.7677,7.6916,7.6036,7.5896,7.503,7.353,7.2339,7.1194,6.9996,6.8644,6.7786,6.7266,6.6563,6.5902,6.5496,6.5323,6.5019,6.4813,6.3914,6.3486,6.3419,6.3432,6.3096,6.3033,6.3371,6.3307,6.2338,6.2672,6.2118,6.125,6.0958,6.0502,6.0088,5.9732,5.9436,5.9046,5.9081,5.9318,5.9485,5.9718,5.9914,6.0139,6.0294,6.0446,6.0666,6.0793,6.0884,6.0612,5.9977,5.9041,5.8859,5.8039,5.6794,5.673,5.6496,5.6077,5.5908,5.585,5.5256,5.4625,5.4757,5.4087,5.3111,5.3521,5.3012,5.2566,5.2609,5.2775,5.2838,5.2198,5.234,5.2787,5.2959,5.2488,5.2081,5.167,5.1359,5.09,5.0413,5.0259,5.0087,5.0182,5.0045,4.9215,4.8456,4.8028,4.7634,4.7365,4.7127,4.73,4.7665,4.7931,4.8131,4.8265,4.8231,4.7999,4.7868,4.7703,4.7671,4.777,4.7803,4.7836,4.7243,4.6553,4.5668,4.5275,4.5241,4.5011,4.4523,4.4327,4.4322,4.377,4.3062,7.819,7.8012,7.8399,7.7497,7.6064,7.5694,7.4755,7.3307,7.1935,7.0865,7.0082,6.8856,6.7962,6.7389,6.6786,6.6088,6.5618,6.5502,6.5253,6.4627,6.374,6.3533,6.3277,6.3028,6.3105,6.3469,6.3653,6.3467,6.2859,6.268,6.2008,6.14,6.1211,6.0785,6.0369,6.004,5.9665,5.9288,5.9492,5.969,5.9818,6.0083,6.0343,6.0525,6.0635,6.0848,6.1034,6.1093,6.1182,6.0896,6.0279,5.9623,5.8902,5.808,5.7267,5.6641,5.6316,5.6169,5.6021,5.5957,5.5758,5.5232,5.5134,5.4504,5.4029,5.3822,5.3286,5.2703,5.2469,5.2772,5.2906,5.288,5.2885,5.3297,5.3676,5.3405,5.3031,5.2654,5.2343,5.1877,5.1252,5.0927,5.0691,5.0651,5.0843,5.0241,4.9444,4.858,4.8152,4.7727,4.7491,4.7228,4.7693,4.8286,4.8488,4.8557,4.8526,4.8326,4.8132,4.7967,4.7902,4.7704,4.7737,4.777,4.7869,4.7243,4.6061,4.557,4.5537,4.5275,4.5046,4.4686,4.4585,4.4937,4.4579,7.806,7.79,7.7979,7.7294,7.6204,7.476,7.3917,7.3506,7.1496,7.0556,7.0806,6.839,6.7705,6.7934,6.6786,6.6147,6.586,6.5621,6.5397,6.4706,6.3783,6.3756,6.3558,6.3306,6.3285,6.3372,6.3469,6.34,6.2706,6.2453,6.2434,6.2183,6.1575,6.1197,6.0802,6.0566,5.9943,5.9665,5.9972,6.0133,6.0291,6.0624,6.0839,6.1006,6.098,6.1182,6.1328,6.1299,6.1357,6.1272,6.0476,5.9931,5.9973,5.868,5.7505,5.6653,5.641,5.63,5.6245,5.6162,5.6021,5.5822,5.559,5.5169,5.4599,5.4055,5.3594,5.3009,5.2361,5.2464,5.2801,5.2941,5.3156,5.3604,5.3913,5.3746,5.3471,5.353,5.3186,5.242,5.1792,5.1496,5.1261,5.1554,5.1647,5.1105,5.0432,4.9564,4.8667,4.8244,4.7554,4.7257,4.7883,4.8544,4.8705,4.8807,4.8746,4.8653,4.8459,4.8198,4.7901,4.7736,4.767,4.7671,4.7737,4.7143,4.6126,4.5865,4.5799,4.5797,4.56,4.5175,4.4979,4.5235,4.5524,7.7953,7.7538,7.7582,7.7189,7.6322,7.4486,7.381,7.3615,7.1293,7.046,7.0556,6.826,6.7601,6.8037,6.6941,6.6149,6.5981,6.5769,6.5392,6.4467,6.3892,6.353,6.3412,6.3412,6.3243,6.3241,6.3356,6.3396,6.2699,6.2078,6.1922,6.1794,6.1584,6.1079,6.0497,6.0184,6.0215,6.0141,6.0342,6.0571,6.0835,6.1094,6.1188,6.1462,6.1396,6.1451,6.1623,6.153,6.1587,6.1508,6.0711,6.0316,6.0176,5.8979,5.8007,5.7227,5.6797,5.6609,5.6519,5.6391,5.6217,5.6077,5.585,5.5502,5.4939,5.4298,5.377,5.3166,5.2492,5.2087,5.2457,5.2866,5.3357,5.3876,5.3879,5.3949,5.4078,5.4269,5.3697,5.2895,5.2398,5.2101,5.2134,5.2463,5.2487,5.1978,5.1397,5.0684,4.9619,4.8692,4.774,4.6985,4.7974,4.8866,4.8958,4.9186,4.9428,4.9307,4.882,4.8492,4.8064,4.7836,4.7836,4.7704,4.7605,4.711,4.6716,4.6191,4.6028,4.5995,4.5896,4.5406,4.5177,4.5369,4.566,7.7815,7.7146,7.7287,7.7177,7.6483,7.4764,7.4122,7.4067,7.1406,7.0257,7.0088,6.8313,6.773,6.8042,6.6951,6.6216,6.5922,6.5763,6.5136,6.3954,6.3672,6.3349,6.3147,6.296,6.2956,6.3103,6.3216,6.3252,6.2714,6.2234,6.1783,6.1137,6.0977,6.0808,6.0635,6.0456,6.0693,6.107,6.0914,6.096,6.1266,6.1375,6.1336,6.1932,6.1817,6.1651,6.1728,6.1784,6.1784,6.1504,6.1187,6.0691,5.9908,5.9078,5.8329,5.7762,5.709,5.6831,5.668,5.6519,5.6446,5.6245,5.5993,5.5735,5.5238,5.4613,5.4091,5.3145,5.2372,5.2211,5.2482,5.2654,5.3072,5.3601,5.3915,5.3949,5.4045,5.4173,5.3967,5.3267,5.2938,5.2673,5.2606,5.2874,5.2729,5.2451,5.2068,5.1448,5.0573,4.9378,4.845,4.7367,4.8202,4.9192,4.9401,4.9664,5.0242,5.0091,4.9374,4.8852,4.8425,4.8166,4.7968,4.7869,4.7769,4.7869,4.7572,4.6913,4.6323,4.6192,4.5996,4.5538,4.5473,4.5797,4.5599,7.8179,7.8046,7.7741,7.7112,7.6224,7.4885,7.411,7.3647,7.1544,7.0697,7.0556,6.8664,6.7824,6.8199,6.6842,6.5981,6.571,6.5602,6.4927,6.4132,6.3583,6.3308,6.3142,6.29,6.2796,6.2751,6.2876,6.2997,6.2729,6.2484,6.2552,6.2766,6.2262,6.1745,6.164,6.1564,6.1588,6.2005,6.1735,6.1671,6.2009,6.2351,6.2572,6.2123,6.1659,6.168,6.1756,6.1895,6.1868,6.1704,6.1715,6.1073,6.002,5.8849,5.8037,5.7485,5.7185,5.6927,5.6812,5.668,5.6546,5.6473,5.6245,5.6049,5.5665,5.5054,5.424,5.3221,5.252,5.2459,5.2471,5.2643,5.2826,5.3393,5.3915,5.3948,5.398,5.4042,5.407,5.3808,5.3444,5.3279,5.3213,5.3045,5.2871,5.2624,5.2269,5.1714,5.1074,5.0138,4.9588,4.8767,4.886,4.9521,4.9624,4.9852,5.0272,5.0246,4.963,4.9143,4.8755,4.8365,4.8001,4.8001,4.8001,4.8001,4.7802,4.7176,4.6749,4.6651,4.652,4.6225,4.6454,4.6779,4.6057,7.8011,7.7745,7.757,7.6748,7.5717,7.4844,7.4314,7.3676,7.1842,7.109,7.0848,6.8818,6.7953,6.8329,6.6695,6.5892,6.5644,6.5498,6.4579,6.3734,6.3671,6.3327,6.311,6.281,6.2584,6.2464,6.2365,6.2412,6.2722,6.2404,6.2463,6.3013,6.2785,6.2614,6.2544,6.2255,6.2453,6.2976,6.2599,6.2679,6.28,6.275,6.2796,6.2227,6.1997,6.1831,6.1784,6.1923,6.195,6.177,6.1607,6.1606,6.0606,5.9341,5.859,5.8156,5.7691,5.6959,5.6943,5.6812,5.6716,5.6644,5.641,5.6217,5.6049,5.5443,5.4828,5.3847,5.2731,5.2511,5.29,5.3111,5.3307,5.377,5.3879,5.3915,5.4013,5.4108,5.4139,5.4074,5.3778,5.3548,5.3415,5.318,5.3041,5.2799,5.2412,5.2086,5.1408,5.0867,5.0347,4.988,4.9714,4.9453,4.9329,4.9628,5.0079,4.9951,4.972,4.9048,4.843,4.8233,4.8001,4.8001,4.8001,4.8001,4.7704,4.7373,4.7406,4.744,4.7276,4.7078,4.734,4.7537,4.6912,7.7482,7.692,7.706,7.6306,7.5126,7.4596,7.4299,7.3922,7.2169,7.1151,7.0721,6.8562,6.8427,6.8098,6.6819,6.6311,6.5814,6.5508,6.4377,6.364,6.3839,6.3476,6.3045,6.2572,6.2442,6.2189,6.1965,6.2394,6.2847,6.2552,6.2398,6.2496,6.2438,6.2231,6.2124,6.2219,6.2763,6.3562,6.3754,6.3938,6.3458,6.2765,6.2875,6.2785,6.2442,6.171,6.1764,6.1923,6.2005,6.1743,6.1497,6.1422,6.1074,5.9947,5.9376,5.8842,5.8159,5.7623,5.7366,5.7015,5.6982,5.6877,5.6617,5.6355,5.6253,5.5907,5.5292,5.4582,5.3468,5.2904,5.3329,5.3518,5.3716,5.384,5.3878,5.3915,5.4078,5.4175,5.4207,5.4207,5.4045,5.3816,5.3617,5.3416,5.3144,5.2903,5.2624,5.2233,5.1809,5.1365,5.0917,5.029,4.9847,4.9509,4.9329,4.918,4.9562,4.9749,4.9456,4.8721,4.8167,4.8068,4.8001,4.8001,4.8001,4.81,4.8034,4.7802,4.7902,4.8001,4.7803,4.754,4.7605,4.7737,4.7671,7.6843,7.6125,7.6798,7.6106,7.4582,7.4172,7.3675,7.2834,7.179,7.0877,7.0031,6.9063,6.8564,6.8857,6.6793,6.5997,6.6192,6.5663,6.4654,6.3723,6.3994,6.3621,6.3195,6.2772,6.2521,6.2167,6.1916,6.2165,6.2731,6.2791,6.2953,6.3255,6.3508,6.3552,6.3834,6.3864,6.3994,6.4511,6.4489,6.45,6.5054,6.4429,6.3555,6.3209,6.2738,6.2191,6.1981,6.2005,6.206,6.1869,6.1451,6.1381,6.1047,6.0478,5.9796,5.9272,5.8553,5.8246,5.7902,5.7237,5.7097,5.7369,5.7039,5.6546,5.6437,5.6328,5.5913,5.5702,5.4704,5.3798,5.3862,5.3679,5.3773,5.3871,5.3915,5.398,5.4112,5.4175,5.4239,5.4207,5.4143,5.398,5.3882,5.3584,5.3179,5.2972,5.2799,5.2447,5.202,5.1704,5.1426,5.0671,4.9951,5.004,4.9997,4.88,4.8809,4.9129,4.9322,4.8849,4.843,4.81,4.8067,4.8829,4.8498,4.8299,4.8199,4.8431,4.8199,4.8232,4.8067,4.7902,4.7935,4.7902,4.7869]}]]